<?xml version='1.0' encoding='UTF-8'?><gpx version="1.1" creator="JPX - https://github.com/jenetics/jpx" xmlns="http://www.topografix.com/GPX/1/1"><trk><trkseg><trkpt lat="44.489871620895215" lon="11.319827054774962"><ele>72.0</ele><time>2026-03-22T09:49:32.999Z</time></trkpt><trkpt lat="44.48996542949484" lon="11.319801187876097"><ele>72.0</ele><time>2026-03-22T09:49:34.999Z</time></trkpt><trkpt lat="44.49005051713851" lon="11.319730435973593"><ele>72.0</ele><time>2026-03-22T09:49:36.999Z</time></trkpt><trkpt lat="44.49012407036867" lon="11.319693433361142"><ele>72.0</ele><time>2026-03-22T09:49:38.999Z</time></trkpt><trkpt lat="44.49018022338893" lon="11.31964108843896"><ele>72.0</ele><time>2026-03-22T09:49:40.999Z</time></trkpt><trkpt lat="44.49024793997063" lon="11.319575576719478"><ele>72.0</ele><time>2026-03-22T09:49:42.999Z</time></trkpt><trkpt lat="44.49022014398531" lon="11.31944262419172"><ele>71.2</ele><time>2026-03-22T09:49:44.999Z</time></trkpt><trkpt lat="44.49017697137903" lon="11.319288860468868"><ele>70.4</ele><time>2026-03-22T09:49:46.999Z</time></trkpt><trkpt lat="44.49015414469292" lon="11.31919731359018"><ele>69.6</ele><time>2026-03-22T09:49:47.999Z</time></trkpt><trkpt lat="44.49012900063243" lon="11.319024279605449"><ele>68.8</ele><time>2026-03-22T09:49:49.999Z</time></trkpt><trkpt lat="44.490079862544825" lon="11.318858882335622"><ele>68.0</ele><time>2026-03-22T09:49:51.999Z</time></trkpt><trkpt lat="44.49006217312783" lon="11.31873566288649"><ele>67.83333333333334</ele><time>2026-03-22T09:49:53.999Z</time></trkpt><trkpt lat="44.49005203268279" lon="11.3186240384058"><ele>67.66666666666667</ele><time>2026-03-22T09:49:54.999Z</time></trkpt><trkpt lat="44.490031869158706" lon="11.318523995662359"><ele>67.5</ele><time>2026-03-22T09:49:55.999Z</time></trkpt><trkpt lat="44.490027635302305" lon="11.318401060120092"><ele>67.33333333333333</ele><time>2026-03-22T09:49:56.999Z</time></trkpt><trkpt lat="44.48998225113084" lon="11.318275942783448"><ele>67.16666666666666</ele><time>2026-03-22T09:49:57.999Z</time></trkpt><trkpt lat="44.48995746624063" lon="11.318146753060292"><ele>67.0</ele><time>2026-03-22T09:49:58.999Z</time></trkpt><trkpt lat="44.48993328634679" lon="11.318001102953406"><ele>67.0</ele><time>2026-03-22T09:49:59.999Z</time></trkpt><trkpt lat="44.489912602769735" lon="11.317878456967346"><ele>67.0</ele><time>2026-03-22T09:50:00.999Z</time></trkpt><trkpt lat="44.48990159518531" lon="11.317788237778846"><ele>67.0</ele><time>2026-03-22T09:50:01.999Z</time></trkpt><trkpt lat="44.48988990092951" lon="11.317698911322388"><ele>67.0</ele><time>2026-03-22T09:50:02.999Z</time></trkpt><trkpt lat="44.48989412097085" lon="11.31748072514899"><ele>67.0</ele><time>2026-03-22T09:50:05Z</time></trkpt><trkpt lat="44.48989293893194" lon="11.317366210572157"><ele>67.4</ele><time>2026-03-22T09:50:06Z</time></trkpt><trkpt lat="44.48993351616587" lon="11.317197080332578"><ele>67.80000000000001</ele><time>2026-03-22T09:50:08Z</time></trkpt><trkpt lat="44.4899767999539" lon="11.317103595821168"><ele>68.2</ele><time>2026-03-22T09:50:10Z</time></trkpt><trkpt lat="44.49001049413719" lon="11.316975475588555"><ele>68.60000000000001</ele><time>2026-03-22T09:50:13Z</time></trkpt><trkpt lat="44.49005213886504" lon="11.31683819650029"><ele>69.0</ele><time>2026-03-22T09:50:14Z</time></trkpt><trkpt lat="44.490080774189366" lon="11.316724640341347"><ele>69.0</ele><time>2026-03-22T09:50:15Z</time></trkpt><trkpt lat="44.49011739797128" lon="11.316586685123303"><ele>69.0</ele><time>2026-03-22T09:50:17Z</time></trkpt><trkpt lat="44.490143308183235" lon="11.316501896574701"><ele>69.0</ele><time>2026-03-22T09:50:19Z</time></trkpt><trkpt lat="44.49005831472404" lon="11.316398227860908"><ele>69.0</ele><time>2026-03-22T09:50:23Z</time></trkpt><trkpt lat="44.48995760202472" lon="11.316344647936033"><ele>69.0</ele><time>2026-03-22T09:50:24Z</time></trkpt><trkpt lat="44.4898595989003" lon="11.316291788584929"><ele>69.0</ele><time>2026-03-22T09:50:25Z</time></trkpt><trkpt lat="44.48977254213769" lon="11.316237097960341"><ele>69.0</ele><time>2026-03-22T09:50:26Z</time></trkpt><trkpt lat="44.48966456462723" lon="11.316191722810501"><ele>69.0</ele><time>2026-03-22T09:50:27Z</time></trkpt><trkpt lat="44.489575387367" lon="11.316106095838744"><ele>69.0</ele><time>2026-03-22T09:50:28Z</time></trkpt><trkpt lat="44.48950906115335" lon="11.316015116881523"><ele>69.0</ele><time>2026-03-22T09:50:29Z</time></trkpt><trkpt lat="44.489459953684666" lon="11.315954028049447"><ele>70.2</ele><time>2026-03-22T09:50:30Z</time></trkpt><trkpt lat="44.48939720776545" lon="11.3158719768644"><ele>71.4</ele><time>2026-03-22T09:50:32Z</time></trkpt><trkpt lat="44.48933052965733" lon="11.315840440013957"><ele>72.6</ele><time>2026-03-22T09:50:54Z</time></trkpt><trkpt lat="44.489282875609675" lon="11.315781545329475"><ele>73.8</ele><time>2026-03-22T09:50:57Z</time></trkpt><trkpt lat="44.48921940099291" lon="11.315721932562981"><ele>75.0</ele><time>2026-03-22T09:51:35.999Z</time></trkpt><trkpt lat="44.489341400569316" lon="11.315476263822095"><ele>73.66666666666667</ele><time>2026-03-22T09:51:38.999Z</time></trkpt><trkpt lat="44.48946586485595" lon="11.315261477010695"><ele>72.33333333333334</ele><time>2026-03-22T09:51:39.999Z</time></trkpt><trkpt lat="44.4895823200869" lon="11.315046742586743"><ele>71.0</ele><time>2026-03-22T09:51:40.999Z</time></trkpt><trkpt lat="44.48964906249096" lon="11.314884910236902"><ele>71.0</ele><time>2026-03-22T09:51:41.999Z</time></trkpt><trkpt lat="44.48972217550737" lon="11.314752921830513"><ele>71.0</ele><time>2026-03-22T09:51:42.999Z</time></trkpt><trkpt lat="44.48978360405624" lon="11.314637136493028"><ele>71.0</ele><time>2026-03-22T09:51:43.999Z</time></trkpt><trkpt lat="44.489855156925586" lon="11.314511267769152"><ele>71.0</ele><time>2026-03-22T09:51:44.999Z</time></trkpt><trkpt lat="44.48993286499683" lon="11.314381924981513"><ele>72.2</ele><time>2026-03-22T09:51:45.999Z</time></trkpt><trkpt lat="44.48998816568831" lon="11.314257146466515"><ele>73.39999999999999</ele><time>2026-03-22T09:51:46.999Z</time></trkpt><trkpt lat="44.490016598683475" lon="11.314139041340782"><ele>74.6</ele><time>2026-03-22T09:51:47.999Z</time></trkpt><trkpt lat="44.49004371697198" lon="11.314008675358172"><ele>75.8</ele><time>2026-03-22T09:51:48.999Z</time></trkpt><trkpt lat="44.490039192164765" lon="11.313849602414553"><ele>77.0</ele><time>2026-03-22T09:51:49.999Z</time></trkpt><trkpt lat="44.49004112416803" lon="11.313678801384274"><ele>77.0</ele><time>2026-03-22T09:51:50.999Z</time></trkpt><trkpt lat="44.49004653717254" lon="11.313507347487011"><ele>77.0</ele><time>2026-03-22T09:51:51.999Z</time></trkpt><trkpt lat="44.49004946668983" lon="11.313337524131919"><ele>77.0</ele><time>2026-03-22T09:51:52.999Z</time></trkpt><trkpt lat="44.49004706361515" lon="11.313168206344502"><ele>77.0</ele><time>2026-03-22T09:51:53.999Z</time></trkpt><trkpt lat="44.490053152685284" lon="11.313019569635587"><ele>77.0</ele><time>2026-03-22T09:51:54.999Z</time></trkpt><trkpt lat="44.49006595968497" lon="11.312871482454993"><ele>77.0</ele><time>2026-03-22T09:51:55.999Z</time></trkpt><trkpt lat="44.49007081903768" lon="11.312717955355721"><ele>77.0</ele><time>2026-03-22T09:51:56.999Z</time></trkpt><trkpt lat="44.49008136104091" lon="11.3125904072627"><ele>77.0</ele><time>2026-03-22T09:51:57.999Z</time></trkpt><trkpt lat="44.4900814420251" lon="11.31246953583327"><ele>77.0</ele><time>2026-03-22T09:51:58.999Z</time></trkpt><trkpt lat="44.49007984883677" lon="11.31234983350867"><ele>76.5</ele><time>2026-03-22T09:51:59.999Z</time></trkpt><trkpt lat="44.490079385958424" lon="11.31223706821024"><ele>76.0</ele><time>2026-03-22T09:52:00.999Z</time></trkpt><trkpt lat="44.49008317349608" lon="11.312120367199267"><ele>75.5</ele><time>2026-03-22T09:52:01.999Z</time></trkpt><trkpt lat="44.49008825406037" lon="11.312017165938343"><ele>75.0</ele><time>2026-03-22T09:52:02.999Z</time></trkpt><trkpt lat="44.49008953310773" lon="11.311922143611566"><ele>74.5</ele><time>2026-03-22T09:52:03.999Z</time></trkpt><trkpt lat="44.490096121117276" lon="11.311770687664838"><ele>74.0</ele><time>2026-03-22T09:52:05.999Z</time></trkpt><trkpt lat="44.49009713154699" lon="11.311680532425314"><ele>74.0</ele><time>2026-03-22T09:52:08.999Z</time></trkpt><trkpt lat="44.490105783690886" lon="11.311590883159472"><ele>74.0</ele><time>2026-03-22T09:52:41Z</time></trkpt><trkpt lat="44.49011049468559" lon="11.31140457620383"><ele>74.0</ele><time>2026-03-22T09:52:43Z</time></trkpt><trkpt lat="44.490117959858864" lon="11.311303526601336"><ele>74.0</ele><time>2026-03-22T09:52:44Z</time></trkpt><trkpt lat="44.490121666010424" lon="11.311207703828316"><ele>74.0</ele><time>2026-03-22T09:52:45Z</time></trkpt><trkpt lat="44.490121915123545" lon="11.311058342813885"><ele>74.0</ele><time>2026-03-22T09:52:47Z</time></trkpt><trkpt lat="44.49012527129233" lon="11.310950672921937"><ele>74.0</ele><time>2026-03-22T09:52:49Z</time></trkpt><trkpt lat="44.49016977261561" lon="11.31083134971048"><ele>74.0</ele><time>2026-03-22T09:53:36.999Z</time></trkpt><trkpt lat="44.49021073403819" lon="11.310750484626418"><ele>74.0</ele><time>2026-03-22T09:53:57.999Z</time></trkpt><trkpt lat="44.49023130765471" lon="11.310621405495285"><ele>74.0</ele><time>2026-03-22T09:53:59.999Z</time></trkpt><trkpt lat="44.49020648968424" lon="11.310422934965327"><ele>74.0</ele><time>2026-03-22T09:54:00.999Z</time></trkpt><trkpt lat="44.49019507138938" lon="11.31022848315182"><ele>74.0</ele><time>2026-03-22T09:54:01.999Z</time></trkpt><trkpt lat="44.4901956651144" lon="11.31005130154902"><ele>74.0</ele><time>2026-03-22T09:54:02.999Z</time></trkpt><trkpt lat="44.490196242483194" lon="11.309882692931192"><ele>74.0</ele><time>2026-03-22T09:54:03.999Z</time></trkpt><trkpt lat="44.49020351568124" lon="11.30970714634375"><ele>74.0</ele><time>2026-03-22T09:54:04.999Z</time></trkpt><trkpt lat="44.49022728406626" lon="11.309533715074547"><ele>73.75</ele><time>2026-03-22T09:54:05.999Z</time></trkpt><trkpt lat="44.49025979991126" lon="11.309357087456545"><ele>73.5</ele><time>2026-03-22T09:54:06.999Z</time></trkpt><trkpt lat="44.49031088834674" lon="11.309165827547938"><ele>73.25</ele><time>2026-03-22T09:54:07.999Z</time></trkpt><trkpt lat="44.49036721098165" lon="11.308964360446414"><ele>73.0</ele><time>2026-03-22T09:54:08.999Z</time></trkpt><trkpt lat="44.49042853622426" lon="11.308775941970055"><ele>71.4</ele><time>2026-03-22T09:54:09.999Z</time></trkpt><trkpt lat="44.49048246398136" lon="11.308625616858638"><ele>69.8</ele><time>2026-03-22T09:54:10.999Z</time></trkpt><trkpt lat="44.49052205620796" lon="11.308512541877132"><ele>68.2</ele><time>2026-03-22T09:54:11.999Z</time></trkpt><trkpt lat="44.49055031909008" lon="11.30842614879634"><ele>66.6</ele><time>2026-03-22T09:54:12.999Z</time></trkpt><trkpt lat="44.49059926842029" lon="11.308279101899469"><ele>65.0</ele><time>2026-03-22T09:54:14.999Z</time></trkpt><trkpt lat="44.490633129594194" lon="11.30819371310698"><ele>64.8</ele><time>2026-03-22T09:54:15.999Z</time></trkpt><trkpt lat="44.4906728527377" lon="11.30806813472941"><ele>64.6</ele><time>2026-03-22T09:54:17Z</time></trkpt><trkpt lat="44.49071772429421" lon="11.307940261716231"><ele>64.4</ele><time>2026-03-22T09:54:18Z</time></trkpt><trkpt lat="44.490753176592804" lon="11.307821000506529"><ele>64.2</ele><time>2026-03-22T09:54:19Z</time></trkpt><trkpt lat="44.49079038163581" lon="11.307688976614465"><ele>64.0</ele><time>2026-03-22T09:54:20Z</time></trkpt><trkpt lat="44.49083570942148" lon="11.307535216454898"><ele>64.0</ele><time>2026-03-22T09:54:21Z</time></trkpt><trkpt lat="44.490885638832445" lon="11.307371004638204"><ele>64.0</ele><time>2026-03-22T09:54:22Z</time></trkpt><trkpt lat="44.49093104876827" lon="11.30719951031724"><ele>64.0</ele><time>2026-03-22T09:54:23Z</time></trkpt><trkpt lat="44.49098615208322" lon="11.307024291465344"><ele>64.0</ele><time>2026-03-22T09:54:24Z</time></trkpt><trkpt lat="44.49104777565245" lon="11.306829104724262"><ele>64.0</ele><time>2026-03-22T09:54:25Z</time></trkpt><trkpt lat="44.49110620096839" lon="11.306618869962813"><ele>64.0</ele><time>2026-03-22T09:54:26Z</time></trkpt><trkpt lat="44.49116939148307" lon="11.30642792470322"><ele>64.0</ele><time>2026-03-22T09:54:27Z</time></trkpt><trkpt lat="44.491219686128055" lon="11.306253046362345"><ele>64.0</ele><time>2026-03-22T09:54:28Z</time></trkpt><trkpt lat="44.49126710652145" lon="11.306082545985806"><ele>63.0</ele><time>2026-03-22T09:54:29Z</time></trkpt><trkpt lat="44.49131184860452" lon="11.305886967541944"><ele>62.0</ele><time>2026-03-22T09:54:30Z</time></trkpt><trkpt lat="44.49135256061496" lon="11.305671449478101"><ele>61.0</ele><time>2026-03-22T09:54:31Z</time></trkpt><trkpt lat="44.49137930589206" lon="11.305480516202095"><ele>60.0</ele><time>2026-03-22T09:54:32Z</time></trkpt><trkpt lat="44.49139085891599" lon="11.30533096641734"><ele>59.75</ele><time>2026-03-22T09:54:33Z</time></trkpt><trkpt lat="44.491393533125944" lon="11.305173497859679"><ele>59.5</ele><time>2026-03-22T09:54:34Z</time></trkpt><trkpt lat="44.49140038212022" lon="11.304979360930538"><ele>59.25</ele><time>2026-03-22T09:54:35Z</time></trkpt><trkpt lat="44.49138700280537" lon="11.304745081726663"><ele>59.0</ele><time>2026-03-22T09:54:36Z</time></trkpt><trkpt lat="44.49136702759933" lon="11.304488898112572"><ele>59.0</ele><time>2026-03-22T09:54:37Z</time></trkpt><trkpt lat="44.49135036098432" lon="11.304258118435165"><ele>59.0</ele><time>2026-03-22T09:54:38Z</time></trkpt><trkpt lat="44.49132705999583" lon="11.304062255543531"><ele>59.0</ele><time>2026-03-22T09:54:39Z</time></trkpt><trkpt lat="44.49130950580404" lon="11.303872305701445"><ele>59.0</ele><time>2026-03-22T09:54:40Z</time></trkpt><trkpt lat="44.49129487096797" lon="11.303674154474315"><ele>59.0</ele><time>2026-03-22T09:54:41Z</time></trkpt><trkpt lat="44.49128006767554" lon="11.303490943624677"><ele>59.0</ele><time>2026-03-22T09:54:42Z</time></trkpt><trkpt lat="44.49126293400967" lon="11.30332048844063"><ele>59.0</ele><time>2026-03-22T09:54:43Z</time></trkpt><trkpt lat="44.49125125668057" lon="11.303152565450187"><ele>59.0</ele><time>2026-03-22T09:54:44Z</time></trkpt><trkpt lat="44.49123462316896" lon="11.30299575010031"><ele>58.833333333333336</ele><time>2026-03-22T09:54:45Z</time></trkpt><trkpt lat="44.49121811083977" lon="11.30284899397054"><ele>58.66666666666667</ele><time>2026-03-22T09:54:46Z</time></trkpt><trkpt lat="44.491210038670275" lon="11.302714923629273"><ele>58.5</ele><time>2026-03-22T09:54:47Z</time></trkpt><trkpt lat="44.49119583639913" lon="11.302592906928725"><ele>58.33333333333333</ele><time>2026-03-22T09:54:48Z</time></trkpt><trkpt lat="44.491185999583564" lon="11.302478464124047"><ele>58.166666666666664</ele><time>2026-03-22T09:54:49Z</time></trkpt><trkpt lat="44.49117597333638" lon="11.30238419061105"><ele>58.0</ele><time>2026-03-22T09:54:50Z</time></trkpt><trkpt lat="44.49117399968129" lon="11.302262384812297"><ele>57.8</ele><time>2026-03-22T09:54:52Z</time></trkpt><trkpt lat="44.491163960862394" lon="11.30216394255889"><ele>57.599999999999994</ele><time>2026-03-22T09:54:56Z</time></trkpt><trkpt lat="44.49119698864783" lon="11.302055780076644"><ele>57.400000000000006</ele><time>2026-03-22T09:55:12Z</time></trkpt><trkpt lat="44.49131919458594" lon="11.301974117700263"><ele>57.2</ele><time>2026-03-22T09:55:14Z</time></trkpt><trkpt lat="44.49142536621638" lon="11.301996774925348"><ele>57.0</ele><time>2026-03-22T09:55:15Z</time></trkpt><trkpt lat="44.49155855654207" lon="11.302032787215824"><ele>56.8</ele><time>2026-03-22T09:55:16Z</time></trkpt><trkpt lat="44.49165899672392" lon="11.302053141964535"><ele>56.6</ele><time>2026-03-22T09:55:17Z</time></trkpt><trkpt lat="44.49173474343986" lon="11.302082270223796"><ele>56.39999999999999</ele><time>2026-03-22T09:55:18Z</time></trkpt><trkpt lat="44.491846029867666" lon="11.302136929179873"><ele>56.199999999999996</ele><time>2026-03-22T09:55:20Z</time></trkpt><trkpt lat="44.49193142692398" lon="11.302168704019358"><ele>56.0</ele><time>2026-03-22T09:55:22Z</time></trkpt><trkpt lat="44.49199549156303" lon="11.302181266870235"><ele>56.199999999999996</ele><time>2026-03-22T09:55:23Z</time></trkpt><trkpt lat="44.49210361894114" lon="11.302216287296135"><ele>56.39999999999999</ele><time>2026-03-22T09:55:25Z</time></trkpt><trkpt lat="44.49218235911663" lon="11.302257136086892"><ele>56.6</ele><time>2026-03-22T09:55:27Z</time></trkpt><trkpt lat="44.492256239784446" lon="11.302295701754993"><ele>56.8</ele><time>2026-03-22T09:56:12.999Z</time></trkpt><trkpt lat="44.49231604089961" lon="11.302330635233094"><ele>57.0</ele><time>2026-03-22T09:56:17.999Z</time></trkpt><trkpt lat="44.49244457056734" lon="11.302145303696854"><ele>57.0</ele><time>2026-03-22T09:56:22.999Z</time></trkpt><trkpt lat="44.492469301320476" lon="11.302040783785499"><ele>57.0</ele><time>2026-03-22T09:56:24.999Z</time></trkpt><trkpt lat="44.49248928648969" lon="11.30193800139739"><ele>57.0</ele><time>2026-03-22T09:56:26.999Z</time></trkpt><trkpt lat="44.4925265127899" lon="11.3018142981826"><ele>57.0</ele><time>2026-03-22T09:56:28.999Z</time></trkpt><trkpt lat="44.49255581194853" lon="11.301717986927263"><ele>57.0</ele><time>2026-03-22T09:56:30.999Z</time></trkpt><trkpt lat="44.49257845171215" lon="11.30162610932309"><ele>57.0</ele><time>2026-03-22T09:56:36Z</time></trkpt><trkpt lat="44.49263350874309" lon="11.301474459575454"><ele>57.5</ele><time>2026-03-22T09:56:40Z</time></trkpt><trkpt lat="44.492684658078495" lon="11.301322883329178"><ele>58.0</ele><time>2026-03-22T09:56:41Z</time></trkpt><trkpt lat="44.49272982905565" lon="11.301155162664875"><ele>58.5</ele><time>2026-03-22T09:56:42Z</time></trkpt><trkpt lat="44.492778686025" lon="11.300992186820377"><ele>59.0</ele><time>2026-03-22T09:56:43Z</time></trkpt><trkpt lat="44.49283624221683" lon="11.300809588836565"><ele>59.0</ele><time>2026-03-22T09:56:44Z</time></trkpt><trkpt lat="44.49288410354821" lon="11.300627965188863"><ele>59.0</ele><time>2026-03-22T09:56:45Z</time></trkpt><trkpt lat="44.492931877167116" lon="11.300470075256817"><ele>59.0</ele><time>2026-03-22T09:56:46Z</time></trkpt><trkpt lat="44.49298002813216" lon="11.300322075670191"><ele>59.0</ele><time>2026-03-22T09:56:47Z</time></trkpt><trkpt lat="44.493024875291965" lon="11.300182588335652"><ele>58.0</ele><time>2026-03-22T09:56:48Z</time></trkpt><trkpt lat="44.493071064458185" lon="11.30003643171375"><ele>57.00000000000001</ele><time>2026-03-22T09:56:49Z</time></trkpt><trkpt lat="44.49311618300069" lon="11.299901596598644"><ele>56.00000000000001</ele><time>2026-03-22T09:56:50Z</time></trkpt><trkpt lat="44.493159578693835" lon="11.299779615495858"><ele>55.0</ele><time>2026-03-22T09:56:51Z</time></trkpt><trkpt lat="44.49320564827237" lon="11.299635942528198"><ele>54.0</ele><time>2026-03-22T09:56:52Z</time></trkpt><trkpt lat="44.49325051187825" lon="11.299476596265448"><ele>54.0</ele><time>2026-03-22T09:56:53Z</time></trkpt><trkpt lat="44.49328614949201" lon="11.299338484645421"><ele>54.00000000000001</ele><time>2026-03-22T09:56:54Z</time></trkpt><trkpt lat="44.49332558920722" lon="11.29920796376829"><ele>54.00000000000001</ele><time>2026-03-22T09:56:55Z</time></trkpt><trkpt lat="44.493361755421766" lon="11.29906657365535"><ele>54.0</ele><time>2026-03-22T09:56:56Z</time></trkpt><trkpt lat="44.49339259605616" lon="11.298935972113767"><ele>54.0</ele><time>2026-03-22T09:56:57Z</time></trkpt><trkpt lat="44.4934205558278" lon="11.298816115000388"><ele>53.833333333333336</ele><time>2026-03-22T09:56:58Z</time></trkpt><trkpt lat="44.49344534587505" lon="11.298715197327803"><ele>53.66666666666667</ele><time>2026-03-22T09:56:59Z</time></trkpt><trkpt lat="44.493468889420384" lon="11.298611870958053"><ele>53.5</ele><time>2026-03-22T09:57:00Z</time></trkpt><trkpt lat="44.493489633643414" lon="11.298500795104575"><ele>53.333333333333336</ele><time>2026-03-22T09:57:01Z</time></trkpt><trkpt lat="44.49351140840454" lon="11.298393060142594"><ele>53.16666666666667</ele><time>2026-03-22T09:57:02Z</time></trkpt><trkpt lat="44.49353378060542" lon="11.298286939184724"><ele>53.0</ele><time>2026-03-22T09:57:03Z</time></trkpt><trkpt lat="44.493556997152446" lon="11.298179830821157"><ele>52.833333333333336</ele><time>2026-03-22T09:57:04Z</time></trkpt><trkpt lat="44.4935822581653" lon="11.298064579689003"><ele>52.66666666666667</ele><time>2026-03-22T09:57:05Z</time></trkpt><trkpt lat="44.49360159836254" lon="11.297959412168337"><ele>52.5</ele><time>2026-03-22T09:57:06Z</time></trkpt><trkpt lat="44.49362333169747" lon="11.297871945010039"><ele>52.33333333333333</ele><time>2026-03-22T09:57:07Z</time></trkpt><trkpt lat="44.49365788042721" lon="11.29770411325317"><ele>52.166666666666664</ele><time>2026-03-22T09:57:09Z</time></trkpt><trkpt lat="44.49367929215117" lon="11.297610712518013"><ele>52.0</ele><time>2026-03-22T09:57:10Z</time></trkpt><trkpt lat="44.49370036163847" lon="11.297519249417647"><ele>51.99999999999999</ele><time>2026-03-22T09:57:11Z</time></trkpt><trkpt lat="44.493723761783585" lon="11.29742704416085"><ele>52.0</ele><time>2026-03-22T09:57:12Z</time></trkpt><trkpt lat="44.49374699679407" lon="11.297329225480905"><ele>52.0</ele><time>2026-03-22T09:57:13Z</time></trkpt><trkpt lat="44.49377462091191" lon="11.297230531082043"><ele>52.0</ele><time>2026-03-22T09:57:14Z</time></trkpt><trkpt lat="44.493823771138466" lon="11.297143372414185"><ele>51.99999999999999</ele><time>2026-03-22T09:57:15Z</time></trkpt><trkpt lat="44.49386856166872" lon="11.297054805460808"><ele>52.0</ele><time>2026-03-22T09:57:16Z</time></trkpt><trkpt lat="44.49391109030823" lon="11.296963417179622"><ele>51.666666666666664</ele><time>2026-03-22T09:57:17Z</time></trkpt><trkpt lat="44.49394858419048" lon="11.29688012111038"><ele>51.33333333333333</ele><time>2026-03-22T09:57:18Z</time></trkpt><trkpt lat="44.49402051095517" lon="11.296720329467774"><ele>51.0</ele><time>2026-03-22T09:57:20Z</time></trkpt><trkpt lat="44.49405675078273" lon="11.296607553100928"><ele>50.66666666666667</ele><time>2026-03-22T09:57:21Z</time></trkpt><trkpt lat="44.49410467163404" lon="11.296516122172024"><ele>50.333333333333336</ele><time>2026-03-22T09:57:22Z</time></trkpt><trkpt lat="44.494139677472795" lon="11.29643476909258"><ele>50.0</ele><time>2026-03-22T09:57:23Z</time></trkpt><trkpt lat="44.494175063686555" lon="11.296355537580343"><ele>49.66666666666667</ele><time>2026-03-22T09:57:24Z</time></trkpt><trkpt lat="44.49423613312589" lon="11.29621037273754"><ele>49.333333333333336</ele><time>2026-03-22T09:57:26Z</time></trkpt><trkpt lat="44.49427156152263" lon="11.296123658429195"><ele>49.0</ele><time>2026-03-22T09:57:27Z</time></trkpt><trkpt lat="44.49430901274184" lon="11.296029405968559"><ele>48.66666666666667</ele><time>2026-03-22T09:57:28Z</time></trkpt><trkpt lat="44.49435624256278" lon="11.295927368804401"><ele>48.333333333333336</ele><time>2026-03-22T09:57:29Z</time></trkpt><trkpt lat="44.494401688255955" lon="11.29581616272297"><ele>48.0</ele><time>2026-03-22T09:57:30Z</time></trkpt><trkpt lat="44.49443811022408" lon="11.2957309221708"><ele>48.0</ele><time>2026-03-22T09:57:31Z</time></trkpt><trkpt lat="44.49450000769572" lon="11.295604106771625"><ele>48.0</ele><time>2026-03-22T09:57:33Z</time></trkpt><trkpt lat="44.49454791934324" lon="11.2954977116703"><ele>48.0</ele><time>2026-03-22T09:57:35Z</time></trkpt><trkpt lat="44.49459995099228" lon="11.295390520532058"><ele>48.0</ele><time>2026-03-22T09:57:36.999Z</time></trkpt><trkpt lat="44.494658229375325" lon="11.295276343997598"><ele>48.0</ele><time>2026-03-22T09:57:38.999Z</time></trkpt><trkpt lat="44.49451449094617" lon="11.295028682620426"><ele>48.0</ele><time>2026-03-22T09:57:41.999Z</time></trkpt><trkpt lat="44.49440733723493" lon="11.29490217180543"><ele>48.0</ele><time>2026-03-22T09:57:42.999Z</time></trkpt><trkpt lat="44.49426011424645" lon="11.294712824248677"><ele>48.0</ele><time>2026-03-22T09:57:43.999Z</time></trkpt><trkpt lat="44.49410484979897" lon="11.294496274134964"><ele>48.66666666666667</ele><time>2026-03-22T09:57:44.999Z</time></trkpt><trkpt lat="44.49395626842002" lon="11.294277979105303"><ele>49.333333333333336</ele><time>2026-03-22T09:57:45.999Z</time></trkpt><trkpt lat="44.49384680911079" lon="11.29407028982806"><ele>50.0</ele><time>2026-03-22T09:57:46.999Z</time></trkpt><trkpt lat="44.493734174613955" lon="11.293871891558162"><ele>50.66666666666667</ele><time>2026-03-22T09:57:47.999Z</time></trkpt><trkpt lat="44.493618349849186" lon="11.293657615418226"><ele>51.33333333333333</ele><time>2026-03-22T09:57:48.999Z</time></trkpt><trkpt lat="44.49350490113972" lon="11.293431965740291"><ele>52.0</ele><time>2026-03-22T09:57:49.999Z</time></trkpt><trkpt lat="44.49340434529088" lon="11.293216358065157"><ele>53.0</ele><time>2026-03-22T09:57:50.999Z</time></trkpt><trkpt lat="44.49331077508268" lon="11.29300329283282"><ele>54.0</ele><time>2026-03-22T09:57:51.999Z</time></trkpt><trkpt lat="44.493232124513355" lon="11.292805750254558"><ele>55.0</ele><time>2026-03-22T09:57:52.999Z</time></trkpt><trkpt lat="44.49316488501046" lon="11.292627568097426"><ele>55.0</ele><time>2026-03-22T09:57:53.999Z</time></trkpt><trkpt lat="44.49310650097934" lon="11.29246260046307"><ele>55.0</ele><time>2026-03-22T09:57:54.999Z</time></trkpt><trkpt lat="44.493047897018805" lon="11.292290096692803"><ele>55.0</ele><time>2026-03-22T09:57:55.999Z</time></trkpt><trkpt lat="44.49298361763978" lon="11.292099441357587"><ele>55.0</ele><time>2026-03-22T09:57:56.999Z</time></trkpt><trkpt lat="44.492924473426314" lon="11.291911470222958"><ele>54.0</ele><time>2026-03-22T09:57:57.999Z</time></trkpt><trkpt lat="44.49287504780106" lon="11.291737784763205"><ele>53.0</ele><time>2026-03-22T09:57:58.999Z</time></trkpt><trkpt lat="44.49283131712308" lon="11.291572898280027"><ele>52.0</ele><time>2026-03-22T09:57:59.999Z</time></trkpt><trkpt lat="44.49278791852819" lon="11.291415610163728"><ele>51.0</ele><time>2026-03-22T09:58:00.999Z</time></trkpt><trkpt lat="44.49274285953525" lon="11.291253807342876"><ele>51.0</ele><time>2026-03-22T09:58:01.999Z</time></trkpt><trkpt lat="44.4927001728824" lon="11.291090701919032"><ele>51.0</ele><time>2026-03-22T09:58:02.999Z</time></trkpt><trkpt lat="44.49266184832136" lon="11.290939241456721"><ele>51.0</ele><time>2026-03-22T09:58:03.999Z</time></trkpt><trkpt lat="44.49262483672452" lon="11.29080862338906"><ele>51.0</ele><time>2026-03-22T09:58:04.999Z</time></trkpt><trkpt lat="44.49259315284076" lon="11.290684227620723"><ele>51.0</ele><time>2026-03-22T09:58:05.999Z</time></trkpt><trkpt lat="44.492532486643825" lon="11.290539438307674"><ele>51.0</ele><time>2026-03-22T09:58:06.999Z</time></trkpt><trkpt lat="44.492489548382366" lon="11.290358655304031"><ele>51.0</ele><time>2026-03-22T09:58:07.999Z</time></trkpt><trkpt lat="44.492440114856535" lon="11.290196053996231"><ele>51.0</ele><time>2026-03-22T09:58:08.999Z</time></trkpt><trkpt lat="44.49240528180918" lon="11.290051387164995"><ele>51.0</ele><time>2026-03-22T09:58:09.999Z</time></trkpt><trkpt lat="44.492366765235" lon="11.289909187715331"><ele>51.0</ele><time>2026-03-22T09:58:10.999Z</time></trkpt><trkpt lat="44.49234056735536" lon="11.289780592124819"><ele>51.0</ele><time>2026-03-22T09:58:11.999Z</time></trkpt><trkpt lat="44.49232885489787" lon="11.289661038768294"><ele>51.0</ele><time>2026-03-22T09:58:12.999Z</time></trkpt><trkpt lat="44.492330642149675" lon="11.289552209467718"><ele>51.0</ele><time>2026-03-22T09:58:13.999Z</time></trkpt><trkpt lat="44.492344738388034" lon="11.28946450017183"><ele>51.0</ele><time>2026-03-22T09:58:14.999Z</time></trkpt><trkpt lat="44.49237313673471" lon="11.289338492604976"><ele>51.0</ele><time>2026-03-22T09:58:16.999Z</time></trkpt><trkpt lat="44.49240202359751" lon="11.289211887379537"><ele>51.0</ele><time>2026-03-22T09:58:19.999Z</time></trkpt><trkpt lat="44.49240725035919" lon="11.289122261007302"><ele>51.0</ele><time>2026-03-22T09:58:20.999Z</time></trkpt><trkpt lat="44.492475938664825" lon="11.288997776966625"><ele>51.0</ele><time>2026-03-22T09:58:21.999Z</time></trkpt><trkpt lat="44.49251665450921" lon="11.288837790234139"><ele>51.0</ele><time>2026-03-22T09:58:22.999Z</time></trkpt><trkpt lat="44.49257702368905" lon="11.288590737207604"><ele>50.75</ele><time>2026-03-22T09:58:23.999Z</time></trkpt><trkpt lat="44.49259796401694" lon="11.288366114267562"><ele>50.5</ele><time>2026-03-22T09:58:24.999Z</time></trkpt><trkpt lat="44.492600682572146" lon="11.288172288142205"><ele>50.25</ele><time>2026-03-22T09:58:25.999Z</time></trkpt><trkpt lat="44.49256564303584" lon="11.28798473240135"><ele>50.0</ele><time>2026-03-22T09:58:26.999Z</time></trkpt><trkpt lat="44.492496701275584" lon="11.287821429127021"><ele>50.66666666666667</ele><time>2026-03-22T09:58:27.999Z</time></trkpt><trkpt lat="44.49239304529822" lon="11.287674371528599"><ele>51.33333333333333</ele><time>2026-03-22T09:58:28.999Z</time></trkpt><trkpt lat="44.49226308140244" lon="11.287547280359936"><ele>52.0</ele><time>2026-03-22T09:58:29.999Z</time></trkpt><trkpt lat="44.49211960117984" lon="11.287457882186555"><ele>51.75</ele><time>2026-03-22T09:58:30.999Z</time></trkpt><trkpt lat="44.491983290301064" lon="11.287380732121512"><ele>51.5</ele><time>2026-03-22T09:58:31.999Z</time></trkpt><trkpt lat="44.49185392094052" lon="11.287303509849519"><ele>51.25</ele><time>2026-03-22T09:58:32.999Z</time></trkpt><trkpt lat="44.49174021823711" lon="11.28723154241259"><ele>51.0</ele><time>2026-03-22T09:58:33.999Z</time></trkpt><trkpt lat="44.49164521176169" lon="11.287162162869512"><ele>51.0</ele><time>2026-03-22T09:58:34.999Z</time></trkpt><trkpt lat="44.49155964261756" lon="11.287059041576585"><ele>51.0</ele><time>2026-03-22T09:58:35.999Z</time></trkpt><trkpt lat="44.4914757019629" lon="11.286870246102428"><ele>51.0</ele><time>2026-03-22T09:58:36.999Z</time></trkpt><trkpt lat="44.491411007087734" lon="11.286648727476342"><ele>51.0</ele><time>2026-03-22T09:58:37.999Z</time></trkpt><trkpt lat="44.491365429660725" lon="11.28645880570142"><ele>51.0</ele><time>2026-03-22T09:58:38.999Z</time></trkpt><trkpt lat="44.49130893311967" lon="11.286268997133954"><ele>51.0</ele><time>2026-03-22T09:58:39.999Z</time></trkpt><trkpt lat="44.491241635418106" lon="11.286044307981252"><ele>51.0</ele><time>2026-03-22T09:58:40.999Z</time></trkpt><trkpt lat="44.49117581647076" lon="11.285844963421233"><ele>51.0</ele><time>2026-03-22T09:58:41.999Z</time></trkpt><trkpt lat="44.49110173398534" lon="11.285650248415697"><ele>51.0</ele><time>2026-03-22T09:58:42.999Z</time></trkpt><trkpt lat="44.491029129652055" lon="11.285451158920315"><ele>51.0</ele><time>2026-03-22T09:58:43.999Z</time></trkpt><trkpt lat="44.49096630123815" lon="11.285258671655459"><ele>50.75</ele><time>2026-03-22T09:58:44.999Z</time></trkpt><trkpt lat="44.490909087637654" lon="11.285082592421816"><ele>50.5</ele><time>2026-03-22T09:58:45.999Z</time></trkpt><trkpt lat="44.49085027196225" lon="11.284898344330816"><ele>50.25</ele><time>2026-03-22T09:58:46.999Z</time></trkpt><trkpt lat="44.49078258964841" lon="11.284708675330068"><ele>50.0</ele><time>2026-03-22T09:58:47.999Z</time></trkpt><trkpt lat="44.49071985148162" lon="11.284536243132958"><ele>50.0</ele><time>2026-03-22T09:58:48.999Z</time></trkpt><trkpt lat="44.490659357170074" lon="11.284368425915998"><ele>50.0</ele><time>2026-03-22T09:58:49.999Z</time></trkpt><trkpt lat="44.49058325394141" lon="11.28417615257139"><ele>50.0</ele><time>2026-03-22T09:58:50.999Z</time></trkpt><trkpt lat="44.49050035509541" lon="11.28396395338655"><ele>49.66666666666667</ele><time>2026-03-22T09:58:51.999Z</time></trkpt><trkpt lat="44.49040260088299" lon="11.283730513188926"><ele>49.33333333333333</ele><time>2026-03-22T09:58:52.999Z</time></trkpt><trkpt lat="44.49028456764595" lon="11.283461244720266"><ele>49.0</ele><time>2026-03-22T09:58:53.999Z</time></trkpt><trkpt lat="44.49016826910052" lon="11.283166167100992"><ele>48.5</ele><time>2026-03-22T09:58:54.999Z</time></trkpt><trkpt lat="44.49003359681682" lon="11.282882730949227"><ele>48.0</ele><time>2026-03-22T09:58:55.999Z</time></trkpt><trkpt lat="44.48988432985406" lon="11.28259858771648"><ele>48.0</ele><time>2026-03-22T09:58:56.999Z</time></trkpt><trkpt lat="44.48973861930663" lon="11.282305529062622"><ele>48.0</ele><time>2026-03-22T09:58:57.999Z</time></trkpt><trkpt lat="44.48960010478697" lon="11.282030844362884"><ele>47.0</ele><time>2026-03-22T09:58:58.999Z</time></trkpt><trkpt lat="44.48946107920577" lon="11.28175661000056"><ele>46.0</ele><time>2026-03-22T09:58:59.999Z</time></trkpt><trkpt lat="44.48932206483227" lon="11.281483027681276"><ele>46.5</ele><time>2026-03-22T09:59:00.999Z</time></trkpt><trkpt lat="44.48918914723334" lon="11.281219108405498"><ele>47.0</ele><time>2026-03-22T09:59:01.999Z</time></trkpt><trkpt lat="44.48905798224494" lon="11.280963750319483"><ele>47.0</ele><time>2026-03-22T09:59:02.999Z</time></trkpt><trkpt lat="44.488917037598924" lon="11.280689119336307"><ele>47.0</ele><time>2026-03-22T09:59:03.999Z</time></trkpt><trkpt lat="44.48878188129808" lon="11.280410186704867"><ele>49.0</ele><time>2026-03-22T09:59:04.999Z</time></trkpt><trkpt lat="44.48864773946951" lon="11.280138690205963"><ele>51.0</ele><time>2026-03-22T09:59:05.999Z</time></trkpt><trkpt lat="44.48852077803735" lon="11.27987932098567"><ele>52.0</ele><time>2026-03-22T09:59:06.999Z</time></trkpt><trkpt lat="44.48840885473747" lon="11.27959452733679"><ele>53.0</ele><time>2026-03-22T09:59:07.999Z</time></trkpt><trkpt lat="44.48830519161081" lon="11.279290900929118"><ele>53.0</ele><time>2026-03-22T09:59:08.999Z</time></trkpt><trkpt lat="44.48821601263338" lon="11.278982078026736"><ele>53.0</ele><time>2026-03-22T09:59:09.999Z</time></trkpt><trkpt lat="44.488139888038546" lon="11.278660676405472"><ele>53.5</ele><time>2026-03-22T09:59:10.999Z</time></trkpt><trkpt lat="44.48807579649362" lon="11.278329274671274"><ele>54.0</ele><time>2026-03-22T09:59:11.999Z</time></trkpt><trkpt lat="44.48802608466094" lon="11.2779964134957"><ele>54.0</ele><time>2026-03-22T09:59:12.999Z</time></trkpt><trkpt lat="44.48799232793216" lon="11.277662765350263"><ele>54.0</ele><time>2026-03-22T09:59:13.999Z</time></trkpt><trkpt lat="44.48797538144066" lon="11.27732729401905"><ele>54.5</ele><time>2026-03-22T09:59:14.999Z</time></trkpt><trkpt lat="44.487984852425896" lon="11.276988054827386"><ele>55.0</ele><time>2026-03-22T09:59:15.999Z</time></trkpt><trkpt lat="44.48797729565858" lon="11.276652656306943"><ele>55.0</ele><time>2026-03-22T09:59:16.999Z</time></trkpt><trkpt lat="44.4880046218701" lon="11.27632618223718"><ele>55.0</ele><time>2026-03-22T09:59:17.999Z</time></trkpt><trkpt lat="44.48804271960935" lon="11.276006274400766"><ele>55.0</ele><time>2026-03-22T09:59:18.999Z</time></trkpt><trkpt lat="44.48809261103512" lon="11.275688413909354"><ele>55.0</ele><time>2026-03-22T09:59:19.999Z</time></trkpt><trkpt lat="44.48815202552259" lon="11.275368141590175"><ele>54.0</ele><time>2026-03-22T09:59:20.999Z</time></trkpt><trkpt lat="44.488231835427634" lon="11.275043406735382"><ele>53.0</ele><time>2026-03-22T09:59:21.999Z</time></trkpt><trkpt lat="44.48832291343146" lon="11.27470331432038"><ele>52.0</ele><time>2026-03-22T09:59:22.999Z</time></trkpt><trkpt lat="44.48842861270956" lon="11.274378310785579"><ele>51.0</ele><time>2026-03-22T09:59:23.999Z</time></trkpt><trkpt lat="44.488571242107085" lon="11.274076403163962"><ele>51.0</ele><time>2026-03-22T09:59:24.999Z</time></trkpt><trkpt lat="44.488684938425635" lon="11.273751067986954"><ele>51.0</ele><time>2026-03-22T09:59:25.999Z</time></trkpt><trkpt lat="44.488794341288376" lon="11.273449155836978"><ele>51.0</ele><time>2026-03-22T09:59:26.999Z</time></trkpt><trkpt lat="44.48890418842012" lon="11.273151370891615"><ele>51.0</ele><time>2026-03-22T09:59:27.999Z</time></trkpt><trkpt lat="44.48900366694182" lon="11.27287151987573"><ele>51.0</ele><time>2026-03-22T09:59:28.999Z</time></trkpt><trkpt lat="44.48910590014024" lon="11.272592558520945"><ele>51.0</ele><time>2026-03-22T09:59:29.999Z</time></trkpt><trkpt lat="44.48921119074997" lon="11.272296181967382"><ele>51.5</ele><time>2026-03-22T09:59:30.999Z</time></trkpt><trkpt lat="44.48931138348982" lon="11.27201763889058"><ele>52.0</ele><time>2026-03-22T09:59:31.999Z</time></trkpt><trkpt lat="44.48941232956801" lon="11.271729403549282"><ele>52.0</ele><time>2026-03-22T09:59:32.999Z</time></trkpt><trkpt lat="44.48953664595302" lon="11.271449616206311"><ele>52.0</ele><time>2026-03-22T09:59:33.999Z</time></trkpt><trkpt lat="44.48968187929444" lon="11.271200992188067"><ele>52.0</ele><time>2026-03-22T09:59:34.999Z</time></trkpt><trkpt lat="44.489843868884506" lon="11.270935984125801"><ele>52.0</ele><time>2026-03-22T09:59:35.999Z</time></trkpt><trkpt lat="44.48999483091112" lon="11.270705220212932"><ele>53.0</ele><time>2026-03-22T09:59:36.999Z</time></trkpt><trkpt lat="44.49013902617203" lon="11.270472017649205"><ele>54.0</ele><time>2026-03-22T09:59:37.999Z</time></trkpt><trkpt lat="44.49027276742964" lon="11.270207663734325"><ele>54.0</ele><time>2026-03-22T09:59:38.999Z</time></trkpt><trkpt lat="44.49038787876178" lon="11.269914099226225"><ele>54.0</ele><time>2026-03-22T09:59:39.999Z</time></trkpt><trkpt lat="44.490499668426295" lon="11.269591256008194"><ele>54.5</ele><time>2026-03-22T09:59:40.999Z</time></trkpt><trkpt lat="44.490601785407556" lon="11.269258349643172"><ele>55.0</ele><time>2026-03-22T09:59:41.999Z</time></trkpt><trkpt lat="44.49070329844602" lon="11.268889564908664"><ele>55.0</ele><time>2026-03-22T09:59:42.999Z</time></trkpt><trkpt lat="44.490806034954076" lon="11.268535329738365"><ele>55.0</ele><time>2026-03-22T09:59:43.999Z</time></trkpt><trkpt lat="44.49089896735677" lon="11.268149281399136"><ele>56.0</ele><time>2026-03-22T09:59:44.999Z</time></trkpt><trkpt lat="44.490982581110664" lon="11.267748110257477"><ele>57.0</ele><time>2026-03-22T09:59:45.999Z</time></trkpt><trkpt lat="44.49105055540289" lon="11.267378092037132"><ele>56.5</ele><time>2026-03-22T09:59:46.999Z</time></trkpt><trkpt lat="44.49112234483169" lon="11.26704880468191"><ele>56.0</ele><time>2026-03-22T09:59:47.999Z</time></trkpt><trkpt lat="44.49119220466718" lon="11.266740798585694"><ele>56.0</ele><time>2026-03-22T09:59:48.999Z</time></trkpt><trkpt lat="44.491250789082635" lon="11.266447252711277"><ele>56.0</ele><time>2026-03-22T09:59:49.999Z</time></trkpt><trkpt lat="44.491307108572954" lon="11.266167915992728"><ele>56.0</ele><time>2026-03-22T09:59:50.999Z</time></trkpt><trkpt lat="44.4913583309603" lon="11.26589787183496"><ele>57.0</ele><time>2026-03-22T09:59:51.999Z</time></trkpt><trkpt lat="44.49141183340713" lon="11.265604384508386"><ele>58.0</ele><time>2026-03-22T09:59:52.999Z</time></trkpt><trkpt lat="44.49147570304727" lon="11.265279940309536"><ele>58.0</ele><time>2026-03-22T09:59:53.999Z</time></trkpt><trkpt lat="44.49154663322155" lon="11.264936962235925"><ele>58.0</ele><time>2026-03-22T09:59:54.999Z</time></trkpt><trkpt lat="44.491614901982196" lon="11.264603733352482"><ele>57.5</ele><time>2026-03-22T09:59:55.999Z</time></trkpt><trkpt lat="44.49168619323097" lon="11.2642593072807"><ele>57.0</ele><time>2026-03-22T09:59:56.999Z</time></trkpt><trkpt lat="44.49175726112686" lon="11.263894099077552"><ele>57.0</ele><time>2026-03-22T09:59:57.999Z</time></trkpt><trkpt lat="44.49182922637776" lon="11.263529108006537"><ele>57.0</ele><time>2026-03-22T09:59:58.999Z</time></trkpt><trkpt lat="44.49190501777993" lon="11.263150082437718"><ele>57.5</ele><time>2026-03-22T09:59:59.999Z</time></trkpt><trkpt lat="44.49198316550136" lon="11.262767079590565"><ele>58.0</ele><time>2026-03-22T10:00:00.999Z</time></trkpt><trkpt lat="44.49206013331426" lon="11.262388494967203"><ele>57.0</ele><time>2026-03-22T10:00:01.999Z</time></trkpt><trkpt lat="44.492135652253076" lon="11.262011936162862"><ele>56.0</ele><time>2026-03-22T10:00:02.999Z</time></trkpt><trkpt lat="44.49220923472211" lon="11.261641926598896"><ele>55.0</ele><time>2026-03-22T10:00:03.999Z</time></trkpt><trkpt lat="44.49228432576887" lon="11.261278459192976"><ele>54.0</ele><time>2026-03-22T10:00:04.999Z</time></trkpt><trkpt lat="44.49235798730646" lon="11.260918918040627"><ele>54.0</ele><time>2026-03-22T10:00:05.999Z</time></trkpt><trkpt lat="44.492432326223444" lon="11.26056278139707"><ele>54.0</ele><time>2026-03-22T10:00:06.999Z</time></trkpt><trkpt lat="44.49249826332081" lon="11.260229766157236"><ele>54.0</ele><time>2026-03-22T10:00:07.999Z</time></trkpt><trkpt lat="44.49256166631799" lon="11.25990514458445"><ele>54.0</ele><time>2026-03-22T10:00:08.999Z</time></trkpt><trkpt lat="44.4926232683056" lon="11.259581869924045"><ele>55.0</ele><time>2026-03-22T10:00:09.999Z</time></trkpt><trkpt lat="44.49268393126999" lon="11.259262669973896"><ele>56.0</ele><time>2026-03-22T10:00:10.999Z</time></trkpt><trkpt lat="44.49274673163494" lon="11.258949889056762"><ele>56.0</ele><time>2026-03-22T10:00:11.999Z</time></trkpt><trkpt lat="44.49281351498486" lon="11.258635498951836"><ele>56.0</ele><time>2026-03-22T10:00:12.999Z</time></trkpt><trkpt lat="44.49287742811436" lon="11.258322102241324"><ele>56.0</ele><time>2026-03-22T10:00:13.999Z</time></trkpt><trkpt lat="44.49294133884587" lon="11.257994498926589"><ele>56.0</ele><time>2026-03-22T10:00:14.999Z</time></trkpt><trkpt lat="44.49300233067517" lon="11.257677508256949"><ele>56.0</ele><time>2026-03-22T10:00:15.999Z</time></trkpt><trkpt lat="44.49305755368216" lon="11.25736396269393"><ele>56.0</ele><time>2026-03-22T10:00:16.999Z</time></trkpt><trkpt lat="44.49310376674702" lon="11.257036431868624"><ele>56.0</ele><time>2026-03-22T10:00:17.999Z</time></trkpt><trkpt lat="44.4931387515766" lon="11.256691910895414"><ele>56.0</ele><time>2026-03-22T10:00:18.999Z</time></trkpt><trkpt lat="44.49316697201732" lon="11.256335320813292"><ele>57.0</ele><time>2026-03-22T10:00:19.999Z</time></trkpt><trkpt lat="44.4931937676257" lon="11.25597340100859"><ele>58.0</ele><time>2026-03-22T10:00:20.999Z</time></trkpt><trkpt lat="44.49320723053439" lon="11.255602564490811"><ele>58.5</ele><time>2026-03-22T10:00:21.999Z</time></trkpt><trkpt lat="44.493206439326286" lon="11.255222629110886"><ele>59.0</ele><time>2026-03-22T10:00:22.999Z</time></trkpt><trkpt lat="44.49319655904936" lon="11.254828226932137"><ele>59.5</ele><time>2026-03-22T10:00:23.999Z</time></trkpt><trkpt lat="44.493175082643305" lon="11.254422102632882"><ele>60.0</ele><time>2026-03-22T10:00:24.999Z</time></trkpt><trkpt lat="44.49313842387744" lon="11.254010367367568"><ele>61.0</ele><time>2026-03-22T10:00:25.999Z</time></trkpt><trkpt lat="44.49308641171785" lon="11.253593174106188"><ele>62.0</ele><time>2026-03-22T10:00:26.999Z</time></trkpt><trkpt lat="44.49302292058034" lon="11.253175512047939"><ele>62.0</ele><time>2026-03-22T10:00:27.999Z</time></trkpt><trkpt lat="44.4929489609527" lon="11.252779930570407"><ele>62.0</ele><time>2026-03-22T10:00:28.999Z</time></trkpt><trkpt lat="44.492867984772026" lon="11.252418465788528"><ele>61.5</ele><time>2026-03-22T10:00:29.999Z</time></trkpt><trkpt lat="44.492779335932006" lon="11.252071394286366"><ele>61.0</ele><time>2026-03-22T10:00:30.999Z</time></trkpt><trkpt lat="44.49267410998626" lon="11.251713917260012"><ele>61.5</ele><time>2026-03-22T10:00:31.999Z</time></trkpt><trkpt lat="44.49257930553476" lon="11.251393075661511"><ele>62.0</ele><time>2026-03-22T10:00:32.999Z</time></trkpt><trkpt lat="44.49249158192844" lon="11.25109252130121"><ele>62.0</ele><time>2026-03-22T10:00:33.999Z</time></trkpt><trkpt lat="44.49240782419349" lon="11.250817686709828"><ele>62.0</ele><time>2026-03-22T10:00:34.998Z</time></trkpt><trkpt lat="44.49233821737999" lon="11.250581894532866"><ele>62.0</ele><time>2026-03-22T10:00:35.998Z</time></trkpt><trkpt lat="44.49227447329573" lon="11.250361653615606"><ele>62.333333333333336</ele><time>2026-03-22T10:00:36.998Z</time></trkpt><trkpt lat="44.49220483120155" lon="11.250145424803694"><ele>62.66666666666667</ele><time>2026-03-22T10:00:37.998Z</time></trkpt><trkpt lat="44.49213051588934" lon="11.24991916444744"><ele>63.0</ele><time>2026-03-22T10:00:38.998Z</time></trkpt><trkpt lat="44.49205568124845" lon="11.249682538229266"><ele>63.33333333333333</ele><time>2026-03-22T10:00:39.998Z</time></trkpt><trkpt lat="44.49198105180474" lon="11.24944155366257"><ele>63.666666666666664</ele><time>2026-03-22T10:00:40.998Z</time></trkpt><trkpt lat="44.49190560841102" lon="11.249196344584027"><ele>64.0</ele><time>2026-03-22T10:00:41.998Z</time></trkpt><trkpt lat="44.49183103411982" lon="11.248947452170688"><ele>64.0</ele><time>2026-03-22T10:00:42.998Z</time></trkpt><trkpt lat="44.49175618144491" lon="11.248694576272404"><ele>64.0</ele><time>2026-03-22T10:00:43.998Z</time></trkpt><trkpt lat="44.4916826504422" lon="11.248437546535822"><ele>64.0</ele><time>2026-03-22T10:00:44.998Z</time></trkpt><trkpt lat="44.49160774027363" lon="11.248179793539633"><ele>64.0</ele><time>2026-03-22T10:00:45.998Z</time></trkpt><trkpt lat="44.491535258616146" lon="11.247932430575469"><ele>64.0</ele><time>2026-03-22T10:00:46.999Z</time></trkpt><trkpt lat="44.491466086723136" lon="11.247687095464949"><ele>64.0</ele><time>2026-03-22T10:00:47.999Z</time></trkpt><trkpt lat="44.49139898414894" lon="11.247431723645645"><ele>64.0</ele><time>2026-03-22T10:00:48.999Z</time></trkpt><trkpt lat="44.49132842632862" lon="11.247172622982893"><ele>64.0</ele><time>2026-03-22T10:00:49.999Z</time></trkpt><trkpt lat="44.4912564957521" lon="11.246921581095645"><ele>64.0</ele><time>2026-03-22T10:00:50.999Z</time></trkpt><trkpt lat="44.49118018062488" lon="11.246664836428172"><ele>65.0</ele><time>2026-03-22T10:00:51.999Z</time></trkpt><trkpt lat="44.49110462242332" lon="11.246405030308459"><ele>66.0</ele><time>2026-03-22T10:00:52.999Z</time></trkpt><trkpt lat="44.49103302659458" lon="11.246160063849004"><ele>67.0</ele><time>2026-03-22T10:00:53.999Z</time></trkpt><trkpt lat="44.490958954829786" lon="11.245915736612837"><ele>67.0</ele><time>2026-03-22T10:00:54.999Z</time></trkpt><trkpt lat="44.490883961733346" lon="11.245667659248781"><ele>67.0</ele><time>2026-03-22T10:00:55.999Z</time></trkpt><trkpt lat="44.490811918614746" lon="11.245421670408158"><ele>67.0</ele><time>2026-03-22T10:00:56.999Z</time></trkpt><trkpt lat="44.490741622083746" lon="11.245180585600078"><ele>67.33333333333333</ele><time>2026-03-22T10:00:57.999Z</time></trkpt><trkpt lat="44.490668421357725" lon="11.244939255217933"><ele>67.66666666666667</ele><time>2026-03-22T10:00:58.999Z</time></trkpt><trkpt lat="44.49059392157369" lon="11.244695749937371"><ele>68.0</ele><time>2026-03-22T10:00:59.999Z</time></trkpt><trkpt lat="44.49052679250574" lon="11.24446002107081"><ele>68.0</ele><time>2026-03-22T10:01:00.999Z</time></trkpt><trkpt lat="44.490463631029925" lon="11.244240357393027"><ele>68.0</ele><time>2026-03-22T10:01:01.999Z</time></trkpt><trkpt lat="44.490404183351906" lon="11.244039671790823"><ele>68.0</ele><time>2026-03-22T10:01:02.999Z</time></trkpt><trkpt lat="44.49034541189094" lon="11.243845461126805"><ele>68.0</ele><time>2026-03-22T10:01:03.999Z</time></trkpt><trkpt lat="44.49029310289694" lon="11.2436594964936"><ele>68.0</ele><time>2026-03-22T10:01:04.999Z</time></trkpt><trkpt lat="44.49024972935766" lon="11.243481579729165"><ele>68.0</ele><time>2026-03-22T10:01:05.999Z</time></trkpt><trkpt lat="44.490207804209696" lon="11.243308533161255"><ele>68.0</ele><time>2026-03-22T10:01:06.999Z</time></trkpt><trkpt lat="44.49016769255895" lon="11.24314313780898"><ele>68.75</ele><time>2026-03-22T10:01:07.999Z</time></trkpt><trkpt lat="44.49014071079695" lon="11.242975089978327"><ele>69.5</ele><time>2026-03-22T10:01:08.999Z</time></trkpt><trkpt lat="44.49014665038006" lon="11.242790878819036"><ele>70.25</ele><time>2026-03-22T10:01:09.999Z</time></trkpt><trkpt lat="44.49019931392881" lon="11.242617403594211"><ele>71.0</ele><time>2026-03-22T10:01:10.999Z</time></trkpt><trkpt lat="44.49028433309995" lon="11.242483271209073"><ele>71.0</ele><time>2026-03-22T10:01:11.999Z</time></trkpt><trkpt lat="44.49040022275484" lon="11.24237919293838"><ele>71.0</ele><time>2026-03-22T10:01:12.999Z</time></trkpt><trkpt lat="44.49053225980224" lon="11.242326144581961"><ele>71.0</ele><time>2026-03-22T10:01:13.999Z</time></trkpt><trkpt lat="44.490666153208316" lon="11.242338949095528"><ele>71.0</ele><time>2026-03-22T10:01:14.999Z</time></trkpt><trkpt lat="44.49079159128835" lon="11.24241960446222"><ele>70.0</ele><time>2026-03-22T10:01:15.999Z</time></trkpt><trkpt lat="44.49089961388975" lon="11.242567883896626"><ele>69.0</ele><time>2026-03-22T10:01:16.999Z</time></trkpt><trkpt lat="44.49097408149298" lon="11.242757507148198"><ele>68.0</ele><time>2026-03-22T10:01:17.999Z</time></trkpt><trkpt lat="44.49103317765232" lon="11.242982875654114"><ele>67.75</ele><time>2026-03-22T10:01:18.999Z</time></trkpt><trkpt lat="44.49105724501686" lon="11.243179881844837"><ele>67.5</ele><time>2026-03-22T10:01:19.999Z</time></trkpt><trkpt lat="44.491094465903124" lon="11.243333228940184"><ele>67.25</ele><time>2026-03-22T10:01:20.999Z</time></trkpt><trkpt lat="44.49109376481891" lon="11.243487750637307"><ele>67.0</ele><time>2026-03-22T10:01:21.999Z</time></trkpt><trkpt lat="44.491064380564254" lon="11.243629514984967"><ele>67.0</ele><time>2026-03-22T10:01:22.999Z</time></trkpt><trkpt lat="44.49100799317842" lon="11.243755752877403"><ele>67.0</ele><time>2026-03-22T10:01:23.999Z</time></trkpt><trkpt lat="44.49093244458501" lon="11.243845839757348"><ele>67.0</ele><time>2026-03-22T10:01:24.999Z</time></trkpt><trkpt lat="44.49083812755629" lon="11.243920320376889"><ele>67.0</ele><time>2026-03-22T10:01:25.999Z</time></trkpt><trkpt lat="44.490743324034746" lon="11.24395349178403"><ele>67.0</ele><time>2026-03-22T10:01:26.999Z</time></trkpt><trkpt lat="44.49064348212682" lon="11.243948515479762"><ele>67.0</ele><time>2026-03-22T10:01:27.999Z</time></trkpt><trkpt lat="44.49052716880075" lon="11.243934668646355"><ele>67.0</ele><time>2026-03-22T10:01:28.999Z</time></trkpt><trkpt lat="44.490396092370936" lon="11.243816748019677"><ele>67.0</ele><time>2026-03-22T10:01:29.999Z</time></trkpt><trkpt lat="44.49027800412062" lon="11.243730438923405"><ele>67.0</ele><time>2026-03-22T10:01:30.999Z</time></trkpt><trkpt lat="44.49017470234466" lon="11.243647805188449"><ele>67.25</ele><time>2026-03-22T10:01:31.999Z</time></trkpt><trkpt lat="44.490063867625985" lon="11.243558212822697"><ele>67.5</ele><time>2026-03-22T10:01:32.999Z</time></trkpt><trkpt lat="44.48996514092853" lon="11.24348652085784"><ele>67.75</ele><time>2026-03-22T10:01:33.999Z</time></trkpt><trkpt lat="44.489885384343275" lon="11.243371177792328"><ele>68.0</ele><time>2026-03-22T10:01:34.999Z</time></trkpt><trkpt lat="44.48980492647615" lon="11.243225702458343"><ele>68.6</ele><time>2026-03-22T10:01:35.999Z</time></trkpt><trkpt lat="44.48974401621416" lon="11.243076879467875"><ele>69.19999999999999</ele><time>2026-03-22T10:01:36.999Z</time></trkpt><trkpt lat="44.489694671824" lon="11.242944824369319"><ele>69.8</ele><time>2026-03-22T10:01:37.999Z</time></trkpt><trkpt lat="44.48962441943939" lon="11.242828870056229"><ele>70.39999999999999</ele><time>2026-03-22T10:01:38.999Z</time></trkpt><trkpt lat="44.48954065354565" lon="11.242733167858738"><ele>71.0</ele><time>2026-03-22T10:01:39.999Z</time></trkpt><trkpt lat="44.48945380286586" lon="11.242658695282369"><ele>71.0</ele><time>2026-03-22T10:01:40.999Z</time></trkpt><trkpt lat="44.48937104002251" lon="11.242612450437564"><ele>71.0</ele><time>2026-03-22T10:01:41.999Z</time></trkpt><trkpt lat="44.48928696148423" lon="11.242588016514791"><ele>71.0</ele><time>2026-03-22T10:01:42.999Z</time></trkpt><trkpt lat="44.4892063777763" lon="11.242576561819591"><ele>71.0</ele><time>2026-03-22T10:01:43.999Z</time></trkpt><trkpt lat="44.48912886242219" lon="11.242580936525739"><ele>71.0</ele><time>2026-03-22T10:01:44.999Z</time></trkpt><trkpt lat="44.48904880788922" lon="11.24260530124397"><ele>71.0</ele><time>2026-03-22T10:01:45.999Z</time></trkpt><trkpt lat="44.488984794497405" lon="11.242640410983348"><ele>71.0</ele><time>2026-03-22T10:01:46.999Z</time></trkpt><trkpt lat="44.48889429691045" lon="11.242685417242264"><ele>71.0</ele><time>2026-03-22T10:01:48.999Z</time></trkpt><trkpt lat="44.48882868126357" lon="11.242707674111587"><ele>71.0</ele><time>2026-03-22T10:01:51.999Z</time></trkpt><trkpt lat="44.4887601818504" lon="11.24272990568525"><ele>71.0</ele><time>2026-03-22T10:02:00Z</time></trkpt><trkpt lat="44.488679631404246" lon="11.24269686297381"><ele>71.0</ele><time>2026-03-22T10:02:01Z</time></trkpt><trkpt lat="44.48856932876071" lon="11.242613235246017"><ele>71.0</ele><time>2026-03-22T10:02:03Z</time></trkpt><trkpt lat="44.48849196853383" lon="11.242512447393763"><ele>71.39999999999999</ele><time>2026-03-22T10:02:04Z</time></trkpt><trkpt lat="44.48841536884777" lon="11.24241020446865"><ele>71.8</ele><time>2026-03-22T10:02:05Z</time></trkpt><trkpt lat="44.48835526742708" lon="11.242259871883514"><ele>72.19999999999999</ele><time>2026-03-22T10:02:06Z</time></trkpt><trkpt lat="44.48827996829841" lon="11.24216085984406"><ele>72.6</ele><time>2026-03-22T10:02:07Z</time></trkpt><trkpt lat="44.48823928516759" lon="11.242019691314583"><ele>73.0</ele><time>2026-03-22T10:02:08Z</time></trkpt><trkpt lat="44.48816079722827" lon="11.241949705241556"><ele>73.0</ele><time>2026-03-22T10:02:09Z</time></trkpt><trkpt lat="44.488087559885884" lon="11.241898511265926"><ele>73.0</ele><time>2026-03-22T10:02:10Z</time></trkpt><trkpt lat="44.488022552190465" lon="11.24185320329473"><ele>73.0</ele><time>2026-03-22T10:02:11Z</time></trkpt><trkpt lat="44.4879538696178" lon="11.241779770280086"><ele>73.0</ele><time>2026-03-22T10:02:12Z</time></trkpt><trkpt lat="44.48786476309757" lon="11.24170999886971"><ele>73.0</ele><time>2026-03-22T10:02:13Z</time></trkpt><trkpt lat="44.48773870205237" lon="11.241633698834875"><ele>73.33333333333333</ele><time>2026-03-22T10:02:14Z</time></trkpt><trkpt lat="44.48760104775428" lon="11.241498623014397"><ele>73.66666666666667</ele><time>2026-03-22T10:02:15Z</time></trkpt><trkpt lat="44.48743825376959" lon="11.241338501559065"><ele>74.0</ele><time>2026-03-22T10:02:16Z</time></trkpt><trkpt lat="44.48725053802929" lon="11.241167457642765"><ele>74.66666666666667</ele><time>2026-03-22T10:02:17Z</time></trkpt><trkpt lat="44.48704314836471" lon="11.24099128003355"><ele>75.33333333333333</ele><time>2026-03-22T10:02:18Z</time></trkpt><trkpt lat="44.486875711249574" lon="11.240854644840164"><ele>76.0</ele><time>2026-03-22T10:02:19Z</time></trkpt><trkpt lat="44.486711801807104" lon="11.240716951331915"><ele>76.33333333333333</ele><time>2026-03-22T10:02:20Z</time></trkpt><trkpt lat="44.48654091563806" lon="11.240599243420755"><ele>76.66666666666667</ele><time>2026-03-22T10:02:21Z</time></trkpt><trkpt lat="44.48638874833076" lon="11.240456037302298"><ele>77.0</ele><time>2026-03-22T10:02:22Z</time></trkpt><trkpt lat="44.48625739957685" lon="11.240338259226666"><ele>77.25</ele><time>2026-03-22T10:02:23Z</time></trkpt><trkpt lat="44.48613482244207" lon="11.240223800435338"><ele>77.5</ele><time>2026-03-22T10:02:24Z</time></trkpt><trkpt lat="44.48600270427326" lon="11.240112537828352"><ele>77.75</ele><time>2026-03-22T10:02:25Z</time></trkpt><trkpt lat="44.48587956231909" lon="11.240010145165169"><ele>78.0</ele><time>2026-03-22T10:02:26Z</time></trkpt><trkpt lat="44.485773501789254" lon="11.239918058574373"><ele>78.0</ele><time>2026-03-22T10:02:27Z</time></trkpt><trkpt lat="44.4856803086375" lon="11.239833937559212"><ele>78.0</ele><time>2026-03-22T10:02:28Z</time></trkpt><trkpt lat="44.485585313907194" lon="11.2397508167385"><ele>78.0</ele><time>2026-03-22T10:02:29Z</time></trkpt><trkpt lat="44.48550419216863" lon="11.239674560399253"><ele>78.0</ele><time>2026-03-22T10:02:30Z</time></trkpt><trkpt lat="44.48542694596264" lon="11.2396090959292"><ele>78.0</ele><time>2026-03-22T10:02:31Z</time></trkpt><trkpt lat="44.48535505568876" lon="11.239539022006397"><ele>78.4</ele><time>2026-03-22T10:02:32Z</time></trkpt><trkpt lat="44.485295643692304" lon="11.239484527445656"><ele>78.8</ele><time>2026-03-22T10:02:33Z</time></trkpt><trkpt lat="44.48521849979907" lon="11.239405596614535"><ele>79.2</ele><time>2026-03-22T10:02:35Z</time></trkpt><trkpt lat="44.48515932679837" lon="11.239323989952439"><ele>79.6</ele><time>2026-03-22T10:02:37Z</time></trkpt><trkpt lat="44.48508580966629" lon="11.239172262971532"><ele>80.0</ele><time>2026-03-22T10:02:39Z</time></trkpt><trkpt lat="44.485056165632685" lon="11.239074260195775"><ele>79.8</ele><time>2026-03-22T10:02:40Z</time></trkpt><trkpt lat="44.485117851813726" lon="11.238926973109464"><ele>79.6</ele><time>2026-03-22T10:02:40.998Z</time></trkpt><trkpt lat="44.48514051405264" lon="11.238811860314991"><ele>79.4</ele><time>2026-03-22T10:02:41.998Z</time></trkpt><trkpt lat="44.48516778156559" lon="11.238689456902176"><ele>79.2</ele><time>2026-03-22T10:02:42.998Z</time></trkpt><trkpt lat="44.4851971731363" lon="11.238561842124046"><ele>79.0</ele><time>2026-03-22T10:02:43.998Z</time></trkpt><trkpt lat="44.485225114184665" lon="11.238446774914648"><ele>79.00000000000001</ele><time>2026-03-22T10:02:44.998Z</time></trkpt><trkpt lat="44.485249405498855" lon="11.23834031446438"><ele>79.0</ele><time>2026-03-22T10:02:45.999Z</time></trkpt><trkpt lat="44.48527437844238" lon="11.238245294029818"><ele>79.0</ele><time>2026-03-22T10:02:46.999Z</time></trkpt><trkpt lat="44.48529676926818" lon="11.238155764270534"><ele>79.0</ele><time>2026-03-22T10:02:47.999Z</time></trkpt><trkpt lat="44.48531759636124" lon="11.238067528479084"><ele>79.0</ele><time>2026-03-22T10:02:48.999Z</time></trkpt><trkpt lat="44.485338404907914" lon="11.237975375834548"><ele>79.00000000000001</ele><time>2026-03-22T10:02:49.999Z</time></trkpt><trkpt lat="44.485361578031764" lon="11.237883704859344"><ele>79.0</ele><time>2026-03-22T10:02:50.999Z</time></trkpt><trkpt lat="44.485384354091714" lon="11.237789255405275"><ele>78.8</ele><time>2026-03-22T10:02:51.999Z</time></trkpt><trkpt lat="44.48540577632277" lon="11.23769789527573"><ele>78.60000000000001</ele><time>2026-03-22T10:02:52.999Z</time></trkpt><trkpt lat="44.485438634387265" lon="11.237542705938264"><ele>78.4</ele><time>2026-03-22T10:02:54.999Z</time></trkpt><trkpt lat="44.48546088818667" lon="11.237443114787276"><ele>78.2</ele><time>2026-03-22T10:02:56.999Z</time></trkpt><trkpt lat="44.4853612613669" lon="11.237382200675686"><ele>78.0</ele><time>2026-03-22T10:02:57.999Z</time></trkpt><trkpt lat="44.48527722471368" lon="11.237361814025213"><ele>78.0</ele><time>2026-03-22T10:02:58.999Z</time></trkpt><trkpt lat="44.48518053226487" lon="11.237340270677947"><ele>78.0</ele><time>2026-03-22T10:02:59.999Z</time></trkpt><trkpt lat="44.485062457226235" lon="11.237307928730406"><ele>78.0</ele><time>2026-03-22T10:03:00.999Z</time></trkpt><trkpt lat="44.48493696685176" lon="11.237275824703392"><ele>78.0</ele><time>2026-03-22T10:03:01.999Z</time></trkpt><trkpt lat="44.48481038835874" lon="11.237239445695332"><ele>78.2</ele><time>2026-03-22T10:03:02.999Z</time></trkpt><trkpt lat="44.48468330899711" lon="11.23720357072088"><ele>78.4</ele><time>2026-03-22T10:03:03.999Z</time></trkpt><trkpt lat="44.48456336078833" lon="11.237169484782463"><ele>78.60000000000001</ele><time>2026-03-22T10:03:04.999Z</time></trkpt><trkpt lat="44.484456855487366" lon="11.23713934899762"><ele>78.8</ele><time>2026-03-22T10:03:05.999Z</time></trkpt><trkpt lat="44.48437499901772" lon="11.237115985179871"><ele>79.0</ele><time>2026-03-22T10:03:06.999Z</time></trkpt><trkpt lat="44.48430953367086" lon="11.237097950019946"><ele>79.33333333333333</ele><time>2026-03-22T10:03:07.999Z</time></trkpt><trkpt lat="44.48419987432821" lon="11.237065821077046"><ele>79.66666666666666</ele><time>2026-03-22T10:03:09.999Z</time></trkpt><trkpt lat="44.48413402679428" lon="11.237047573843098"><ele>80.0</ele><time>2026-03-22T10:03:10.999Z</time></trkpt><trkpt lat="44.48406058579958" lon="11.237027947870894"><ele>80.33333333333333</ele><time>2026-03-22T10:03:11.999Z</time></trkpt><trkpt lat="44.483979313718926" lon="11.237014483310693"><ele>80.66666666666667</ele><time>2026-03-22T10:03:12.999Z</time></trkpt><trkpt lat="44.48389111426318" lon="11.236989758501233"><ele>81.0</ele><time>2026-03-22T10:03:13.999Z</time></trkpt><trkpt lat="44.483803532509114" lon="11.236969286466307"><ele>81.0</ele><time>2026-03-22T10:03:14.999Z</time></trkpt><trkpt lat="44.48370834958125" lon="11.236949217039982"><ele>81.0</ele><time>2026-03-22T10:03:15.999Z</time></trkpt><trkpt lat="44.483611133665114" lon="11.23692744480643"><ele>81.0</ele><time>2026-03-22T10:03:16.999Z</time></trkpt><trkpt lat="44.48351094636234" lon="11.236902647469842"><ele>81.0</ele><time>2026-03-22T10:03:17.999Z</time></trkpt><trkpt lat="44.483416149485315" lon="11.236877321721753"><ele>81.0</ele><time>2026-03-22T10:03:18.999Z</time></trkpt><trkpt lat="44.48332156196964" lon="11.23685080991717"><ele>81.0</ele><time>2026-03-22T10:03:19.999Z</time></trkpt><trkpt lat="44.48322335213749" lon="11.236827271910297"><ele>81.0</ele><time>2026-03-22T10:03:20.999Z</time></trkpt><trkpt lat="44.48312887584225" lon="11.236800356328521"><ele>81.0</ele><time>2026-03-22T10:03:21.999Z</time></trkpt><trkpt lat="44.483036583839876" lon="11.236767836072534"><ele>81.0</ele><time>2026-03-22T10:03:22.999Z</time></trkpt><trkpt lat="44.48295258250445" lon="11.236740524886459"><ele>81.0</ele><time>2026-03-22T10:03:23.999Z</time></trkpt><trkpt lat="44.48288164772737" lon="11.236718542895607"><ele>81.0</ele><time>2026-03-22T10:03:24.999Z</time></trkpt><trkpt lat="44.482790606006986" lon="11.236702360516933"><ele>81.0</ele><time>2026-03-22T10:03:27Z</time></trkpt><trkpt lat="44.482757175355374" lon="11.236432032769336"><ele>81.0</ele><time>2026-03-22T10:03:32Z</time></trkpt><trkpt lat="44.48276592857234" lon="11.236188331299413"><ele>81.0</ele><time>2026-03-22T10:03:33Z</time></trkpt><trkpt lat="44.482763515922414" lon="11.235966906296584"><ele>81.0</ele><time>2026-03-22T10:03:34Z</time></trkpt><trkpt lat="44.4827591476041" lon="11.235729861971317"><ele>81.0</ele><time>2026-03-22T10:03:35Z</time></trkpt><trkpt lat="44.48276870981215" lon="11.23552241521818"><ele>80.75</ele><time>2026-03-22T10:03:36Z</time></trkpt><trkpt lat="44.48276692377667" lon="11.235341142601905"><ele>80.5</ele><time>2026-03-22T10:03:37Z</time></trkpt><trkpt lat="44.48277108065644" lon="11.235180416943368"><ele>80.25</ele><time>2026-03-22T10:03:38Z</time></trkpt><trkpt lat="44.482772862611384" lon="11.23501846310376"><ele>80.0</ele><time>2026-03-22T10:03:39Z</time></trkpt><trkpt lat="44.482775922755984" lon="11.234875453594666"><ele>79.8</ele><time>2026-03-22T10:03:40Z</time></trkpt><trkpt lat="44.48277731023242" lon="11.234751339557162"><ele>79.6</ele><time>2026-03-22T10:03:41Z</time></trkpt><trkpt lat="44.48277140686372" lon="11.234650378026021"><ele>79.4</ele><time>2026-03-22T10:03:42Z</time></trkpt><trkpt lat="44.48276035260367" lon="11.234467393903543"><ele>79.2</ele><time>2026-03-22T10:03:44Z</time></trkpt><trkpt lat="44.48274742862856" lon="11.234333043875477"><ele>79.0</ele><time>2026-03-22T10:03:45Z</time></trkpt><trkpt lat="44.482717890290424" lon="11.234171656838921"><ele>79.0</ele><time>2026-03-22T10:03:46Z</time></trkpt><trkpt lat="44.48267302780868" lon="11.233983176795418"><ele>79.0</ele><time>2026-03-22T10:03:47Z</time></trkpt><trkpt lat="44.48262400234199" lon="11.233781533016417"><ele>79.0</ele><time>2026-03-22T10:03:48Z</time></trkpt><trkpt lat="44.48257988309296" lon="11.233615777597244"><ele>79.0</ele><time>2026-03-22T10:03:49Z</time></trkpt><trkpt lat="44.48253897207392" lon="11.233476195398973"><ele>79.0</ele><time>2026-03-22T10:03:50Z</time></trkpt><trkpt lat="44.48251087568669" lon="11.233335428252369"><ele>79.0</ele><time>2026-03-22T10:03:51Z</time></trkpt><trkpt lat="44.48247228438479" lon="11.233178651188208"><ele>79.0</ele><time>2026-03-22T10:03:52Z</time></trkpt><trkpt lat="44.482433011255424" lon="11.233021774886845"><ele>79.0</ele><time>2026-03-22T10:03:53Z</time></trkpt><trkpt lat="44.48239891201338" lon="11.232875600102231"><ele>79.0</ele><time>2026-03-22T10:03:54Z</time></trkpt><trkpt lat="44.48237572835445" lon="11.232747236111964"><ele>79.0</ele><time>2026-03-22T10:03:55Z</time></trkpt><trkpt lat="44.48235837247498" lon="11.232647836920986"><ele>79.0</ele><time>2026-03-22T10:03:56Z</time></trkpt><trkpt lat="44.482339801032936" lon="11.232536335592112"><ele>79.0</ele><time>2026-03-22T10:03:57Z</time></trkpt><trkpt lat="44.482317869929936" lon="11.232381185036473"><ele>79.0</ele><time>2026-03-22T10:03:58Z</time></trkpt><trkpt lat="44.48230089798091" lon="11.232204704600985"><ele>78.5</ele><time>2026-03-22T10:03:59Z</time></trkpt><trkpt lat="44.48229478468907" lon="11.232018784656267"><ele>78.0</ele><time>2026-03-22T10:04:00Z</time></trkpt><trkpt lat="44.48229251792351" lon="11.231834196383405"><ele>77.5</ele><time>2026-03-22T10:04:01Z</time></trkpt><trkpt lat="44.48229762989839" lon="11.231654765907198"><ele>77.0</ele><time>2026-03-22T10:04:02Z</time></trkpt><trkpt lat="44.48229786574845" lon="11.231492378891236"><ele>77.5</ele><time>2026-03-22T10:04:03Z</time></trkpt><trkpt lat="44.482298064134554" lon="11.231319179865325"><ele>78.0</ele><time>2026-03-22T10:04:04Z</time></trkpt><trkpt lat="44.48229330536227" lon="11.231146561202443"><ele>78.5</ele><time>2026-03-22T10:04:05Z</time></trkpt><trkpt lat="44.48228361580128" lon="11.230971712970021"><ele>79.0</ele><time>2026-03-22T10:04:06Z</time></trkpt><trkpt lat="44.48226930048469" lon="11.230807791848157"><ele>79.0</ele><time>2026-03-22T10:04:07Z</time></trkpt><trkpt lat="44.48224607698141" lon="11.23065045777085"><ele>79.0</ele><time>2026-03-22T10:04:08Z</time></trkpt><trkpt lat="44.48222156038841" lon="11.230498263697537"><ele>79.0</ele><time>2026-03-22T10:04:09Z</time></trkpt><trkpt lat="44.48219942545278" lon="11.230345815496392"><ele>79.0</ele><time>2026-03-22T10:04:10Z</time></trkpt><trkpt lat="44.4821782308778" lon="11.230184527724948"><ele>79.6</ele><time>2026-03-22T10:04:11Z</time></trkpt><trkpt lat="44.482159011641514" lon="11.230027981852745"><ele>80.2</ele><time>2026-03-22T10:04:12Z</time></trkpt><trkpt lat="44.48214971165247" lon="11.229871692788857"><ele>80.8</ele><time>2026-03-22T10:04:13Z</time></trkpt><trkpt lat="44.48214662518834" lon="11.22971641607226"><ele>81.39999999999999</ele><time>2026-03-22T10:04:14Z</time></trkpt><trkpt lat="44.482147487254935" lon="11.229561315007375"><ele>82.0</ele><time>2026-03-22T10:04:15Z</time></trkpt><trkpt lat="44.48214756604114" lon="11.229420103981761"><ele>82.33333333333333</ele><time>2026-03-22T10:04:16Z</time></trkpt><trkpt lat="44.48214596458323" lon="11.229284869734787"><ele>82.66666666666666</ele><time>2026-03-22T10:04:17Z</time></trkpt><trkpt lat="44.482141382153934" lon="11.229171216097532"><ele>83.0</ele><time>2026-03-22T10:04:18Z</time></trkpt><trkpt lat="44.482120200781225" lon="11.229063091338222"><ele>83.33333333333333</ele><time>2026-03-22T10:04:19Z</time></trkpt><trkpt lat="44.482087750419986" lon="11.22894632916046"><ele>83.66666666666667</ele><time>2026-03-22T10:04:20Z</time></trkpt><trkpt lat="44.48203287565532" lon="11.228833542538332"><ele>84.0</ele><time>2026-03-22T10:04:21Z</time></trkpt><trkpt lat="44.48196980485646" lon="11.228729068584144"><ele>84.33333333333333</ele><time>2026-03-22T10:04:22Z</time></trkpt><trkpt lat="44.48189167694652" lon="11.2286518660549"><ele>84.66666666666667</ele><time>2026-03-22T10:04:23Z</time></trkpt><trkpt lat="44.481811011291875" lon="11.228600230673221"><ele>85.0</ele><time>2026-03-22T10:04:24Z</time></trkpt><trkpt lat="44.48173859335617" lon="11.228572744979745"><ele>85.33333333333334</ele><time>2026-03-22T10:04:25Z</time></trkpt><trkpt lat="44.48166105960958" lon="11.228566632677577"><ele>85.66666666666667</ele><time>2026-03-22T10:04:26Z</time></trkpt><trkpt lat="44.481564774762" lon="11.22851633658633"><ele>86.0</ele><time>2026-03-22T10:04:27Z</time></trkpt><trkpt lat="44.481417259960224" lon="11.228442826303363"><ele>86.0</ele><time>2026-03-22T10:04:28Z</time></trkpt><trkpt lat="44.481258468475126" lon="11.228335350589008"><ele>86.0</ele><time>2026-03-22T10:04:29Z</time></trkpt><trkpt lat="44.48107593389244" lon="11.228170636118332"><ele>86.0</ele><time>2026-03-22T10:04:30Z</time></trkpt><trkpt lat="44.480914234385686" lon="11.22801843795109"><ele>86.0</ele><time>2026-03-22T10:04:31Z</time></trkpt><trkpt lat="44.480777319395244" lon="11.227890408193723"><ele>86.0</ele><time>2026-03-22T10:04:32Z</time></trkpt><trkpt lat="44.48065172786196" lon="11.227782064174994"><ele>86.0</ele><time>2026-03-22T10:04:33Z</time></trkpt><trkpt lat="44.48053967079362" lon="11.227674681283906"><ele>86.0</ele><time>2026-03-22T10:04:34Z</time></trkpt><trkpt lat="44.48044250897978" lon="11.227589155090993"><ele>86.5</ele><time>2026-03-22T10:04:35Z</time></trkpt><trkpt lat="44.48034851018467" lon="11.227481943914023"><ele>87.0</ele><time>2026-03-22T10:04:36Z</time></trkpt><trkpt lat="44.48022990846151" lon="11.227405792415677"><ele>87.5</ele><time>2026-03-22T10:04:37Z</time></trkpt><trkpt lat="44.48011026213214" lon="11.22731671972031"><ele>88.0</ele><time>2026-03-22T10:04:38Z</time></trkpt><trkpt lat="44.479962137114526" lon="11.22727374406194"><ele>88.0</ele><time>2026-03-22T10:04:39Z</time></trkpt><trkpt lat="44.47982382979297" lon="11.227249208347633"><ele>88.0</ele><time>2026-03-22T10:04:40Z</time></trkpt><trkpt lat="44.479692453287804" lon="11.22723138277317"><ele>88.0</ele><time>2026-03-22T10:04:41Z</time></trkpt><trkpt lat="44.47957025835591" lon="11.2271733259102"><ele>88.0</ele><time>2026-03-22T10:04:42Z</time></trkpt><trkpt lat="44.47946637922421" lon="11.227090045286962"><ele>89.0</ele><time>2026-03-22T10:04:43Z</time></trkpt><trkpt lat="44.47939582715226" lon="11.226995180445698"><ele>90.0</ele><time>2026-03-22T10:04:44Z</time></trkpt><trkpt lat="44.479347337820585" lon="11.226904473709691"><ele>91.0</ele><time>2026-03-22T10:04:45Z</time></trkpt><trkpt lat="44.47931297384732" lon="11.226809938330389"><ele>92.0</ele><time>2026-03-22T10:04:46Z</time></trkpt><trkpt lat="44.479266711504394" lon="11.226661368795325"><ele>93.0</ele><time>2026-03-22T10:04:46.999Z</time></trkpt><trkpt lat="44.47925279811015" lon="11.226467120932965"><ele>93.25</ele><time>2026-03-22T10:04:47.999Z</time></trkpt><trkpt lat="44.47926267609155" lon="11.226243227768624"><ele>93.5</ele><time>2026-03-22T10:04:48.999Z</time></trkpt><trkpt lat="44.47927470691063" lon="11.226043163171994"><ele>93.75</ele><time>2026-03-22T10:04:49.999Z</time></trkpt><trkpt lat="44.47926928422263" lon="11.225884655637484"><ele>94.0</ele><time>2026-03-22T10:04:50.999Z</time></trkpt><trkpt lat="44.479242119169776" lon="11.225740128288134"><ele>94.0</ele><time>2026-03-22T10:04:51.999Z</time></trkpt><trkpt lat="44.47917987082259" lon="11.225589731519497"><ele>94.0</ele><time>2026-03-22T10:04:52.999Z</time></trkpt><trkpt lat="44.4790749201252" lon="11.225435302476233"><ele>94.0</ele><time>2026-03-22T10:04:53.999Z</time></trkpt><trkpt lat="44.478979747968644" lon="11.22531313150504"><ele>94.0</ele><time>2026-03-22T10:04:54.999Z</time></trkpt><trkpt lat="44.478908233446255" lon="11.22522083101968"><ele>94.0</ele><time>2026-03-22T10:04:55.999Z</time></trkpt><trkpt lat="44.478859517234746" lon="11.22514628184062"><ele>94.0</ele><time>2026-03-22T10:04:56.999Z</time></trkpt><trkpt lat="44.478792516058135" lon="11.225035732729731"><ele>94.0</ele><time>2026-03-22T10:04:58.999Z</time></trkpt><trkpt lat="44.47874061651685" lon="11.224933857783684"><ele>94.0</ele><time>2026-03-22T10:04:59.999Z</time></trkpt><trkpt lat="44.47868396759706" lon="11.224785492779427"><ele>94.0</ele><time>2026-03-22T10:05:00.999Z</time></trkpt><trkpt lat="44.47862076854489" lon="11.224605630540768"><ele>93.5</ele><time>2026-03-22T10:05:01.999Z</time></trkpt><trkpt lat="44.47854837160078" lon="11.224410230127821"><ele>93.0</ele><time>2026-03-22T10:05:02.999Z</time></trkpt><trkpt lat="44.478493286703745" lon="11.224210939906985"><ele>92.5</ele><time>2026-03-22T10:05:03.999Z</time></trkpt><trkpt lat="44.47843032135481" lon="11.224050476507099"><ele>92.0</ele><time>2026-03-22T10:05:04.999Z</time></trkpt><trkpt lat="44.47839186043159" lon="11.223900301616075"><ele>92.0</ele><time>2026-03-22T10:05:05.999Z</time></trkpt><trkpt lat="44.47835472448099" lon="11.223753843296551"><ele>92.0</ele><time>2026-03-22T10:05:06.999Z</time></trkpt><trkpt lat="44.47831813501734" lon="11.223624732385828"><ele>92.0</ele><time>2026-03-22T10:05:07.999Z</time></trkpt><trkpt lat="44.47827139263782" lon="11.223521419866582"><ele>92.0</ele><time>2026-03-22T10:05:08.999Z</time></trkpt><trkpt lat="44.478241114112805" lon="11.223408729340859"><ele>92.0</ele><time>2026-03-22T10:05:10Z</time></trkpt><trkpt lat="44.47820450134715" lon="11.223319713871152"><ele>92.0</ele><time>2026-03-22T10:05:11Z</time></trkpt><trkpt lat="44.478201294961934" lon="11.223173931159286"><ele>92.0</ele><time>2026-03-22T10:05:13Z</time></trkpt><trkpt lat="44.478229814996716" lon="11.223082884128065"><ele>92.0</ele><time>2026-03-22T10:05:15Z</time></trkpt><trkpt lat="44.47823958589223" lon="11.222985532670638"><ele>92.0</ele><time>2026-03-22T10:05:20Z</time></trkpt><trkpt lat="44.47809826381611" lon="11.222796218967837"><ele>92.0</ele><time>2026-03-22T10:05:22Z</time></trkpt><trkpt lat="44.47803154745588" lon="11.2226987044206"><ele>92.25</ele><time>2026-03-22T10:05:23Z</time></trkpt><trkpt lat="44.477967702862045" lon="11.222579294879097"><ele>92.5</ele><time>2026-03-22T10:05:24Z</time></trkpt><trkpt lat="44.477894636680396" lon="11.22244810883896"><ele>92.75</ele><time>2026-03-22T10:05:25Z</time></trkpt><trkpt lat="44.47783019251069" lon="11.222302388677228"><ele>93.0</ele><time>2026-03-22T10:05:26Z</time></trkpt><trkpt lat="44.477777429884654" lon="11.222160695773983"><ele>93.0</ele><time>2026-03-22T10:05:27Z</time></trkpt><trkpt lat="44.47773349657537" lon="11.222019019457655"><ele>93.0</ele><time>2026-03-22T10:05:28Z</time></trkpt><trkpt lat="44.47770369243113" lon="11.221831952461034"><ele>93.0</ele><time>2026-03-22T10:05:29Z</time></trkpt><trkpt lat="44.47765168435654" lon="11.221599865815241"><ele>93.0</ele><time>2026-03-22T10:05:30Z</time></trkpt><trkpt lat="44.47760733286532" lon="11.221393721609257"><ele>92.80000000000001</ele><time>2026-03-22T10:05:31Z</time></trkpt><trkpt lat="44.47755396351151" lon="11.221225903829316"><ele>92.6</ele><time>2026-03-22T10:05:32Z</time></trkpt><trkpt lat="44.47752069899117" lon="11.2210816067014"><ele>92.4</ele><time>2026-03-22T10:05:33Z</time></trkpt><trkpt lat="44.477482243436064" lon="11.220949641756654"><ele>92.19999999999999</ele><time>2026-03-22T10:05:34Z</time></trkpt><trkpt lat="44.47743366273067" lon="11.220824961584833"><ele>92.0</ele><time>2026-03-22T10:05:35Z</time></trkpt><trkpt lat="44.477380850093056" lon="11.22070077224595"><ele>91.8</ele><time>2026-03-22T10:05:36Z</time></trkpt><trkpt lat="44.47732788634715" lon="11.220573628982018"><ele>91.6</ele><time>2026-03-22T10:05:37Z</time></trkpt><trkpt lat="44.477257418674604" lon="11.220457495615776"><ele>91.39999999999999</ele><time>2026-03-22T10:05:38Z</time></trkpt><trkpt lat="44.477189388069455" lon="11.220330534981464"><ele>91.19999999999999</ele><time>2026-03-22T10:05:39Z</time></trkpt><trkpt lat="44.47711369197109" lon="11.220209867544531"><ele>91.0</ele><time>2026-03-22T10:05:40Z</time></trkpt><trkpt lat="44.47704430052705" lon="11.220084753733754"><ele>91.5</ele><time>2026-03-22T10:05:41Z</time></trkpt><trkpt lat="44.476972387337625" lon="11.219956009037622"><ele>92.0</ele><time>2026-03-22T10:05:42Z</time></trkpt><trkpt lat="44.47690001367097" lon="11.219829726308864"><ele>92.5</ele><time>2026-03-22T10:05:43Z</time></trkpt><trkpt lat="44.476825027132584" lon="11.219705329650306"><ele>93.0</ele><time>2026-03-22T10:05:44Z</time></trkpt><trkpt lat="44.47675735371614" lon="11.21958308482038"><ele>92.0</ele><time>2026-03-22T10:05:45Z</time></trkpt><trkpt lat="44.47668650249081" lon="11.219462521121407"><ele>91.0</ele><time>2026-03-22T10:05:46Z</time></trkpt><trkpt lat="44.47661918010239" lon="11.219339264480327"><ele>90.0</ele><time>2026-03-22T10:05:47Z</time></trkpt><trkpt lat="44.47654606702912" lon="11.219220672771064"><ele>89.0</ele><time>2026-03-22T10:05:48Z</time></trkpt><trkpt lat="44.47647827416862" lon="11.219098156481364"><ele>88.0</ele><time>2026-03-22T10:05:49Z</time></trkpt><trkpt lat="44.47641188186369" lon="11.218971876722422"><ele>88.0</ele><time>2026-03-22T10:05:50Z</time></trkpt><trkpt lat="44.47634400333472" lon="11.218852100769698"><ele>88.0</ele><time>2026-03-22T10:05:51Z</time></trkpt><trkpt lat="44.476275654588086" lon="11.21873221074432"><ele>88.0</ele><time>2026-03-22T10:05:52Z</time></trkpt><trkpt lat="44.47620508528595" lon="11.218610106692301"><ele>88.0</ele><time>2026-03-22T10:05:53Z</time></trkpt><trkpt lat="44.476135302261554" lon="11.218485132757447"><ele>88.0</ele><time>2026-03-22T10:05:54Z</time></trkpt><trkpt lat="44.4760669605431" lon="11.21835987160671"><ele>88.0</ele><time>2026-03-22T10:05:55Z</time></trkpt><trkpt lat="44.475997647861334" lon="11.21823074848376"><ele>88.0</ele><time>2026-03-22T10:05:56Z</time></trkpt><trkpt lat="44.47593205047005" lon="11.218096335455114"><ele>88.0</ele><time>2026-03-22T10:05:57Z</time></trkpt><trkpt lat="44.475865407318686" lon="11.21795718693594"><ele>88.0</ele><time>2026-03-22T10:05:58Z</time></trkpt><trkpt lat="44.47580575496816" lon="11.217810941349105"><ele>87.5</ele><time>2026-03-22T10:05:59Z</time></trkpt><trkpt lat="44.47574779858745" lon="11.217660195181079"><ele>87.0</ele><time>2026-03-22T10:06:00Z</time></trkpt><trkpt lat="44.47569446505424" lon="11.21750746101288"><ele>86.5</ele><time>2026-03-22T10:06:01Z</time></trkpt><trkpt lat="44.47563514974328" lon="11.21735601142671"><ele>86.0</ele><time>2026-03-22T10:06:02Z</time></trkpt><trkpt lat="44.47558418982098" lon="11.217212116966147"><ele>85.75</ele><time>2026-03-22T10:06:03Z</time></trkpt><trkpt lat="44.475534517222265" lon="11.2170641601251"><ele>85.5</ele><time>2026-03-22T10:06:04Z</time></trkpt><trkpt lat="44.47548625906678" lon="11.216916191228565"><ele>85.25</ele><time>2026-03-22T10:06:05Z</time></trkpt><trkpt lat="44.47543714790556" lon="11.216767170880225"><ele>85.0</ele><time>2026-03-22T10:06:06Z</time></trkpt><trkpt lat="44.47539295213237" lon="11.216616024180848"><ele>86.6</ele><time>2026-03-22T10:06:07Z</time></trkpt><trkpt lat="44.47534994622617" lon="11.216466956401183"><ele>88.2</ele><time>2026-03-22T10:06:08Z</time></trkpt><trkpt lat="44.4753137190485" lon="11.216316513372247"><ele>89.80000000000001</ele><time>2026-03-22T10:06:09Z</time></trkpt><trkpt lat="44.47528572394172" lon="11.216169697975698"><ele>91.4</ele><time>2026-03-22T10:06:10Z</time></trkpt><trkpt lat="44.47525935211336" lon="11.21601610379945"><ele>93.0</ele><time>2026-03-22T10:06:11Z</time></trkpt><trkpt lat="44.475234493942956" lon="11.215867200828402"><ele>93.0</ele><time>2026-03-22T10:06:12Z</time></trkpt><trkpt lat="44.47521624288827" lon="11.21571863185012"><ele>93.0</ele><time>2026-03-22T10:06:13Z</time></trkpt><trkpt lat="44.475197335840924" lon="11.215566088807016"><ele>93.0</ele><time>2026-03-22T10:06:14Z</time></trkpt><trkpt lat="44.47517432520862" lon="11.21540886495581"><ele>93.0</ele><time>2026-03-22T10:06:15Z</time></trkpt><trkpt lat="44.47515093137514" lon="11.215249337605934"><ele>93.0</ele><time>2026-03-22T10:06:16Z</time></trkpt><trkpt lat="44.47512043393619" lon="11.215079398357382"><ele>93.5</ele><time>2026-03-22T10:06:17Z</time></trkpt><trkpt lat="44.47508209625073" lon="11.21492282650456"><ele>94.0</ele><time>2026-03-22T10:06:18Z</time></trkpt><trkpt lat="44.47503631012834" lon="11.214759480987896"><ele>94.5</ele><time>2026-03-22T10:06:19Z</time></trkpt><trkpt lat="44.47498004999713" lon="11.214606394859096"><ele>95.0</ele><time>2026-03-22T10:06:20Z</time></trkpt><trkpt lat="44.47491708476613" lon="11.21446108391792"><ele>95.0</ele><time>2026-03-22T10:06:21Z</time></trkpt><trkpt lat="44.474845494027754" lon="11.214329271537169"><ele>95.0</ele><time>2026-03-22T10:06:22Z</time></trkpt><trkpt lat="44.4747693875" lon="11.21419956057905"><ele>95.0</ele><time>2026-03-22T10:06:23Z</time></trkpt><trkpt lat="44.47467685723338" lon="11.214067232746673"><ele>95.0</ele><time>2026-03-22T10:06:24Z</time></trkpt><trkpt lat="44.474590019791634" lon="11.213941898728542"><ele>95.25</ele><time>2026-03-22T10:06:25Z</time></trkpt><trkpt lat="44.474500774956454" lon="11.213827261769495"><ele>95.5</ele><time>2026-03-22T10:06:26Z</time></trkpt><trkpt lat="44.47441515028775" lon="11.213709140720587"><ele>95.75</ele><time>2026-03-22T10:06:27.001Z</time></trkpt><trkpt lat="44.47433382208163" lon="11.213596040989813"><ele>96.0</ele><time>2026-03-22T10:06:28.001Z</time></trkpt><trkpt lat="44.474247791886924" lon="11.213482986700306"><ele>96.0</ele><time>2026-03-22T10:06:29.001Z</time></trkpt><trkpt lat="44.47416263902811" lon="11.213363806568404"><ele>96.0</ele><time>2026-03-22T10:06:30.001Z</time></trkpt><trkpt lat="44.47407930576346" lon="11.21323399616265"><ele>96.0</ele><time>2026-03-22T10:06:31.001Z</time></trkpt><trkpt lat="44.47400276490078" lon="11.213091845202126"><ele>96.0</ele><time>2026-03-22T10:06:32.001Z</time></trkpt><trkpt lat="44.47392853413502" lon="11.212937084193634"><ele>96.75</ele><time>2026-03-22T10:06:33.001Z</time></trkpt><trkpt lat="44.47386131914244" lon="11.21277427786615"><ele>97.5</ele><time>2026-03-22T10:06:34.001Z</time></trkpt><trkpt lat="44.47379694242312" lon="11.212611800462515"><ele>98.25</ele><time>2026-03-22T10:06:35.001Z</time></trkpt><trkpt lat="44.47372610680935" lon="11.212427660455754"><ele>99.0</ele><time>2026-03-22T10:06:36.001Z</time></trkpt><trkpt lat="44.473631545257625" lon="11.212194329164571"><ele>99.0</ele><time>2026-03-22T10:06:37.001Z</time></trkpt><trkpt lat="44.473514442644074" lon="11.211928456824484"><ele>99.0</ele><time>2026-03-22T10:06:38.001Z</time></trkpt><trkpt lat="44.47340004300164" lon="11.211634887130915"><ele>98.0</ele><time>2026-03-22T10:06:39.001Z</time></trkpt><trkpt lat="44.47328632602792" lon="11.211361875734317"><ele>97.0</ele><time>2026-03-22T10:06:40.001Z</time></trkpt><trkpt lat="44.4731473680352" lon="11.211066791472582"><ele>97.0</ele><time>2026-03-22T10:06:41.001Z</time></trkpt><trkpt lat="44.47302182680706" lon="11.210818553371986"><ele>97.0</ele><time>2026-03-22T10:06:42.001Z</time></trkpt><trkpt lat="44.472902871718745" lon="11.210579632280918"><ele>97.0</ele><time>2026-03-22T10:06:43.001Z</time></trkpt><trkpt lat="44.47278944062683" lon="11.210316184470202"><ele>98.0</ele><time>2026-03-22T10:06:44.001Z</time></trkpt><trkpt lat="44.4726837924348" lon="11.210070077266336"><ele>99.0</ele><time>2026-03-22T10:06:45.001Z</time></trkpt><trkpt lat="44.472583411397714" lon="11.209822850174424"><ele>100.0</ele><time>2026-03-22T10:06:46.001Z</time></trkpt><trkpt lat="44.47249103570428" lon="11.209556187676473"><ele>100.0</ele><time>2026-03-22T10:06:47.001Z</time></trkpt><trkpt lat="44.47242558142637" lon="11.209290855562513"><ele>100.0</ele><time>2026-03-22T10:06:48.001Z</time></trkpt><trkpt lat="44.47237139530113" lon="11.208958294102006"><ele>100.0</ele><time>2026-03-22T10:06:49.001Z</time></trkpt><trkpt lat="44.472333633680485" lon="11.208579345591238"><ele>100.33333333333334</ele><time>2026-03-22T10:06:50.001Z</time></trkpt><trkpt lat="44.472300814174574" lon="11.208317202442649"><ele>100.66666666666666</ele><time>2026-03-22T10:06:51.001Z</time></trkpt><trkpt lat="44.472267490384475" lon="11.208010784493066"><ele>101.0</ele><time>2026-03-22T10:06:52.001Z</time></trkpt><trkpt lat="44.47221515480486" lon="11.20773697681943"><ele>101.0</ele><time>2026-03-22T10:06:53Z</time></trkpt><trkpt lat="44.472162763928424" lon="11.207455636355984"><ele>101.0</ele><time>2026-03-22T10:06:54Z</time></trkpt><trkpt lat="44.472086447071305" lon="11.207177206264285"><ele>101.0</ele><time>2026-03-22T10:06:55Z</time></trkpt><trkpt lat="44.47200195511018" lon="11.206912693169654"><ele>102.0</ele><time>2026-03-22T10:06:56Z</time></trkpt><trkpt lat="44.471924030778084" lon="11.20668617194071"><ele>103.0</ele><time>2026-03-22T10:06:57Z</time></trkpt><trkpt lat="44.47183509797433" lon="11.206456756432328"><ele>104.0</ele><time>2026-03-22T10:06:58Z</time></trkpt><trkpt lat="44.471737179737666" lon="11.206257528526764"><ele>104.0</ele><time>2026-03-22T10:06:59Z</time></trkpt><trkpt lat="44.47164582570754" lon="11.206083046898359"><ele>104.0</ele><time>2026-03-22T10:07:00Z</time></trkpt><trkpt lat="44.47153886444893" lon="11.205920261513084"><ele>104.0</ele><time>2026-03-22T10:07:01Z</time></trkpt><trkpt lat="44.47142798187187" lon="11.20579583668373"><ele>104.0</ele><time>2026-03-22T10:07:02Z</time></trkpt><trkpt lat="44.4712878624263" lon="11.20566439986025"><ele>104.0</ele><time>2026-03-22T10:07:03Z</time></trkpt><trkpt lat="44.471117448463055" lon="11.205559325798877"><ele>104.0</ele><time>2026-03-22T10:07:04Z</time></trkpt><trkpt lat="44.470926128045456" lon="11.205483996974966"><ele>106.0</ele><time>2026-03-22T10:07:05Z</time></trkpt><trkpt lat="44.470741753039746" lon="11.205386857723555"><ele>108.0</ele><time>2026-03-22T10:07:06Z</time></trkpt><trkpt lat="44.470562047101666" lon="11.205267462225192"><ele>110.0</ele><time>2026-03-22T10:07:07Z</time></trkpt><trkpt lat="44.47039998831591" lon="11.205122579060747"><ele>109.66666666666666</ele><time>2026-03-22T10:07:08Z</time></trkpt><trkpt lat="44.4702538303055" lon="11.204980663272341"><ele>109.33333333333334</ele><time>2026-03-22T10:07:09Z</time></trkpt><trkpt lat="44.47010313675932" lon="11.204816803169921"><ele>109.0</ele><time>2026-03-22T10:07:10Z</time></trkpt><trkpt lat="44.46995343723006" lon="11.204601976503337"><ele>109.0</ele><time>2026-03-22T10:07:11Z</time></trkpt><trkpt lat="44.46981523550282" lon="11.204371118852503"><ele>109.0</ele><time>2026-03-22T10:07:12Z</time></trkpt><trkpt lat="44.469668846887366" lon="11.204102401255973"><ele>109.33333333333334</ele><time>2026-03-22T10:07:13Z</time></trkpt><trkpt lat="44.46952868591119" lon="11.203845578112833"><ele>109.66666666666666</ele><time>2026-03-22T10:07:14Z</time></trkpt><trkpt lat="44.469409460528595" lon="11.203631082922696"><ele>110.0</ele><time>2026-03-22T10:07:15Z</time></trkpt><trkpt lat="44.4692885329288" lon="11.203418277543959"><ele>110.0</ele><time>2026-03-22T10:07:16Z</time></trkpt><trkpt lat="44.469155325634105" lon="11.203201737768206"><ele>110.0</ele><time>2026-03-22T10:07:17Z</time></trkpt><trkpt lat="44.46902538055866" lon="11.202994007843298"><ele>110.0</ele><time>2026-03-22T10:07:18Z</time></trkpt><trkpt lat="44.468905419548214" lon="11.202808472842603"><ele>110.0</ele><time>2026-03-22T10:07:19Z</time></trkpt><trkpt lat="44.46878610605098" lon="11.202640747960213"><ele>110.0</ele><time>2026-03-22T10:07:20Z</time></trkpt><trkpt lat="44.468684091137895" lon="11.202456211985313"><ele>110.0</ele><time>2026-03-22T10:07:21Z</time></trkpt><trkpt lat="44.46859989336352" lon="11.20228097664694"><ele>110.0</ele><time>2026-03-22T10:07:22Z</time></trkpt><trkpt lat="44.468522416861006" lon="11.202122503946777"><ele>110.0</ele><time>2026-03-22T10:07:23Z</time></trkpt><trkpt lat="44.46845118105518" lon="11.201973874552836"><ele>110.0</ele><time>2026-03-22T10:07:24Z</time></trkpt><trkpt lat="44.46837859044337" lon="11.201844881095443"><ele>110.0</ele><time>2026-03-22T10:07:25Z</time></trkpt><trkpt lat="44.46827388206844" lon="11.201754710299069"><ele>110.0</ele><time>2026-03-22T10:07:26Z</time></trkpt><trkpt lat="44.46813922759184" lon="11.201699882543881"><ele>110.0</ele><time>2026-03-22T10:07:27Z</time></trkpt><trkpt lat="44.46796719085848" lon="11.201678877061818"><ele>110.0</ele><time>2026-03-22T10:07:28Z</time></trkpt><trkpt lat="44.467773004786935" lon="11.201714538627026"><ele>107.0</ele><time>2026-03-22T10:07:29Z</time></trkpt><trkpt lat="44.4675316979051" lon="11.201761623645378"><ele>104.0</ele><time>2026-03-22T10:07:30Z</time></trkpt><trkpt lat="44.46727299186357" lon="11.201769788723428"><ele>104.5</ele><time>2026-03-22T10:07:31Z</time></trkpt><trkpt lat="44.467026504152365" lon="11.201769239740553"><ele>105.0</ele><time>2026-03-22T10:07:32Z</time></trkpt><trkpt lat="44.466807564439364" lon="11.201725965991526"><ele>105.0</ele><time>2026-03-22T10:07:33Z</time></trkpt><trkpt lat="44.46657906819" lon="11.201642175257177"><ele>105.0</ele><time>2026-03-22T10:07:34Z</time></trkpt><trkpt lat="44.46631622668796" lon="11.201504158737524"><ele>102.5</ele><time>2026-03-22T10:07:35Z</time></trkpt><trkpt lat="44.46603111533443" lon="11.201351351333148"><ele>100.0</ele><time>2026-03-22T10:07:36Z</time></trkpt><trkpt lat="44.465776969302745" lon="11.201184823159268"><ele>100.0</ele><time>2026-03-22T10:07:37Z</time></trkpt><trkpt lat="44.46556709694754" lon="11.201038319788301"><ele>100.0</ele><time>2026-03-22T10:07:38Z</time></trkpt><trkpt lat="44.46538442775922" lon="11.200916539706563"><ele>100.0</ele><time>2026-03-22T10:07:39Z</time></trkpt><trkpt lat="44.46522230455216" lon="11.20081470596251"><ele>100.75</ele><time>2026-03-22T10:07:40Z</time></trkpt><trkpt lat="44.46507471405284" lon="11.200717447137814"><ele>101.5</ele><time>2026-03-22T10:07:41Z</time></trkpt><trkpt lat="44.46494183499335" lon="11.200630058399883"><ele>102.25</ele><time>2026-03-22T10:07:42Z</time></trkpt><trkpt lat="44.46482341460997" lon="11.200556527061234"><ele>103.0</ele><time>2026-03-22T10:07:43Z</time></trkpt><trkpt lat="44.464720402216976" lon="11.20048834200807"><ele>103.0</ele><time>2026-03-22T10:07:44Z</time></trkpt><trkpt lat="44.46462964891386" lon="11.200417967096397"><ele>103.0</ele><time>2026-03-22T10:07:45Z</time></trkpt><trkpt lat="44.464549637395365" lon="11.200335679925313"><ele>103.0</ele><time>2026-03-22T10:07:46Z</time></trkpt><trkpt lat="44.46447469481997" lon="11.200245072407611"><ele>103.0</ele><time>2026-03-22T10:07:47Z</time></trkpt><trkpt lat="44.464420338093184" lon="11.200129677683835"><ele>103.0</ele><time>2026-03-22T10:07:48Z</time></trkpt><trkpt lat="44.46441389245918" lon="11.20001100197518"><ele>103.0</ele><time>2026-03-22T10:07:49Z</time></trkpt><trkpt lat="44.46443663964012" lon="11.199892524498566"><ele>103.0</ele><time>2026-03-22T10:07:50Z</time></trkpt><trkpt lat="44.4644833512674" lon="11.199760660267282"><ele>103.0</ele><time>2026-03-22T10:07:51Z</time></trkpt><trkpt lat="44.464544275703915" lon="11.19962402363999"><ele>103.0</ele><time>2026-03-22T10:07:52Z</time></trkpt><trkpt lat="44.46459491228644" lon="11.199489844197666"><ele>103.0</ele><time>2026-03-22T10:07:53Z</time></trkpt><trkpt lat="44.464638068997736" lon="11.199366018197871"><ele>103.4</ele><time>2026-03-22T10:07:54Z</time></trkpt><trkpt lat="44.464671821066325" lon="11.19926469303457"><ele>103.80000000000001</ele><time>2026-03-22T10:07:55Z</time></trkpt><trkpt lat="44.464704100124834" lon="11.19916802902534"><ele>104.2</ele><time>2026-03-22T10:07:56Z</time></trkpt><trkpt lat="44.46474695524902" lon="11.19905051427567"><ele>104.6</ele><time>2026-03-22T10:07:57Z</time></trkpt><trkpt lat="44.46479173462144" lon="11.198920417202789"><ele>105.0</ele><time>2026-03-22T10:07:58Z</time></trkpt><trkpt lat="44.46483522684781" lon="11.198794524306912"><ele>105.6</ele><time>2026-03-22T10:07:59.001Z</time></trkpt><trkpt lat="44.464881654421276" lon="11.198670004539094"><ele>106.2</ele><time>2026-03-22T10:08:00.001Z</time></trkpt><trkpt lat="44.46492612070267" lon="11.198544731561864"><ele>106.80000000000001</ele><time>2026-03-22T10:08:01.001Z</time></trkpt><trkpt lat="44.464973204726924" lon="11.198423671923258"><ele>107.4</ele><time>2026-03-22T10:08:02.001Z</time></trkpt><trkpt lat="44.46501784427645" lon="11.198298545088406"><ele>108.0</ele><time>2026-03-22T10:08:03.001Z</time></trkpt><trkpt lat="44.46506404963604" lon="11.198165557816637"><ele>108.80000000000001</ele><time>2026-03-22T10:08:04.001Z</time></trkpt><trkpt lat="44.46510896250798" lon="11.198032978664363"><ele>109.60000000000001</ele><time>2026-03-22T10:08:05.001Z</time></trkpt><trkpt lat="44.46515627106009" lon="11.19790158525249"><ele>110.39999999999999</ele><time>2026-03-22T10:08:06.001Z</time></trkpt><trkpt lat="44.4652071633388" lon="11.197764044983307"><ele>111.19999999999999</ele><time>2026-03-22T10:08:07.001Z</time></trkpt><trkpt lat="44.46526539502065" lon="11.197626216142595"><ele>112.0</ele><time>2026-03-22T10:08:08.001Z</time></trkpt><trkpt lat="44.46533395803717" lon="11.197501492177151"><ele>112.0</ele><time>2026-03-22T10:08:09.001Z</time></trkpt><trkpt lat="44.46539718800701" lon="11.197400125942405"><ele>111.99999999999999</ele><time>2026-03-22T10:08:10.001Z</time></trkpt><trkpt lat="44.465456271913844" lon="11.19731798127521"><ele>111.99999999999999</ele><time>2026-03-22T10:08:11.001Z</time></trkpt><trkpt lat="44.465516888772804" lon="11.197232184298716"><ele>112.0</ele><time>2026-03-22T10:08:12.001Z</time></trkpt><trkpt lat="44.46559844485055" lon="11.19713273303772"><ele>112.0</ele><time>2026-03-22T10:08:13.001Z</time></trkpt><trkpt lat="44.46568801103409" lon="11.197036735454471"><ele>109.25</ele><time>2026-03-22T10:08:14.001Z</time></trkpt><trkpt lat="44.46577887514544" lon="11.19693218644189"><ele>106.5</ele><time>2026-03-22T10:08:15.001Z</time></trkpt><trkpt lat="44.46587321297581" lon="11.196825101450472"><ele>103.75</ele><time>2026-03-22T10:08:16.001Z</time></trkpt><trkpt lat="44.46596897610338" lon="11.196713744252342"><ele>101.0</ele><time>2026-03-22T10:08:17.001Z</time></trkpt><trkpt lat="44.4660637680021" lon="11.196602631068764"><ele>101.0</ele><time>2026-03-22T10:08:18.001Z</time></trkpt><trkpt lat="44.466163125468306" lon="11.196489108778206"><ele>101.0</ele><time>2026-03-22T10:08:19.001Z</time></trkpt><trkpt lat="44.466258658481074" lon="11.19638205257579"><ele>101.0</ele><time>2026-03-22T10:08:20.001Z</time></trkpt><trkpt lat="44.466353552305996" lon="11.196278561800598"><ele>101.0</ele><time>2026-03-22T10:08:21.001Z</time></trkpt><trkpt lat="44.46645061656079" lon="11.196166937487407"><ele>101.0</ele><time>2026-03-22T10:08:22.001Z</time></trkpt><trkpt lat="44.46655427982848" lon="11.196056769455458"><ele>101.0</ele><time>2026-03-22T10:08:23.001Z</time></trkpt><trkpt lat="44.4666583997036" lon="11.195945756673547"><ele>101.0</ele><time>2026-03-22T10:08:24.001Z</time></trkpt><trkpt lat="44.466761829359726" lon="11.19583531713951"><ele>101.0</ele><time>2026-03-22T10:08:25.001Z</time></trkpt><trkpt lat="44.46685233876719" lon="11.195737769208527"><ele>101.6</ele><time>2026-03-22T10:08:26.001Z</time></trkpt><trkpt lat="44.46693073829079" lon="11.195645872347567"><ele>102.19999999999999</ele><time>2026-03-22T10:08:27.001Z</time></trkpt><trkpt lat="44.46699772987282" lon="11.195548580425918"><ele>102.80000000000001</ele><time>2026-03-22T10:08:28.001Z</time></trkpt><trkpt lat="44.467056677264566" lon="11.195445963713953"><ele>103.4</ele><time>2026-03-22T10:08:29.001Z</time></trkpt><trkpt lat="44.467077019295765" lon="11.195310382602178"><ele>104.0</ele><time>2026-03-22T10:08:30.001Z</time></trkpt><trkpt lat="44.46704515468842" lon="11.19515243384646"><ele>104.0</ele><time>2026-03-22T10:08:31.001Z</time></trkpt><trkpt lat="44.46698792739202" lon="11.194945438542414"><ele>104.0</ele><time>2026-03-22T10:08:32.001Z</time></trkpt><trkpt lat="44.46692453273688" lon="11.194719507748365"><ele>104.0</ele><time>2026-03-22T10:08:33.001Z</time></trkpt><trkpt lat="44.4668780132166" lon="11.194509960513587"><ele>105.0</ele><time>2026-03-22T10:08:34.001Z</time></trkpt><trkpt lat="44.46683495917675" lon="11.194307987523876"><ele>106.0</ele><time>2026-03-22T10:08:35.001Z</time></trkpt><trkpt lat="44.46678388330456" lon="11.194110731642844"><ele>107.0</ele><time>2026-03-22T10:08:36.001Z</time></trkpt><trkpt lat="44.466729940907015" lon="11.193911577189835"><ele>108.0</ele><time>2026-03-22T10:08:37.001Z</time></trkpt><trkpt lat="44.46666269502026" lon="11.193728561917167"><ele>109.0</ele><time>2026-03-22T10:08:38.001Z</time></trkpt><trkpt lat="44.466578936333754" lon="11.193553903030299"><ele>110.0</ele><time>2026-03-22T10:08:39.001Z</time></trkpt><trkpt lat="44.46649387093457" lon="11.193367625961221"><ele>110.0</ele><time>2026-03-22T10:08:40.001Z</time></trkpt><trkpt lat="44.46640379699891" lon="11.193174899042296"><ele>110.0</ele><time>2026-03-22T10:08:41.001Z</time></trkpt><trkpt lat="44.46631336826862" lon="11.192981297503346"><ele>110.0</ele><time>2026-03-22T10:08:42.001Z</time></trkpt><trkpt lat="44.466226776459465" lon="11.192779820331252"><ele>109.75</ele><time>2026-03-22T10:08:43.001Z</time></trkpt><trkpt lat="44.46614054550188" lon="11.19259746132398"><ele>109.5</ele><time>2026-03-22T10:08:44.001Z</time></trkpt><trkpt lat="44.466065662305006" lon="11.1924201260352"><ele>109.25</ele><time>2026-03-22T10:08:45.001Z</time></trkpt><trkpt lat="44.46599424655825" lon="11.192253468484033"><ele>109.0</ele><time>2026-03-22T10:08:46.001Z</time></trkpt><trkpt lat="44.46591426282615" lon="11.192076092523033"><ele>109.75</ele><time>2026-03-22T10:08:47.001Z</time></trkpt><trkpt lat="44.46582724044222" lon="11.191917032247058"><ele>110.5</ele><time>2026-03-22T10:08:48.001Z</time></trkpt><trkpt lat="44.46573148040841" lon="11.191774873785102"><ele>111.25</ele><time>2026-03-22T10:08:49.001Z</time></trkpt><trkpt lat="44.46563100442963" lon="11.191633102053416"><ele>112.0</ele><time>2026-03-22T10:08:50.001Z</time></trkpt><trkpt lat="44.46553858676125" lon="11.191504654555184"><ele>111.25</ele><time>2026-03-22T10:08:51.001Z</time></trkpt><trkpt lat="44.4654601434252" lon="11.191368360910264"><ele>110.5</ele><time>2026-03-22T10:08:52.001Z</time></trkpt><trkpt lat="44.46537816680259" lon="11.191211886592477"><ele>109.75</ele><time>2026-03-22T10:08:53.001Z</time></trkpt><trkpt lat="44.46531937146396" lon="11.19103560836678"><ele>109.0</ele><time>2026-03-22T10:08:54.001Z</time></trkpt><trkpt lat="44.46528309871119" lon="11.190855962857977"><ele>109.75</ele><time>2026-03-22T10:08:55.001Z</time></trkpt><trkpt lat="44.46526574102094" lon="11.190661052485876"><ele>110.5</ele><time>2026-03-22T10:08:56.001Z</time></trkpt><trkpt lat="44.465257271970835" lon="11.190473612724158"><ele>111.25</ele><time>2026-03-22T10:08:57.001Z</time></trkpt><trkpt lat="44.46525561903743" lon="11.190289861869026"><ele>112.0</ele><time>2026-03-22T10:08:58.001Z</time></trkpt><trkpt lat="44.46525824677836" lon="11.19011633011527"><ele>112.0</ele><time>2026-03-22T10:08:59Z</time></trkpt><trkpt lat="44.46524715253001" lon="11.189926640415122"><ele>112.0</ele><time>2026-03-22T10:09:00Z</time></trkpt><trkpt lat="44.46519972592239" lon="11.189716227647954"><ele>112.0</ele><time>2026-03-22T10:09:01Z</time></trkpt><trkpt lat="44.465138361947425" lon="11.189520155599352"><ele>112.0</ele><time>2026-03-22T10:09:02Z</time></trkpt><trkpt lat="44.46507908566206" lon="11.189361389479451"><ele>112.5</ele><time>2026-03-22T10:09:03Z</time></trkpt><trkpt lat="44.46503121546232" lon="11.189212860148832"><ele>113.0</ele><time>2026-03-22T10:09:04Z</time></trkpt><trkpt lat="44.46497407030323" lon="11.189047774652511"><ele>113.5</ele><time>2026-03-22T10:09:05Z</time></trkpt><trkpt lat="44.4649164617335" lon="11.18888070719145"><ele>114.0</ele><time>2026-03-22T10:09:06Z</time></trkpt><trkpt lat="44.4648702299646" lon="11.1887246009611"><ele>115.75</ele><time>2026-03-22T10:09:07Z</time></trkpt><trkpt lat="44.464818528628136" lon="11.18857743574078"><ele>117.5</ele><time>2026-03-22T10:09:08Z</time></trkpt><trkpt lat="44.46476775563178" lon="11.188426984406318"><ele>119.25</ele><time>2026-03-22T10:09:09Z</time></trkpt><trkpt lat="44.46472115281845" lon="11.188276696687439"><ele>121.0</ele><time>2026-03-22T10:09:10Z</time></trkpt><trkpt lat="44.46469683872585" lon="11.188105798810854"><ele>121.5</ele><time>2026-03-22T10:09:11Z</time></trkpt><trkpt lat="44.464683100362045" lon="11.187923047575955"><ele>122.0</ele><time>2026-03-22T10:09:12Z</time></trkpt><trkpt lat="44.46469361832835" lon="11.18774277520134"><ele>122.5</ele><time>2026-03-22T10:09:13Z</time></trkpt><trkpt lat="44.46471885459456" lon="11.187577021096255"><ele>123.0</ele><time>2026-03-22T10:09:14Z</time></trkpt><trkpt lat="44.464758030341734" lon="11.187412586014654"><ele>122.25</ele><time>2026-03-22T10:09:15Z</time></trkpt><trkpt lat="44.46481718179317" lon="11.187253138251483"><ele>121.5</ele><time>2026-03-22T10:09:16Z</time></trkpt><trkpt lat="44.46488778631188" lon="11.187095137676378"><ele>120.75</ele><time>2026-03-22T10:09:17Z</time></trkpt><trkpt lat="44.464973178490304" lon="11.186949794270575"><ele>120.0</ele><time>2026-03-22T10:09:18Z</time></trkpt><trkpt lat="44.46504210666589" lon="11.18680922475458"><ele>120.0</ele><time>2026-03-22T10:09:19Z</time></trkpt><trkpt lat="44.46510012620801" lon="11.186650511382524"><ele>120.0</ele><time>2026-03-22T10:09:20Z</time></trkpt><trkpt lat="44.46512597794736" lon="11.18646699090524"><ele>120.0</ele><time>2026-03-22T10:09:21Z</time></trkpt><trkpt lat="44.465126159722345" lon="11.186271439708353"><ele>120.0</ele><time>2026-03-22T10:09:22Z</time></trkpt><trkpt lat="44.46509089032067" lon="11.186078059362352"><ele>120.0</ele><time>2026-03-22T10:09:23Z</time></trkpt><trkpt lat="44.46503328235725" lon="11.185892075984226"><ele>120.0</ele><time>2026-03-22T10:09:24Z</time></trkpt><trkpt lat="44.46499423200123" lon="11.185715947005802"><ele>120.0</ele><time>2026-03-22T10:09:25Z</time></trkpt><trkpt lat="44.46496102634026" lon="11.185526074258764"><ele>120.0</ele><time>2026-03-22T10:09:26Z</time></trkpt><trkpt lat="44.46494300113627" lon="11.185334420981333"><ele>120.0</ele><time>2026-03-22T10:09:27Z</time></trkpt><trkpt lat="44.464935123090925" lon="11.185144637832346"><ele>120.0</ele><time>2026-03-22T10:09:28Z</time></trkpt><trkpt lat="44.46493712633104" lon="11.184952309541298"><ele>120.0</ele><time>2026-03-22T10:09:29Z</time></trkpt><trkpt lat="44.46494896209415" lon="11.18476615917642"><ele>120.0</ele><time>2026-03-22T10:09:30Z</time></trkpt><trkpt lat="44.46496746042283" lon="11.184581746932581"><ele>119.5</ele><time>2026-03-22T10:09:31Z</time></trkpt><trkpt lat="44.46498686645526" lon="11.184395595766208"><ele>119.0</ele><time>2026-03-22T10:09:32Z</time></trkpt><trkpt lat="44.4650030841042" lon="11.184212726197494"><ele>118.5</ele><time>2026-03-22T10:09:33Z</time></trkpt><trkpt lat="44.46501385274654" lon="11.18401686974502"><ele>118.0</ele><time>2026-03-22T10:09:34Z</time></trkpt><trkpt lat="44.46500733484697" lon="11.183807747288673"><ele>117.66666666666667</ele><time>2026-03-22T10:09:35Z</time></trkpt><trkpt lat="44.464970482959615" lon="11.183586082522371"><ele>117.33333333333334</ele><time>2026-03-22T10:09:36.001Z</time></trkpt><trkpt lat="44.46489572828189" lon="11.183328947497388"><ele>117.0</ele><time>2026-03-22T10:09:37.001Z</time></trkpt><trkpt lat="44.464818576786485" lon="11.183062254717449"><ele>118.0</ele><time>2026-03-22T10:09:38.001Z</time></trkpt><trkpt lat="44.46474959992073" lon="11.182784908067372"><ele>119.0</ele><time>2026-03-22T10:09:39.001Z</time></trkpt><trkpt lat="44.46467274153983" lon="11.182461079074788"><ele>118.0</ele><time>2026-03-22T10:09:40.001Z</time></trkpt><trkpt lat="44.46459940844148" lon="11.182137661673831"><ele>117.0</ele><time>2026-03-22T10:09:41.001Z</time></trkpt><trkpt lat="44.46451622190448" lon="11.181790158416947"><ele>116.5</ele><time>2026-03-22T10:09:42.001Z</time></trkpt><trkpt lat="44.464422502856905" lon="11.181415189159878"><ele>116.0</ele><time>2026-03-22T10:09:43.001Z</time></trkpt><trkpt lat="44.46433280597223" lon="11.181036465037147"><ele>116.0</ele><time>2026-03-22T10:09:44.001Z</time></trkpt><trkpt lat="44.46426953041069" lon="11.18070994234848"><ele>116.0</ele><time>2026-03-22T10:09:45.001Z</time></trkpt><trkpt lat="44.464205972199686" lon="11.180395522950928"><ele>117.0</ele><time>2026-03-22T10:09:46.001Z</time></trkpt><trkpt lat="44.46412848448283" lon="11.1801142150575"><ele>118.0</ele><time>2026-03-22T10:09:47.001Z</time></trkpt><trkpt lat="44.46405353058381" lon="11.179822857077578"><ele>119.0</ele><time>2026-03-22T10:09:48.001Z</time></trkpt><trkpt lat="44.46396781002793" lon="11.17948861521471"><ele>120.66666666666666</ele><time>2026-03-22T10:09:49.001Z</time></trkpt><trkpt lat="44.463891682524824" lon="11.17918173354211"><ele>122.33333333333334</ele><time>2026-03-22T10:09:50.001Z</time></trkpt><trkpt lat="44.46382096251451" lon="11.178896650350362"><ele>124.0</ele><time>2026-03-22T10:09:51.001Z</time></trkpt><trkpt lat="44.46374137497415" lon="11.178585978509876"><ele>124.0</ele><time>2026-03-22T10:09:52.001Z</time></trkpt><trkpt lat="44.46367746966711" lon="11.178278499474589"><ele>124.0</ele><time>2026-03-22T10:09:53.001Z</time></trkpt><trkpt lat="44.46359822524843" lon="11.178044163132236"><ele>124.0</ele><time>2026-03-22T10:09:54.001Z</time></trkpt><trkpt lat="44.4635418055552" lon="11.17783634083712"><ele>125.33333333333334</ele><time>2026-03-22T10:09:55.001Z</time></trkpt><trkpt lat="44.463494646798644" lon="11.177640624767294"><ele>126.66666666666666</ele><time>2026-03-22T10:09:56.001Z</time></trkpt><trkpt lat="44.463471893074384" lon="11.177401227915635"><ele>128.0</ele><time>2026-03-22T10:09:57.001Z</time></trkpt><trkpt lat="44.46347132526497" lon="11.177142168049755"><ele>128.0</ele><time>2026-03-22T10:09:58.001Z</time></trkpt><trkpt lat="44.46347526533886" lon="11.176914607004216"><ele>128.0</ele><time>2026-03-22T10:09:59.001Z</time></trkpt><trkpt lat="44.463479793865226" lon="11.17669099504657"><ele>128.0</ele><time>2026-03-22T10:10:00.001Z</time></trkpt><trkpt lat="44.46349109013581" lon="11.176465475726141"><ele>128.66666666666666</ele><time>2026-03-22T10:10:01.001Z</time></trkpt><trkpt lat="44.46350076700085" lon="11.176229634773499"><ele>129.33333333333334</ele><time>2026-03-22T10:10:02.001Z</time></trkpt><trkpt lat="44.463490715882976" lon="11.175962577446978"><ele>130.0</ele><time>2026-03-22T10:10:03.001Z</time></trkpt><trkpt lat="44.46345803064367" lon="11.175681569091727"><ele>131.66666666666669</ele><time>2026-03-22T10:10:04.001Z</time></trkpt><trkpt lat="44.463422899218656" lon="11.175397533762235"><ele>133.33333333333334</ele><time>2026-03-22T10:10:05.001Z</time></trkpt><trkpt lat="44.4633953474925" lon="11.17513991543799"><ele>135.0</ele><time>2026-03-22T10:10:06.001Z</time></trkpt><trkpt lat="44.46337161704937" lon="11.174908251264524"><ele>137.25</ele><time>2026-03-22T10:10:07.001Z</time></trkpt><trkpt lat="44.46334965455486" lon="11.174706917738957"><ele>139.5</ele><time>2026-03-22T10:10:08.001Z</time></trkpt><trkpt lat="44.46332601998211" lon="11.174530386942484"><ele>141.75</ele><time>2026-03-22T10:10:09.001Z</time></trkpt><trkpt lat="44.46327356724445" lon="11.174351311115215"><ele>144.0</ele><time>2026-03-22T10:10:10.001Z</time></trkpt><trkpt lat="44.46316604827645" lon="11.17416640810158"><ele>147.5</ele><time>2026-03-22T10:10:11.001Z</time></trkpt><trkpt lat="44.46305753909021" lon="11.173986995120009"><ele>151.0</ele><time>2026-03-22T10:10:12.001Z</time></trkpt><trkpt lat="44.46298348558671" lon="11.173827622632867"><ele>154.5</ele><time>2026-03-22T10:10:13.001Z</time></trkpt><trkpt lat="44.46289121928657" lon="11.173714309141749"><ele>158.0</ele><time>2026-03-22T10:10:14.001Z</time></trkpt><trkpt lat="44.462814141386154" lon="11.173584119870961"><ele>148.66666666666666</ele><time>2026-03-22T10:10:15.001Z</time></trkpt><trkpt lat="44.462751321888206" lon="11.173413202895318"><ele>139.33333333333334</ele><time>2026-03-22T10:10:16.001Z</time></trkpt><trkpt lat="44.46270597842845" lon="11.17319083947181"><ele>130.0</ele><time>2026-03-22T10:10:17.001Z</time></trkpt><trkpt lat="44.462669582439794" lon="11.17291076474046"><ele>130.0</ele><time>2026-03-22T10:10:18.001Z</time></trkpt><trkpt lat="44.46263464958758" lon="11.172633583006316"><ele>130.0</ele><time>2026-03-22T10:10:19.001Z</time></trkpt><trkpt lat="44.462594946949146" lon="11.172399233527807"><ele>130.0</ele><time>2026-03-22T10:10:20.001Z</time></trkpt><trkpt lat="44.462569655408174" lon="11.172189447897981"><ele>131.25</ele><time>2026-03-22T10:10:21.001Z</time></trkpt><trkpt lat="44.46253858370955" lon="11.171997740102269"><ele>132.5</ele><time>2026-03-22T10:10:22.001Z</time></trkpt><trkpt lat="44.462500690903575" lon="11.171818756581123"><ele>133.75</ele><time>2026-03-22T10:10:23.001Z</time></trkpt><trkpt lat="44.46241498894971" lon="11.171648687949912"><ele>135.0</ele><time>2026-03-22T10:10:24.001Z</time></trkpt><trkpt lat="44.46226736436855" lon="11.171503008261649"><ele>138.0</ele><time>2026-03-22T10:10:25.001Z</time></trkpt><trkpt lat="44.4620747636372" lon="11.171335141504343"><ele>141.0</ele><time>2026-03-22T10:10:26.001Z</time></trkpt><trkpt lat="44.461872877393596" lon="11.171150583698303"><ele>141.0</ele><time>2026-03-22T10:10:27.001Z</time></trkpt><trkpt lat="44.46167977653964" lon="11.170963538674895"><ele>141.0</ele><time>2026-03-22T10:10:28.001Z</time></trkpt><trkpt lat="44.461518955402475" lon="11.170804440659689"><ele>141.0</ele><time>2026-03-22T10:10:29.001Z</time></trkpt><trkpt lat="44.461354776317854" lon="11.170649977227761"><ele>143.66666666666666</ele><time>2026-03-22T10:10:30.001Z</time></trkpt><trkpt lat="44.461210183775265" lon="11.17051201825902"><ele>146.33333333333331</ele><time>2026-03-22T10:10:31.001Z</time></trkpt><trkpt lat="44.46108338964482" lon="11.170389699503033"><ele>149.0</ele><time>2026-03-22T10:10:32.001Z</time></trkpt><trkpt lat="44.46097623185331" lon="11.170282629848403"><ele>149.0</ele><time>2026-03-22T10:10:33.001Z</time></trkpt><trkpt lat="44.46087858474314" lon="11.170161912497255"><ele>149.0</ele><time>2026-03-22T10:10:34.001Z</time></trkpt><trkpt lat="44.46077206090271" lon="11.169971547776434"><ele>149.0</ele><time>2026-03-22T10:10:35.001Z</time></trkpt><trkpt lat="44.460647812239515" lon="11.169754351539666"><ele>146.66666666666666</ele><time>2026-03-22T10:10:36.001Z</time></trkpt><trkpt lat="44.460521048151364" lon="11.169537658746698"><ele>144.33333333333334</ele><time>2026-03-22T10:10:37.001Z</time></trkpt><trkpt lat="44.46041214831458" lon="11.169354965451701"><ele>142.0</ele><time>2026-03-22T10:10:38.001Z</time></trkpt><trkpt lat="44.46030842001795" lon="11.16918512462773"><ele>145.25</ele><time>2026-03-22T10:10:39.001Z</time></trkpt><trkpt lat="44.460206272555126" lon="11.169019078681393"><ele>148.5</ele><time>2026-03-22T10:10:40.001Z</time></trkpt><trkpt lat="44.46011215059273" lon="11.168873445810261"><ele>151.75</ele><time>2026-03-22T10:10:41.001Z</time></trkpt><trkpt lat="44.46003579088928" lon="11.168749741023735"><ele>155.0</ele><time>2026-03-22T10:10:42.001Z</time></trkpt><trkpt lat="44.45996910347473" lon="11.168624167727272"><ele>155.0</ele><time>2026-03-22T10:10:43.001Z</time></trkpt><trkpt lat="44.459908150482775" lon="11.16850250418872"><ele>155.0</ele><time>2026-03-22T10:10:44.001Z</time></trkpt><trkpt lat="44.45981014562809" lon="11.168350869984033"><ele>155.0</ele><time>2026-03-22T10:10:45.001Z</time></trkpt><trkpt lat="44.45967280115708" lon="11.168181645979224"><ele>155.0</ele><time>2026-03-22T10:10:46.001Z</time></trkpt><trkpt lat="44.459535989855716" lon="11.168023189665746"><ele>151.75</ele><time>2026-03-22T10:10:47.001Z</time></trkpt><trkpt lat="44.459418746765294" lon="11.167892672479264"><ele>148.5</ele><time>2026-03-22T10:10:48.001Z</time></trkpt><trkpt lat="44.459313143625906" lon="11.167765839496298"><ele>145.25</ele><time>2026-03-22T10:10:49.001Z</time></trkpt><trkpt lat="44.459197295670144" lon="11.167636934903323"><ele>142.0</ele><time>2026-03-22T10:10:50.001Z</time></trkpt><trkpt lat="44.45908779634046" lon="11.16751505745937"><ele>142.0</ele><time>2026-03-22T10:10:51.001Z</time></trkpt><trkpt lat="44.458986317256795" lon="11.167399434746223"><ele>142.0</ele><time>2026-03-22T10:10:52.001Z</time></trkpt><trkpt lat="44.45889783208102" lon="11.167270939151397"><ele>142.0</ele><time>2026-03-22T10:10:53.001Z</time></trkpt><trkpt lat="44.458813436608494" lon="11.167118780946826"><ele>142.0</ele><time>2026-03-22T10:10:54.001Z</time></trkpt><trkpt lat="44.45874322194871" lon="11.166944188605395"><ele>140.5</ele><time>2026-03-22T10:10:55.001Z</time></trkpt><trkpt lat="44.4586899216921" lon="11.166758857983389"><ele>139.0</ele><time>2026-03-22T10:10:56.001Z</time></trkpt><trkpt lat="44.4586524082878" lon="11.166579518747499"><ele>137.5</ele><time>2026-03-22T10:10:57.001Z</time></trkpt><trkpt lat="44.458624605248815" lon="11.166410424913321"><ele>136.0</ele><time>2026-03-22T10:10:58.001Z</time></trkpt><trkpt lat="44.4586149268413" lon="11.166258728340514"><ele>136.0</ele><time>2026-03-22T10:10:59.001Z</time></trkpt><trkpt lat="44.45864655855919" lon="11.166097738194205"><ele>136.0</ele><time>2026-03-22T10:11:00.001Z</time></trkpt><trkpt lat="44.45867519891279" lon="11.165923730058754"><ele>136.0</ele><time>2026-03-22T10:11:01.001Z</time></trkpt><trkpt lat="44.4587238783437" lon="11.165771775227702"><ele>136.0</ele><time>2026-03-22T10:11:02.001Z</time></trkpt><trkpt lat="44.45877039730192" lon="11.165637527321564"><ele>136.5</ele><time>2026-03-22T10:11:03.001Z</time></trkpt><trkpt lat="44.458812625973714" lon="11.165502169277152"><ele>137.0</ele><time>2026-03-22T10:11:04.001Z</time></trkpt><trkpt lat="44.458816300228996" lon="11.165337180799062"><ele>137.5</ele><time>2026-03-22T10:11:05.001Z</time></trkpt><trkpt lat="44.45878214444913" lon="11.165178385688513"><ele>138.0</ele><time>2026-03-22T10:11:06.001Z</time></trkpt><trkpt lat="44.45870858121604" lon="11.165032495415987"><ele>138.0</ele><time>2026-03-22T10:11:07.001Z</time></trkpt><trkpt lat="44.45857706205153" lon="11.1648769659657"><ele>138.0</ele><time>2026-03-22T10:11:08.001Z</time></trkpt><trkpt lat="44.45847069482285" lon="11.164748321206142"><ele>138.0</ele><time>2026-03-22T10:11:09.001Z</time></trkpt><trkpt lat="44.458385358996246" lon="11.164634526801267"><ele>138.0</ele><time>2026-03-22T10:11:10.001Z</time></trkpt><trkpt lat="44.45830696926486" lon="11.164530132975266"><ele>141.25</ele><time>2026-03-22T10:11:11.001Z</time></trkpt><trkpt lat="44.45821434512304" lon="11.164409944351737"><ele>144.5</ele><time>2026-03-22T10:11:12.001Z</time></trkpt><trkpt lat="44.45812619135014" lon="11.164294850873338"><ele>147.75</ele><time>2026-03-22T10:11:13.001Z</time></trkpt><trkpt lat="44.458044550304926" lon="11.164183077456604"><ele>151.0</ele><time>2026-03-22T10:11:14.001Z</time></trkpt><trkpt lat="44.457956722006" lon="11.164058060345226"><ele>149.25</ele><time>2026-03-22T10:11:15.001Z</time></trkpt><trkpt lat="44.457867063593305" lon="11.163950201726012"><ele>147.5</ele><time>2026-03-22T10:11:16.001Z</time></trkpt><trkpt lat="44.45778100231103" lon="11.163828283038768"><ele>145.75</ele><time>2026-03-22T10:11:17.001Z</time></trkpt><trkpt lat="44.45770616074115" lon="11.16368718451659"><ele>144.0</ele><time>2026-03-22T10:11:18.001Z</time></trkpt><trkpt lat="44.457638698770005" lon="11.16352259463665"><ele>144.0</ele><time>2026-03-22T10:11:19.001Z</time></trkpt><trkpt lat="44.45758713406381" lon="11.163346347508035"><ele>144.0</ele><time>2026-03-22T10:11:20.001Z</time></trkpt><trkpt lat="44.45754380150726" lon="11.163174234477035"><ele>144.0</ele><time>2026-03-22T10:11:21.001Z</time></trkpt><trkpt lat="44.45750878111279" lon="11.162995372918886"><ele>144.0</ele><time>2026-03-22T10:11:22.001Z</time></trkpt><trkpt lat="44.45747571273733" lon="11.162811847429033"><ele>146.25</ele><time>2026-03-22T10:11:23.001Z</time></trkpt><trkpt lat="44.457462612377775" lon="11.162623297135564"><ele>148.5</ele><time>2026-03-22T10:11:24.001Z</time></trkpt><trkpt lat="44.457453803367784" lon="11.162448232633311"><ele>150.75</ele><time>2026-03-22T10:11:25.001Z</time></trkpt><trkpt lat="44.457419676144134" lon="11.162275801340188"><ele>153.0</ele><time>2026-03-22T10:11:26.001Z</time></trkpt><trkpt lat="44.457340243912185" lon="11.162102413574617"><ele>150.5</ele><time>2026-03-22T10:11:27.001Z</time></trkpt><trkpt lat="44.457236918940545" lon="11.161954987061671"><ele>148.0</ele><time>2026-03-22T10:11:28.001Z</time></trkpt><trkpt lat="44.4571467133116" lon="11.16184411185117"><ele>145.5</ele><time>2026-03-22T10:11:29.001Z</time></trkpt><trkpt lat="44.45707365171634" lon="11.161717101189712"><ele>143.0</ele><time>2026-03-22T10:11:30.001Z</time></trkpt><trkpt lat="44.45700570936436" lon="11.161561328031107"><ele>146.0</ele><time>2026-03-22T10:11:31.001Z</time></trkpt><trkpt lat="44.45693374671991" lon="11.161394739407294"><ele>149.0</ele><time>2026-03-22T10:11:32.001Z</time></trkpt><trkpt lat="44.4568568520428" lon="11.161246031952189"><ele>152.0</ele><time>2026-03-22T10:11:33.001Z</time></trkpt><trkpt lat="44.456767510973194" lon="11.161099588601887"><ele>155.0</ele><time>2026-03-22T10:11:34.001Z</time></trkpt><trkpt lat="44.45666972214532" lon="11.160968007320971"><ele>155.0</ele><time>2026-03-22T10:11:35.001Z</time></trkpt><trkpt lat="44.456574880502444" lon="11.160851996162897"><ele>155.0</ele><time>2026-03-22T10:11:36.001Z</time></trkpt><trkpt lat="44.456478801184375" lon="11.160736343891989"><ele>155.0</ele><time>2026-03-22T10:11:37.001Z</time></trkpt><trkpt lat="44.45638237179415" lon="11.160613435349678"><ele>155.0</ele><time>2026-03-22T10:11:38.001Z</time></trkpt><trkpt lat="44.45628052649393" lon="11.160491788054443"><ele>154.75</ele><time>2026-03-22T10:11:39.001Z</time></trkpt><trkpt lat="44.456175041379915" lon="11.160370559310076"><ele>154.5</ele><time>2026-03-22T10:11:40.001Z</time></trkpt><trkpt lat="44.45607303675709" lon="11.160258569202039"><ele>154.25</ele><time>2026-03-22T10:11:41.001Z</time></trkpt><trkpt lat="44.455983039633615" lon="11.160163543671187"><ele>154.0</ele><time>2026-03-22T10:11:42.001Z</time></trkpt><trkpt lat="44.455905942925995" lon="11.160092944233092"><ele>154.0</ele><time>2026-03-22T10:11:43.001Z</time></trkpt><trkpt lat="44.455847084846944" lon="11.160040859863999"><ele>154.0</ele><time>2026-03-22T10:11:44.001Z</time></trkpt><trkpt lat="44.4557920079437" lon="11.159984396366408"><ele>154.0</ele><time>2026-03-22T10:11:48.001Z</time></trkpt><trkpt lat="44.45565857291539" lon="11.159833156559321"><ele>154.0</ele><time>2026-03-22T10:11:50.001Z</time></trkpt><trkpt lat="44.4555120628043" lon="11.159692440187081"><ele>156.0</ele><time>2026-03-22T10:11:51.001Z</time></trkpt><trkpt lat="44.4553479245553" lon="11.159552700605119"><ele>158.0</ele><time>2026-03-22T10:11:52.001Z</time></trkpt><trkpt lat="44.45520474386716" lon="11.159459976911304"><ele>160.0</ele><time>2026-03-22T10:11:53.001Z</time></trkpt><trkpt lat="44.4550741866034" lon="11.159394136867975"><ele>160.0</ele><time>2026-03-22T10:11:54.001Z</time></trkpt><trkpt lat="44.45495850623486" lon="11.159340484268853"><ele>160.0</ele><time>2026-03-22T10:11:55.001Z</time></trkpt><trkpt lat="44.45487408866995" lon="11.159260235178063"><ele>160.0</ele><time>2026-03-22T10:11:56.001Z</time></trkpt><trkpt lat="44.45479825675219" lon="11.159135847522833"><ele>160.0</ele><time>2026-03-22T10:11:57.001Z</time></trkpt><trkpt lat="44.45474830736106" lon="11.158970269238896"><ele>156.75</ele><time>2026-03-22T10:11:58.001Z</time></trkpt><trkpt lat="44.454733697876165" lon="11.15876072045109"><ele>153.5</ele><time>2026-03-22T10:11:59.001Z</time></trkpt><trkpt lat="44.45473313160565" lon="11.158560213295834"><ele>150.25</ele><time>2026-03-22T10:12:00.001Z</time></trkpt><trkpt lat="44.45468008251686" lon="11.158396061905018"><ele>147.0</ele><time>2026-03-22T10:12:01.001Z</time></trkpt><trkpt lat="44.45455878562196" lon="11.158254085605968"><ele>149.66666666666666</ele><time>2026-03-22T10:12:02.001Z</time></trkpt><trkpt lat="44.454388605062555" lon="11.158132933051707"><ele>152.33333333333331</ele><time>2026-03-22T10:12:03.001Z</time></trkpt><trkpt lat="44.454224476825075" lon="11.157990764433961"><ele>155.0</ele><time>2026-03-22T10:12:04.001Z</time></trkpt><trkpt lat="44.454107934839584" lon="11.157824090823286"><ele>155.0</ele><time>2026-03-22T10:12:05.001Z</time></trkpt><trkpt lat="44.454000297288204" lon="11.157629342877"><ele>155.0</ele><time>2026-03-22T10:12:06.001Z</time></trkpt><trkpt lat="44.45388738631949" lon="11.157433023248355"><ele>155.0</ele><time>2026-03-22T10:12:07.001Z</time></trkpt><trkpt lat="44.453794866576075" lon="11.15728121186357"><ele>155.25</ele><time>2026-03-22T10:12:08.001Z</time></trkpt><trkpt lat="44.45371813916239" lon="11.15715172889634"><ele>155.5</ele><time>2026-03-22T10:12:09.001Z</time></trkpt><trkpt lat="44.45364749464515" lon="11.157035213668902"><ele>155.75</ele><time>2026-03-22T10:12:10.001Z</time></trkpt><trkpt lat="44.453575062258174" lon="11.156912077334423"><ele>156.0</ele><time>2026-03-22T10:12:11.001Z</time></trkpt><trkpt lat="44.45351098346394" lon="11.15676447728462"><ele>156.0</ele><time>2026-03-22T10:12:12.001Z</time></trkpt><trkpt lat="44.45345828926516" lon="11.15659208846311"><ele>156.0</ele><time>2026-03-22T10:12:13.001Z</time></trkpt><trkpt lat="44.45342622371625" lon="11.156439795527817"><ele>156.0</ele><time>2026-03-22T10:12:14.001Z</time></trkpt><trkpt lat="44.45339344921295" lon="11.15630343597895"><ele>156.0</ele><time>2026-03-22T10:12:15.001Z</time></trkpt><trkpt lat="44.45334004063701" lon="11.156141462656903"><ele>157.25</ele><time>2026-03-22T10:12:16.001Z</time></trkpt><trkpt lat="44.453278401026886" lon="11.155996915653494"><ele>158.5</ele><time>2026-03-22T10:12:17.001Z</time></trkpt><trkpt lat="44.453212623585976" lon="11.155868722504323"><ele>159.75</ele><time>2026-03-22T10:12:18.001Z</time></trkpt><trkpt lat="44.453137025919155" lon="11.155744081757142"><ele>161.0</ele><time>2026-03-22T10:12:19.001Z</time></trkpt><trkpt lat="44.453056949461605" lon="11.155633007135641"><ele>161.4</ele><time>2026-03-22T10:12:20.001Z</time></trkpt><trkpt lat="44.452978189637584" lon="11.155531902147032"><ele>161.8</ele><time>2026-03-22T10:12:21.001Z</time></trkpt><trkpt lat="44.452885960639655" lon="11.155438549801156"><ele>162.20000000000002</ele><time>2026-03-22T10:12:22.001Z</time></trkpt><trkpt lat="44.45278670009909" lon="11.155354887228201"><ele>162.60000000000002</ele><time>2026-03-22T10:12:23.001Z</time></trkpt><trkpt lat="44.45269095331268" lon="11.15528387749452"><ele>163.0</ele><time>2026-03-22T10:12:24.001Z</time></trkpt><trkpt lat="44.452603229451995" lon="11.155214682525466"><ele>163.0</ele><time>2026-03-22T10:12:25.001Z</time></trkpt><trkpt lat="44.452519865929034" lon="11.155131930965037"><ele>163.0</ele><time>2026-03-22T10:12:26.001Z</time></trkpt><trkpt lat="44.452447956246246" lon="11.155024314378407"><ele>163.0</ele><time>2026-03-22T10:12:27.001Z</time></trkpt><trkpt lat="44.45238321355963" lon="11.15489513637414"><ele>163.0</ele><time>2026-03-22T10:12:28.001Z</time></trkpt><trkpt lat="44.4523280272237" lon="11.154753066833191"><ele>163.0</ele><time>2026-03-22T10:12:29.001Z</time></trkpt><trkpt lat="44.45228517827549" lon="11.154605550047012"><ele>165.25</ele><time>2026-03-22T10:12:30.001Z</time></trkpt><trkpt lat="44.45223034034882" lon="11.154457237464756"><ele>167.5</ele><time>2026-03-22T10:12:31.001Z</time></trkpt><trkpt lat="44.45216829503511" lon="11.154319650758723"><ele>169.75</ele><time>2026-03-22T10:12:32.001Z</time></trkpt><trkpt lat="44.45209651351381" lon="11.15419862028936"><ele>172.0</ele><time>2026-03-22T10:12:33.001Z</time></trkpt><trkpt lat="44.45201623472637" lon="11.154080482692132"><ele>170.0</ele><time>2026-03-22T10:12:34.001Z</time></trkpt><trkpt lat="44.451935584494564" lon="11.153978584798617"><ele>168.0</ele><time>2026-03-22T10:12:35.001Z</time></trkpt><trkpt lat="44.45186715751199" lon="11.153888982589255"><ele>166.0</ele><time>2026-03-22T10:12:36.001Z</time></trkpt><trkpt lat="44.451806695559874" lon="11.15381142318787"><ele>164.0</ele><time>2026-03-22T10:12:37.001Z</time></trkpt><trkpt lat="44.451752695609315" lon="11.15373742386565"><ele>162.0</ele><time>2026-03-22T10:12:38.001Z</time></trkpt><trkpt lat="44.45171024581506" lon="11.153665260624022"><ele>160.0</ele><time>2026-03-22T10:12:39.001Z</time></trkpt><trkpt lat="44.45167179448437" lon="11.15359322632929"><ele>160.0</ele><time>2026-03-22T10:12:40.001Z</time></trkpt><trkpt lat="44.451641085547564" lon="11.153504433857469"><ele>160.0</ele><time>2026-03-22T10:12:41.001Z</time></trkpt><trkpt lat="44.451600595356815" lon="11.153389050175033"><ele>160.0</ele><time>2026-03-22T10:12:42.001Z</time></trkpt><trkpt lat="44.45157024693183" lon="11.153262038831182"><ele>160.0</ele><time>2026-03-22T10:12:43.001Z</time></trkpt><trkpt lat="44.451552065540405" lon="11.15312798547426"><ele>160.0</ele><time>2026-03-22T10:12:44.001Z</time></trkpt><trkpt lat="44.45153278763505" lon="11.152981364494796"><ele>158.8</ele><time>2026-03-22T10:12:45.001Z</time></trkpt><trkpt lat="44.45151074099152" lon="11.152834883456764"><ele>157.6</ele><time>2026-03-22T10:12:46.001Z</time></trkpt><trkpt lat="44.4514880681038" lon="11.152685281315076"><ele>156.4</ele><time>2026-03-22T10:12:47.001Z</time></trkpt><trkpt lat="44.45144889705991" lon="11.152548432056445"><ele>155.2</ele><time>2026-03-22T10:12:48.001Z</time></trkpt><trkpt lat="44.45136550270435" lon="11.152424360258737"><ele>154.0</ele><time>2026-03-22T10:12:49.001Z</time></trkpt><trkpt lat="44.45127662078492" lon="11.152335208508463"><ele>154.0</ele><time>2026-03-22T10:12:50.001Z</time></trkpt><trkpt lat="44.45119419464989" lon="11.15224837008593"><ele>154.0</ele><time>2026-03-22T10:12:51.001Z</time></trkpt><trkpt lat="44.451112602417616" lon="11.152139017397916"><ele>154.0</ele><time>2026-03-22T10:12:52.001Z</time></trkpt><trkpt lat="44.45103455376657" lon="11.15201796149594"><ele>154.0</ele><time>2026-03-22T10:12:53.001Z</time></trkpt><trkpt lat="44.45096723103853" lon="11.151892586674869"><ele>154.0</ele><time>2026-03-22T10:12:54.001Z</time></trkpt><trkpt lat="44.45091083119483" lon="11.151767453706952"><ele>154.0</ele><time>2026-03-22T10:12:55.001Z</time></trkpt><trkpt lat="44.450863122497" lon="11.151631069136647"><ele>154.0</ele><time>2026-03-22T10:12:56.001Z</time></trkpt><trkpt lat="44.450820664744654" lon="11.151481440344103"><ele>154.0</ele><time>2026-03-22T10:12:57.001Z</time></trkpt><trkpt lat="44.450781268903434" lon="11.15133567742422"><ele>154.0</ele><time>2026-03-22T10:12:58.001Z</time></trkpt><trkpt lat="44.450742979078505" lon="11.15120898397797"><ele>154.0</ele><time>2026-03-22T10:12:59.001Z</time></trkpt><trkpt lat="44.45071695672505" lon="11.151086779691626"><ele>154.8</ele><time>2026-03-22T10:13:00.001Z</time></trkpt><trkpt lat="44.45070516834178" lon="11.150952949704866"><ele>155.60000000000002</ele><time>2026-03-22T10:13:01.001Z</time></trkpt><trkpt lat="44.45071785916753" lon="11.150819962051743"><ele>156.4</ele><time>2026-03-22T10:13:02.001Z</time></trkpt><trkpt lat="44.450759538325954" lon="11.15066682790795"><ele>157.20000000000002</ele><time>2026-03-22T10:13:03.001Z</time></trkpt><trkpt lat="44.45081614667563" lon="11.150503199465025"><ele>158.0</ele><time>2026-03-22T10:13:04.001Z</time></trkpt><trkpt lat="44.45086429042052" lon="11.150352233231523"><ele>158.0</ele><time>2026-03-22T10:13:05.001Z</time></trkpt><trkpt lat="44.4509176583041" lon="11.150224328119629"><ele>158.0</ele><time>2026-03-22T10:13:06.001Z</time></trkpt><trkpt lat="44.4509735034038" lon="11.150098121452462"><ele>158.0</ele><time>2026-03-22T10:13:07.001Z</time></trkpt><trkpt lat="44.45102843968228" lon="11.149967772101013"><ele>158.0</ele><time>2026-03-22T10:13:08.001Z</time></trkpt><trkpt lat="44.45109040846353" lon="11.149838034749154"><ele>158.0</ele><time>2026-03-22T10:13:09.001Z</time></trkpt><trkpt lat="44.45115611035845" lon="11.149714647689278"><ele>157.75</ele><time>2026-03-22T10:13:10.001Z</time></trkpt><trkpt lat="44.45122257596109" lon="11.149596963477142"><ele>157.5</ele><time>2026-03-22T10:13:11.001Z</time></trkpt><trkpt lat="44.45128487734518" lon="11.149455239761432"><ele>157.25</ele><time>2026-03-22T10:13:12.001Z</time></trkpt><trkpt lat="44.4513281491898" lon="11.149279449357415"><ele>157.0</ele><time>2026-03-22T10:13:13.001Z</time></trkpt><trkpt lat="44.45135219507872" lon="11.149049878229071"><ele>158.66666666666669</ele><time>2026-03-22T10:13:14.001Z</time></trkpt><trkpt lat="44.45138252512166" lon="11.148750969360941"><ele>160.33333333333334</ele><time>2026-03-22T10:13:15.001Z</time></trkpt><trkpt lat="44.45143842223098" lon="11.148459862063808"><ele>162.0</ele><time>2026-03-22T10:13:16.001Z</time></trkpt><trkpt lat="44.45150675024835" lon="11.148234159896486"><ele>162.0</ele><time>2026-03-22T10:13:17.001Z</time></trkpt><trkpt lat="44.45154840057732" lon="11.148059556974317"><ele>162.0</ele><time>2026-03-22T10:13:18.001Z</time></trkpt><trkpt lat="44.45158353448398" lon="11.147900746164014"><ele>162.0</ele><time>2026-03-22T10:13:19.001Z</time></trkpt><trkpt lat="44.45165823792255" lon="11.147706517857268"><ele>162.0</ele><time>2026-03-22T10:13:20.001Z</time></trkpt><trkpt lat="44.4517296872823" lon="11.147534225196903"><ele>162.0</ele><time>2026-03-22T10:13:21.001Z</time></trkpt><trkpt lat="44.451790846435735" lon="11.14737908101246"><ele>162.0</ele><time>2026-03-22T10:13:22.001Z</time></trkpt><trkpt lat="44.45184207600204" lon="11.14720531759085"><ele>162.0</ele><time>2026-03-22T10:13:23.001Z</time></trkpt><trkpt lat="44.45183816247398" lon="11.146974400879305"><ele>162.0</ele><time>2026-03-22T10:13:24.001Z</time></trkpt><trkpt lat="44.45184709804535" lon="11.146794149538573"><ele>162.0</ele><time>2026-03-22T10:13:25.001Z</time></trkpt><trkpt lat="44.451892485333595" lon="11.146611553416816"><ele>162.0</ele><time>2026-03-22T10:13:26.001Z</time></trkpt><trkpt lat="44.452006422167145" lon="11.14636756726142"><ele>162.0</ele><time>2026-03-22T10:13:27.001Z</time></trkpt><trkpt lat="44.45213624705181" lon="11.146092858569693"><ele>162.33333333333334</ele><time>2026-03-22T10:13:28.001Z</time></trkpt><trkpt lat="44.4522223724139" lon="11.145848649114473"><ele>162.66666666666669</ele><time>2026-03-22T10:13:29.001Z</time></trkpt><trkpt lat="44.452278900287915" lon="11.145640113511721"><ele>163.0</ele><time>2026-03-22T10:13:30.001Z</time></trkpt><trkpt lat="44.45231919177265" lon="11.145447863256951"><ele>163.0</ele><time>2026-03-22T10:13:31.001Z</time></trkpt><trkpt lat="44.45235320354348" lon="11.145273997203276"><ele>163.0</ele><time>2026-03-22T10:13:32.001Z</time></trkpt><trkpt lat="44.45240189190879" lon="11.145103803992999"><ele>163.0</ele><time>2026-03-22T10:13:33.001Z</time></trkpt><trkpt lat="44.45247702184929" lon="11.144947548308455"><ele>163.0</ele><time>2026-03-22T10:13:34.001Z</time></trkpt><trkpt lat="44.45256202656857" lon="11.144801003580524"><ele>164.0</ele><time>2026-03-22T10:13:35.001Z</time></trkpt><trkpt lat="44.45261218023942" lon="11.144622584271598"><ele>165.0</ele><time>2026-03-22T10:13:36.001Z</time></trkpt><trkpt lat="44.45258804404297" lon="11.144398095410097"><ele>166.0</ele><time>2026-03-22T10:13:37.001Z</time></trkpt><trkpt lat="44.45256113491028" lon="11.14420424606628"><ele>167.0</ele><time>2026-03-22T10:13:38.001Z</time></trkpt><trkpt lat="44.452550805401025" lon="11.144050071018944"><ele>166.25</ele><time>2026-03-22T10:13:39.001Z</time></trkpt><trkpt lat="44.452587449694136" lon="11.143884818517657"><ele>165.5</ele><time>2026-03-22T10:13:40.001Z</time></trkpt><trkpt lat="44.452668254262996" lon="11.143670602193383"><ele>164.75</ele><time>2026-03-22T10:13:41.001Z</time></trkpt><trkpt lat="44.45273495106071" lon="11.143478767192923"><ele>164.0</ele><time>2026-03-22T10:13:42.001Z</time></trkpt><trkpt lat="44.45276636739469" lon="11.143313582827409"><ele>164.0</ele><time>2026-03-22T10:13:43.001Z</time></trkpt><trkpt lat="44.452773636531326" lon="11.143136549645662"><ele>164.0</ele><time>2026-03-22T10:13:44.001Z</time></trkpt><trkpt lat="44.45276532221173" lon="11.142938261730082"><ele>164.0</ele><time>2026-03-22T10:13:45.001Z</time></trkpt><trkpt lat="44.45273276221294" lon="11.142755530146083"><ele>164.0</ele><time>2026-03-22T10:13:46.001Z</time></trkpt><trkpt lat="44.45268434914401" lon="11.142583004035851"><ele>164.0</ele><time>2026-03-22T10:13:47.001Z</time></trkpt><trkpt lat="44.452613363697836" lon="11.142389795647356"><ele>164.0</ele><time>2026-03-22T10:13:48.001Z</time></trkpt><trkpt lat="44.45251621647571" lon="11.142207567162409"><ele>164.0</ele><time>2026-03-22T10:13:49.001Z</time></trkpt><trkpt lat="44.4524213122165" lon="11.14204179697878"><ele>164.75</ele><time>2026-03-22T10:13:50.001Z</time></trkpt><trkpt lat="44.45235446178515" lon="11.141883993431128"><ele>165.5</ele><time>2026-03-22T10:13:51.001Z</time></trkpt><trkpt lat="44.45229154729043" lon="11.141720309914863"><ele>166.25</ele><time>2026-03-22T10:13:52.001Z</time></trkpt><trkpt lat="44.452242297982195" lon="11.141561854990725"><ele>167.0</ele><time>2026-03-22T10:13:53.001Z</time></trkpt><trkpt lat="44.45220036936301" lon="11.141384157781209"><ele>167.5</ele><time>2026-03-22T10:13:54.001Z</time></trkpt><trkpt lat="44.4521677923718" lon="11.141199703177339"><ele>168.0</ele><time>2026-03-22T10:13:55.001Z</time></trkpt><trkpt lat="44.4521401538655" lon="11.141002592376637"><ele>168.5</ele><time>2026-03-22T10:13:56.001Z</time></trkpt><trkpt lat="44.4521134019448" lon="11.140802994707522"><ele>169.0</ele><time>2026-03-22T10:13:57.001Z</time></trkpt><trkpt lat="44.45209461291049" lon="11.140627324716723"><ele>169.0</ele><time>2026-03-22T10:13:58.001Z</time></trkpt><trkpt lat="44.4520827476963" lon="11.140463160122994"><ele>169.0</ele><time>2026-03-22T10:13:59.001Z</time></trkpt><trkpt lat="44.452081828165966" lon="11.140289966512695"><ele>169.0</ele><time>2026-03-22T10:14:00.001Z</time></trkpt><trkpt lat="44.45209542556692" lon="11.140112512182972"><ele>169.0</ele><time>2026-03-22T10:14:01.001Z</time></trkpt><trkpt lat="44.45211343635023" lon="11.13993951767442"><ele>170.75</ele><time>2026-03-22T10:14:02.001Z</time></trkpt><trkpt lat="44.452126930015346" lon="11.139796915163068"><ele>172.5</ele><time>2026-03-22T10:14:03.001Z</time></trkpt><trkpt lat="44.45214638559937" lon="11.139663525770777"><ele>174.25</ele><time>2026-03-22T10:14:04.001Z</time></trkpt><trkpt lat="44.45221033107147" lon="11.139524841406667"><ele>176.0</ele><time>2026-03-22T10:14:05.001Z</time></trkpt><trkpt lat="44.45232414162537" lon="11.139370011429238"><ele>176.0</ele><time>2026-03-22T10:14:06.001Z</time></trkpt><trkpt lat="44.45245381341263" lon="11.139180432846818"><ele>176.0</ele><time>2026-03-22T10:14:07.001Z</time></trkpt><trkpt lat="44.45258198339231" lon="11.13896411787166"><ele>176.0</ele><time>2026-03-22T10:14:08.001Z</time></trkpt><trkpt lat="44.45268172073056" lon="11.138783660420657"><ele>177.75</ele><time>2026-03-22T10:14:09.001Z</time></trkpt><trkpt lat="44.45276078896894" lon="11.13861211833295"><ele>179.5</ele><time>2026-03-22T10:14:10.001Z</time></trkpt><trkpt lat="44.45284063398073" lon="11.138450227364679"><ele>181.25</ele><time>2026-03-22T10:14:11.001Z</time></trkpt><trkpt lat="44.452938662696646" lon="11.13830190770239"><ele>183.0</ele><time>2026-03-22T10:14:12.001Z</time></trkpt><trkpt lat="44.453087014308736" lon="11.13813079802037"><ele>184.0</ele><time>2026-03-22T10:14:13.001Z</time></trkpt><trkpt lat="44.453243194871234" lon="11.137913878044579"><ele>185.0</ele><time>2026-03-22T10:14:14.001Z</time></trkpt><trkpt lat="44.45339054515976" lon="11.137736896474017"><ele>186.0</ele><time>2026-03-22T10:14:15.001Z</time></trkpt><trkpt lat="44.45350504532655" lon="11.137568944369661"><ele>188.66666666666669</ele><time>2026-03-22T10:14:16.001Z</time></trkpt><trkpt lat="44.45361564348217" lon="11.137359479376453"><ele>191.33333333333334</ele><time>2026-03-22T10:14:17.001Z</time></trkpt><trkpt lat="44.45372010524908" lon="11.137119826728787"><ele>194.0</ele><time>2026-03-22T10:14:18.001Z</time></trkpt><trkpt lat="44.453815162996214" lon="11.13689973544208"><ele>194.66666666666669</ele><time>2026-03-22T10:14:19.001Z</time></trkpt><trkpt lat="44.453895822928565" lon="11.136687496766557"><ele>195.33333333333331</ele><time>2026-03-22T10:14:20.001Z</time></trkpt><trkpt lat="44.45396268694035" lon="11.136491877422937"><ele>196.0</ele><time>2026-03-22T10:14:21.001Z</time></trkpt><trkpt lat="44.45402363748858" lon="11.136317091267028"><ele>196.0</ele><time>2026-03-22T10:14:22.001Z</time></trkpt><trkpt lat="44.454072674686714" lon="11.136127158328513"><ele>196.0</ele><time>2026-03-22T10:14:23.001Z</time></trkpt><trkpt lat="44.45409171212836" lon="11.135916447631118"><ele>196.0</ele><time>2026-03-22T10:14:24.001Z</time></trkpt><trkpt lat="44.45406446192291" lon="11.135699601228726"><ele>200.66666666666666</ele><time>2026-03-22T10:14:25.001Z</time></trkpt><trkpt lat="44.4540163218391" lon="11.13547316943534"><ele>205.33333333333331</ele><time>2026-03-22T10:14:26.001Z</time></trkpt><trkpt lat="44.45399710533346" lon="11.135254940465083"><ele>210.0</ele><time>2026-03-22T10:14:27.001Z</time></trkpt><trkpt lat="44.45398001079857" lon="11.13505411012604"><ele>212.0</ele><time>2026-03-22T10:14:28.001Z</time></trkpt><trkpt lat="44.45397079061508" lon="11.13481441916042"><ele>214.0</ele><time>2026-03-22T10:14:29.001Z</time></trkpt><trkpt lat="44.4539821674933" lon="11.134547649558808"><ele>216.0</ele><time>2026-03-22T10:14:30.001Z</time></trkpt><trkpt lat="44.4540046070151" lon="11.13434014027557"><ele>216.0</ele><time>2026-03-22T10:14:31.001Z</time></trkpt><trkpt lat="44.4540181452634" lon="11.134176523173299"><ele>216.0</ele><time>2026-03-22T10:14:32.001Z</time></trkpt><trkpt lat="44.45399730175235" lon="11.1339941801749"><ele>216.0</ele><time>2026-03-22T10:14:33.001Z</time></trkpt><trkpt lat="44.45394154978013" lon="11.133833505758679"><ele>216.0</ele><time>2026-03-22T10:14:34.001Z</time></trkpt><trkpt lat="44.45389297492849" lon="11.133708299379458"><ele>218.16666666666666</ele><time>2026-03-22T10:14:35.001Z</time></trkpt><trkpt lat="44.45386141767403" lon="11.133625445551015"><ele>220.33333333333331</ele><time>2026-03-22T10:14:36.001Z</time></trkpt><trkpt lat="44.45380539727865" lon="11.13358218858242"><ele>222.5</ele><time>2026-03-22T10:14:37.001Z</time></trkpt><trkpt lat="44.45374297150013" lon="11.133569101474167"><ele>224.66666666666666</ele><time>2026-03-22T10:14:38.001Z</time></trkpt><trkpt lat="44.453666166429436" lon="11.133686777166746"><ele>226.83333333333331</ele><time>2026-03-22T10:14:39.001Z</time></trkpt><trkpt lat="44.45363661390562" lon="11.13380835557101"><ele>229.0</ele><time>2026-03-22T10:14:40.001Z</time></trkpt><trkpt lat="44.453603326221355" lon="11.133893395705655"><ele>230.0</ele><time>2026-03-22T10:14:42.001Z</time></trkpt><trkpt lat="44.453553183186635" lon="11.133753298268601"><ele>231.0</ele><time>2026-03-22T10:14:44.001Z</time></trkpt><trkpt lat="44.45356892724722" lon="11.133559886154917"><ele>232.0</ele><time>2026-03-22T10:14:45.001Z</time></trkpt><trkpt lat="44.4535737684937" lon="11.13331155795632"><ele>233.0</ele><time>2026-03-22T10:14:46.001Z</time></trkpt><trkpt lat="44.45357102054733" lon="11.13313578440158"><ele>234.16666666666669</ele><time>2026-03-22T10:14:47.001Z</time></trkpt><trkpt lat="44.45357210394155" lon="11.132999791343448"><ele>235.33333333333334</ele><time>2026-03-22T10:14:48.001Z</time></trkpt><trkpt lat="44.453595570126296" lon="11.132894522316754"><ele>236.5</ele><time>2026-03-22T10:14:49.001Z</time></trkpt><trkpt lat="44.4536508626948" lon="11.13282093982022"><ele>237.66666666666669</ele><time>2026-03-22T10:14:50.001Z</time></trkpt><trkpt lat="44.453722403397286" lon="11.132784674344233"><ele>238.83333333333334</ele><time>2026-03-22T10:14:51.001Z</time></trkpt><trkpt lat="44.453805428833206" lon="11.132892480961944"><ele>240.0</ele><time>2026-03-22T10:14:52.001Z</time></trkpt><trkpt lat="44.453913478914814" lon="11.132980862907635"><ele>240.4</ele><time>2026-03-22T10:14:53.001Z</time></trkpt><trkpt lat="44.45401888537877" lon="11.133068087310766"><ele>240.8</ele><time>2026-03-22T10:14:54.001Z</time></trkpt><trkpt lat="44.45407984483992" lon="11.13311562344923"><ele>241.2</ele><time>2026-03-22T10:14:55.001Z</time></trkpt><trkpt lat="44.45417062720534" lon="11.133072379976523"><ele>241.6</ele><time>2026-03-22T10:14:57.001Z</time></trkpt><trkpt lat="44.45417971929602" lon="11.132976082745401"><ele>242.0</ele><time>2026-03-22T10:14:58.001Z</time></trkpt><trkpt lat="44.45413716144098" lon="11.132858230776135"><ele>242.0</ele><time>2026-03-22T10:14:59.001Z</time></trkpt><trkpt lat="44.45404044736143" lon="11.132724053026703"><ele>242.0</ele><time>2026-03-22T10:15:00.001Z</time></trkpt><trkpt lat="44.45393393728758" lon="11.132523241244707"><ele>242.0</ele><time>2026-03-22T10:15:01.001Z</time></trkpt><trkpt lat="44.453861178175266" lon="11.132320277116406"><ele>244.0</ele><time>2026-03-22T10:15:02.001Z</time></trkpt><trkpt lat="44.45381765228695" lon="11.132160976432095"><ele>246.0</ele><time>2026-03-22T10:15:03.001Z</time></trkpt><trkpt lat="44.45377596567075" lon="11.132051098679847"><ele>248.0</ele><time>2026-03-22T10:15:04.001Z</time></trkpt><trkpt lat="44.453680173688916" lon="11.131981095193101"><ele>250.0</ele><time>2026-03-22T10:15:05.001Z</time></trkpt><trkpt lat="44.453550001511566" lon="11.131955793626943"><ele>250.0</ele><time>2026-03-22T10:15:06.001Z</time></trkpt><trkpt lat="44.453428843028064" lon="11.131984599873972"><ele>250.0</ele><time>2026-03-22T10:15:07.001Z</time></trkpt><trkpt lat="44.45334596068411" lon="11.131998021846181"><ele>250.0</ele><time>2026-03-22T10:15:08.001Z</time></trkpt><trkpt lat="44.45328415213862" lon="11.131868025445637"><ele>250.0</ele><time>2026-03-22T10:15:10.001Z</time></trkpt><trkpt lat="44.453318862806604" lon="11.131777172217648"><ele>250.0</ele><time>2026-03-22T10:15:11.001Z</time></trkpt><trkpt lat="44.45341532554353" lon="11.131693001019308"><ele>250.0</ele><time>2026-03-22T10:15:12.001Z</time></trkpt><trkpt lat="44.45356402599264" lon="11.131652512851412"><ele>250.0</ele><time>2026-03-22T10:15:13.001Z</time></trkpt><trkpt lat="44.45373921560355" lon="11.131643050852642"><ele>250.0</ele><time>2026-03-22T10:15:14.001Z</time></trkpt><trkpt lat="44.453902429740616" lon="11.131627672489477"><ele>251.75</ele><time>2026-03-22T10:15:15.001Z</time></trkpt><trkpt lat="44.454024639477986" lon="11.131594834310759"><ele>253.5</ele><time>2026-03-22T10:15:16.001Z</time></trkpt><trkpt lat="44.454125436685615" lon="11.131572032160923"><ele>255.25</ele><time>2026-03-22T10:15:16.999Z</time></trkpt><trkpt lat="44.45423527413322" lon="11.131610662787864"><ele>257.0</ele><time>2026-03-22T10:15:17.999Z</time></trkpt><trkpt lat="44.45435073190134" lon="11.131729422250672"><ele>257.0</ele><time>2026-03-22T10:15:18.999Z</time></trkpt><trkpt lat="44.45447971934727" lon="11.131904608838719"><ele>257.0</ele><time>2026-03-22T10:15:19.999Z</time></trkpt><trkpt lat="44.45460337129134" lon="11.132040980766522"><ele>257.0</ele><time>2026-03-22T10:15:20.999Z</time></trkpt><trkpt lat="44.45474182758317" lon="11.132144949094805"><ele>259.0</ele><time>2026-03-22T10:15:21.999Z</time></trkpt><trkpt lat="44.454938938632914" lon="11.132225907199008"><ele>261.0</ele><time>2026-03-22T10:15:22.999Z</time></trkpt><trkpt lat="44.45516721796188" lon="11.13232167003974"><ele>263.0</ele><time>2026-03-22T10:15:23.999Z</time></trkpt><trkpt lat="44.45539200729408" lon="11.132453644187125"><ele>268.33333333333337</ele><time>2026-03-22T10:15:24.999Z</time></trkpt><trkpt lat="44.45557667274716" lon="11.132573622570218"><ele>273.6666666666667</ele><time>2026-03-22T10:15:25.999Z</time></trkpt><trkpt lat="44.45571526901079" lon="11.132664837786788"><ele>279.0</ele><time>2026-03-22T10:15:26.999Z</time></trkpt><trkpt lat="44.45582202242085" lon="11.132727509651938"><ele>279.0</ele><time>2026-03-22T10:15:27.999Z</time></trkpt><trkpt lat="44.45591880569896" lon="11.1327675984823"><ele>279.0</ele><time>2026-03-22T10:15:28.999Z</time></trkpt><trkpt lat="44.45598969923789" lon="11.1327810244951"><ele>279.0</ele><time>2026-03-22T10:15:29.999Z</time></trkpt><trkpt lat="44.456054446731045" lon="11.132767277924865"><ele>279.0</ele><time>2026-03-22T10:15:30.999Z</time></trkpt><trkpt lat="44.45610437014418" lon="11.132705876031325"><ele>279.0</ele><time>2026-03-22T10:15:31.999Z</time></trkpt><trkpt lat="44.456137078428355" lon="11.132612904864025"><ele>279.0</ele><time>2026-03-22T10:15:32.999Z</time></trkpt><trkpt lat="44.45614790304534" lon="11.132500958282904"><ele>278.0</ele><time>2026-03-22T10:15:33.999Z</time></trkpt><trkpt lat="44.45611088796473" lon="11.132344563918243"><ele>277.0</ele><time>2026-03-22T10:15:35Z</time></trkpt><trkpt lat="44.45603558209039" lon="11.13215827894426"><ele>276.0</ele><time>2026-03-22T10:15:36Z</time></trkpt><trkpt lat="44.45594751977952" lon="11.131953225285315"><ele>275.0</ele><time>2026-03-22T10:15:37Z</time></trkpt><trkpt lat="44.455877081987204" lon="11.131764994106675"><ele>275.0</ele><time>2026-03-22T10:15:38Z</time></trkpt><trkpt lat="44.45580984698487" lon="11.131593815607667"><ele>275.0</ele><time>2026-03-22T10:15:39Z</time></trkpt><trkpt lat="44.45574550740184" lon="11.131428651815424"><ele>275.0</ele><time>2026-03-22T10:15:40Z</time></trkpt><trkpt lat="44.45571270805506" lon="11.131260691777785"><ele>275.0</ele><time>2026-03-22T10:15:41Z</time></trkpt><trkpt lat="44.45568986091925" lon="11.131079498774984"><ele>273.5</ele><time>2026-03-22T10:15:42Z</time></trkpt><trkpt lat="44.45568090945535" lon="11.130879779400107"><ele>272.0</ele><time>2026-03-22T10:15:43Z</time></trkpt><trkpt lat="44.455685376236836" lon="11.130694437720633"><ele>270.5</ele><time>2026-03-22T10:15:44Z</time></trkpt><trkpt lat="44.45570932733509" lon="11.130507702035876"><ele>269.0</ele><time>2026-03-22T10:15:45Z</time></trkpt><trkpt lat="44.45575663912027" lon="11.130330494913675"><ele>269.0</ele><time>2026-03-22T10:15:46Z</time></trkpt><trkpt lat="44.45581303173271" lon="11.130164502242387"><ele>269.0</ele><time>2026-03-22T10:15:47Z</time></trkpt><trkpt lat="44.455894587944215" lon="11.129988041797416"><ele>269.0</ele><time>2026-03-22T10:15:48Z</time></trkpt><trkpt lat="44.455988986694194" lon="11.129831972323649"><ele>269.0</ele><time>2026-03-22T10:15:49Z</time></trkpt><trkpt lat="44.45607519652282" lon="11.129698612917517"><ele>269.25</ele><time>2026-03-22T10:15:50Z</time></trkpt><trkpt lat="44.45614641855903" lon="11.129592363452788"><ele>269.5</ele><time>2026-03-22T10:15:51Z</time></trkpt><trkpt lat="44.45620351047577" lon="11.129476969349637"><ele>269.75</ele><time>2026-03-22T10:15:52Z</time></trkpt><trkpt lat="44.45626021724169" lon="11.1293147641785"><ele>270.0</ele><time>2026-03-22T10:15:53Z</time></trkpt><trkpt lat="44.45630963592206" lon="11.129077763442117"><ele>262.75</ele><time>2026-03-22T10:15:54Z</time></trkpt><trkpt lat="44.456361617297276" lon="11.128838094375796"><ele>255.5</ele><time>2026-03-22T10:15:55Z</time></trkpt><trkpt lat="44.456408069085086" lon="11.128658022690425"><ele>248.25</ele><time>2026-03-22T10:15:56Z</time></trkpt><trkpt lat="44.456451222943144" lon="11.12850349667621"><ele>241.0</ele><time>2026-03-22T10:15:57Z</time></trkpt><trkpt lat="44.45648159397977" lon="11.128332301694773"><ele>239.66666666666666</ele><time>2026-03-22T10:15:58Z</time></trkpt><trkpt lat="44.456494968125426" lon="11.128116337409717"><ele>238.33333333333331</ele><time>2026-03-22T10:15:59Z</time></trkpt><trkpt lat="44.45647439635786" lon="11.127877699502056"><ele>237.0</ele><time>2026-03-22T10:16:00Z</time></trkpt><trkpt lat="44.4564503921256" lon="11.127665688752021"><ele>237.0</ele><time>2026-03-22T10:16:01Z</time></trkpt><trkpt lat="44.45643484754871" lon="11.127481884540458"><ele>237.0</ele><time>2026-03-22T10:16:02Z</time></trkpt><trkpt lat="44.45643484119161" lon="11.12728365952372"><ele>237.0</ele><time>2026-03-22T10:16:03Z</time></trkpt><trkpt lat="44.45645511396948" lon="11.127071927857898"><ele>237.0</ele><time>2026-03-22T10:16:04Z</time></trkpt><trkpt lat="44.456471262730744" lon="11.126899285793273"><ele>235.75</ele><time>2026-03-22T10:16:05Z</time></trkpt><trkpt lat="44.456498689190234" lon="11.126738090057147"><ele>234.5</ele><time>2026-03-22T10:16:06Z</time></trkpt><trkpt lat="44.45651876272353" lon="11.126572752012938"><ele>233.25</ele><time>2026-03-22T10:16:07Z</time></trkpt><trkpt lat="44.45651224317604" lon="11.12639086755021"><ele>232.0</ele><time>2026-03-22T10:16:08Z</time></trkpt><trkpt lat="44.45647382829977" lon="11.126181890884942"><ele>230.75</ele><time>2026-03-22T10:16:09Z</time></trkpt><trkpt lat="44.45642435958942" lon="11.125995499475227"><ele>229.5</ele><time>2026-03-22T10:16:10Z</time></trkpt><trkpt lat="44.45636367618229" lon="11.125831694021524"><ele>228.25</ele><time>2026-03-22T10:16:11Z</time></trkpt><trkpt lat="44.45630516257073" lon="11.125692631029754"><ele>227.0</ele><time>2026-03-22T10:16:12Z</time></trkpt><trkpt lat="44.45624845863274" lon="11.125585867440252"><ele>222.8</ele><time>2026-03-22T10:16:13Z</time></trkpt><trkpt lat="44.45619868102182" lon="11.12549750652023"><ele>218.6</ele><time>2026-03-22T10:16:14Z</time></trkpt><trkpt lat="44.45616014761923" lon="11.125388570233998"><ele>214.4</ele><time>2026-03-22T10:16:15Z</time></trkpt><trkpt lat="44.45615630914472" lon="11.125254639000849"><ele>210.20000000000002</ele><time>2026-03-22T10:16:16Z</time></trkpt><trkpt lat="44.45618149007723" lon="11.12512186279551"><ele>206.0</ele><time>2026-03-22T10:16:17Z</time></trkpt><trkpt lat="44.45622963798122" lon="11.125008409862136"><ele>204.75</ele><time>2026-03-22T10:16:18Z</time></trkpt><trkpt lat="44.45631254419373" lon="11.124909480724186"><ele>203.5</ele><time>2026-03-22T10:16:19Z</time></trkpt><trkpt lat="44.45641732051914" lon="11.124845848203988"><ele>202.25</ele><time>2026-03-22T10:16:20Z</time></trkpt><trkpt lat="44.4565165590127" lon="11.124822526085108"><ele>201.0</ele><time>2026-03-22T10:16:21Z</time></trkpt><trkpt lat="44.45664385065172" lon="11.124827020799165"><ele>201.0</ele><time>2026-03-22T10:16:22Z</time></trkpt><trkpt lat="44.456761601922715" lon="11.124861937032716"><ele>201.0</ele><time>2026-03-22T10:16:23Z</time></trkpt><trkpt lat="44.45685226742211" lon="11.124900065050262"><ele>201.0</ele><time>2026-03-22T10:16:24Z</time></trkpt><trkpt lat="44.45693816977922" lon="11.12493525822759"><ele>201.0</ele><time>2026-03-22T10:16:25Z</time></trkpt><trkpt lat="44.45701200429694" lon="11.124985133062133"><ele>201.0</ele><time>2026-03-22T10:16:26Z</time></trkpt><trkpt lat="44.45706863834305" lon="11.125035256184182"><ele>199.66666666666666</ele><time>2026-03-22T10:16:27Z</time></trkpt><trkpt lat="44.45716930646047" lon="11.125051748584752"><ele>198.33333333333331</ele><time>2026-03-22T10:16:29Z</time></trkpt><trkpt lat="44.457232090899865" lon="11.124995801775901"><ele>197.0</ele><time>2026-03-22T10:16:30Z</time></trkpt><trkpt lat="44.45725816929543" lon="11.124873348916427"><ele>195.66666666666666</ele><time>2026-03-22T10:16:31Z</time></trkpt><trkpt lat="44.457277472255846" lon="11.124751562502524"><ele>194.33333333333331</ele><time>2026-03-22T10:16:32Z</time></trkpt><trkpt lat="44.45728132723763" lon="11.124638225743741"><ele>193.0</ele><time>2026-03-22T10:16:33Z</time></trkpt><trkpt lat="44.457312216723835" lon="11.12452239012982"><ele>192.83333333333331</ele><time>2026-03-22T10:16:34Z</time></trkpt><trkpt lat="44.457345389253" lon="11.12440353449403"><ele>192.66666666666666</ele><time>2026-03-22T10:16:35Z</time></trkpt><trkpt lat="44.45739003282118" lon="11.12428785773075"><ele>192.5</ele><time>2026-03-22T10:16:36Z</time></trkpt><trkpt lat="44.457433661970406" lon="11.124177833083841"><ele>192.33333333333331</ele><time>2026-03-22T10:16:37Z</time></trkpt><trkpt lat="44.45748913439697" lon="11.124089644905169"><ele>192.16666666666666</ele><time>2026-03-22T10:16:38Z</time></trkpt><trkpt lat="44.457518074736385" lon="11.123993556564544"><ele>192.0</ele><time>2026-03-22T10:16:39Z</time></trkpt><trkpt lat="44.45751578236355" lon="11.123904979820203"><ele>190.75</ele><time>2026-03-22T10:16:40Z</time></trkpt><trkpt lat="44.45748196481559" lon="11.123800901156764"><ele>189.5</ele><time>2026-03-22T10:16:41Z</time></trkpt><trkpt lat="44.457354888926844" lon="11.123691561053683"><ele>188.25</ele><time>2026-03-22T10:16:42Z</time></trkpt><trkpt lat="44.457210865768175" lon="11.123538272355564"><ele>187.0</ele><time>2026-03-22T10:16:43Z</time></trkpt><trkpt lat="44.4571123165302" lon="11.123406080297205"><ele>187.0</ele><time>2026-03-22T10:16:44Z</time></trkpt><trkpt lat="44.45703034394612" lon="11.12329647910414"><ele>187.0</ele><time>2026-03-22T10:16:45Z</time></trkpt><trkpt lat="44.45696285260307" lon="11.123200008716596"><ele>187.0</ele><time>2026-03-22T10:16:46Z</time></trkpt><trkpt lat="44.45688092277942" lon="11.123138569293245"><ele>187.0</ele><time>2026-03-22T10:16:47Z</time></trkpt><trkpt lat="44.456784961382034" lon="11.123112319712778"><ele>187.0</ele><time>2026-03-22T10:16:48Z</time></trkpt><trkpt lat="44.456668178519685" lon="11.123158438035361"><ele>187.0</ele><time>2026-03-22T10:16:49Z</time></trkpt><trkpt lat="44.45653461014791" lon="11.123272686176781"><ele>187.0</ele><time>2026-03-22T10:16:50Z</time></trkpt><trkpt lat="44.45638603407963" lon="11.12343495600625"><ele>187.0</ele><time>2026-03-22T10:16:51Z</time></trkpt><trkpt lat="44.45623658463828" lon="11.123561132764797"><ele>186.0</ele><time>2026-03-22T10:16:52Z</time></trkpt><trkpt lat="44.45612198982161" lon="11.12366073915076"><ele>185.0</ele><time>2026-03-22T10:16:53Z</time></trkpt><trkpt lat="44.456012711460986" lon="11.123746099747743"><ele>184.0</ele><time>2026-03-22T10:16:54Z</time></trkpt><trkpt lat="44.45591647966694" lon="11.123831817788608"><ele>183.0</ele><time>2026-03-22T10:16:55Z</time></trkpt><trkpt lat="44.45582676071904" lon="11.12390505487989"><ele>183.0</ele><time>2026-03-22T10:16:56Z</time></trkpt><trkpt lat="44.455754240521905" lon="11.123953641148853"><ele>183.0</ele><time>2026-03-22T10:16:57Z</time></trkpt><trkpt lat="44.45563514498909" lon="11.123907317089571"><ele>183.0</ele><time>2026-03-22T10:16:59Z</time></trkpt><trkpt lat="44.45562057274497" lon="11.123730140427476"><ele>183.0</ele><time>2026-03-22T10:17:01Z</time></trkpt><trkpt lat="44.455701000436534" lon="11.12355948874958"><ele>183.0</ele><time>2026-03-22T10:17:02Z</time></trkpt><trkpt lat="44.45581809132827" lon="11.123330060898507"><ele>183.0</ele><time>2026-03-22T10:17:03Z</time></trkpt><trkpt lat="44.455955758413346" lon="11.123123004908821"><ele>183.0</ele><time>2026-03-22T10:17:04Z</time></trkpt><trkpt lat="44.45610611422026" lon="11.1229387285559"><ele>181.5</ele><time>2026-03-22T10:17:05Z</time></trkpt><trkpt lat="44.45621023386648" lon="11.122792361912781"><ele>180.0</ele><time>2026-03-22T10:17:06Z</time></trkpt><trkpt lat="44.45631541671893" lon="11.122664185902131"><ele>178.5</ele><time>2026-03-22T10:17:07Z</time></trkpt><trkpt lat="44.45641272784392" lon="11.122526186443311"><ele>177.0</ele><time>2026-03-22T10:17:08Z</time></trkpt><trkpt lat="44.45648921875088" lon="11.122352481800643"><ele>172.66666666666666</ele><time>2026-03-22T10:17:09Z</time></trkpt><trkpt lat="44.456541275023234" lon="11.122171964962245"><ele>168.33333333333331</ele><time>2026-03-22T10:17:10Z</time></trkpt><trkpt lat="44.4565677131565" lon="11.12195867751515"><ele>164.0</ele><time>2026-03-22T10:17:11Z</time></trkpt><trkpt lat="44.45655918876485" lon="11.121684766545837"><ele>160.0</ele><time>2026-03-22T10:17:12Z</time></trkpt><trkpt lat="44.4565156186021" lon="11.121332221681925"><ele>156.0</ele><time>2026-03-22T10:17:13Z</time></trkpt><trkpt lat="44.45645431003357" lon="11.120963895174691"><ele>154.0</ele><time>2026-03-22T10:17:14Z</time></trkpt><trkpt lat="44.45641315563952" lon="11.120646586661632"><ele>152.0</ele><time>2026-03-22T10:17:15Z</time></trkpt><trkpt lat="44.456382365617785" lon="11.120370225305075"><ele>150.0</ele><time>2026-03-22T10:17:16Z</time></trkpt><trkpt lat="44.456352599170515" lon="11.120112150679358"><ele>149.0</ele><time>2026-03-22T10:17:17Z</time></trkpt><trkpt lat="44.45632376876491" lon="11.119873458162294"><ele>148.0</ele><time>2026-03-22T10:17:18Z</time></trkpt><trkpt lat="44.456298051792494" lon="11.119670751603033"><ele>147.0</ele><time>2026-03-22T10:17:19Z</time></trkpt><trkpt lat="44.4562758280641" lon="11.119490511331296"><ele>146.79999999999998</ele><time>2026-03-22T10:17:20Z</time></trkpt><trkpt lat="44.456259557591466" lon="11.11934532266207"><ele>146.6</ele><time>2026-03-22T10:17:21Z</time></trkpt><trkpt lat="44.45625111520685" lon="11.119234333805394"><ele>146.39999999999998</ele><time>2026-03-22T10:17:22Z</time></trkpt><trkpt lat="44.456265315201605" lon="11.11903785377936"><ele>146.2</ele><time>2026-03-22T10:17:24Z</time></trkpt><trkpt lat="44.4563326757454" lon="11.11890475215312"><ele>146.0</ele><time>2026-03-22T10:17:25Z</time></trkpt><trkpt lat="44.45644138938565" lon="11.118796732591857"><ele>145.33333333333331</ele><time>2026-03-22T10:17:26Z</time></trkpt><trkpt lat="44.45658396705885" lon="11.118666305223675"><ele>144.66666666666666</ele><time>2026-03-22T10:17:27Z</time></trkpt><trkpt lat="44.45674915430619" lon="11.118512923773363"><ele>144.0</ele><time>2026-03-22T10:17:28Z</time></trkpt><trkpt lat="44.45690143402514" lon="11.118363599555142"><ele>143.25</ele><time>2026-03-22T10:17:29Z</time></trkpt><trkpt lat="44.45702956734765" lon="11.118231882308145"><ele>142.5</ele><time>2026-03-22T10:17:30Z</time></trkpt><trkpt lat="44.45714912053541" lon="11.118119443270999"><ele>141.75</ele><time>2026-03-22T10:17:31Z</time></trkpt><trkpt lat="44.45725963945797" lon="11.1180171880827"><ele>141.0</ele><time>2026-03-22T10:17:32Z</time></trkpt><trkpt lat="44.457375773091265" lon="11.117934086896279"><ele>141.0</ele><time>2026-03-22T10:17:33Z</time></trkpt><trkpt lat="44.457521267604704" lon="11.117897733987116"><ele>141.0</ele><time>2026-03-22T10:17:34Z</time></trkpt><trkpt lat="44.45764042251322" lon="11.117876145910717"><ele>141.0</ele><time>2026-03-22T10:17:35Z</time></trkpt><trkpt lat="44.457748799821694" lon="11.11788587078027"><ele>141.0</ele><time>2026-03-22T10:17:36Z</time></trkpt><trkpt lat="44.45786200696385" lon="11.117928926021714"><ele>141.25</ele><time>2026-03-22T10:17:37Z</time></trkpt><trkpt lat="44.457973202758744" lon="11.118026058077797"><ele>141.5</ele><time>2026-03-22T10:17:38Z</time></trkpt><trkpt lat="44.45809883090104" lon="11.118148751607896"><ele>141.75</ele><time>2026-03-22T10:17:39Z</time></trkpt><trkpt lat="44.4582168976163" lon="11.118289605716194"><ele>142.0</ele><time>2026-03-22T10:17:40Z</time></trkpt><trkpt lat="44.45838488180996" lon="11.11841074747918"><ele>142.0</ele><time>2026-03-22T10:17:41Z</time></trkpt><trkpt lat="44.4585892191191" lon="11.118532313195521"><ele>142.0</ele><time>2026-03-22T10:17:42Z</time></trkpt><trkpt lat="44.458833485544545" lon="11.118646748563338"><ele>139.0</ele><time>2026-03-22T10:17:43Z</time></trkpt><trkpt lat="44.459084508769315" lon="11.118774851407887"><ele>136.0</ele><time>2026-03-22T10:17:44Z</time></trkpt><trkpt lat="44.45930847620956" lon="11.118891203989337"><ele>136.0</ele><time>2026-03-22T10:17:45Z</time></trkpt><trkpt lat="44.45950853429802" lon="11.11899760652321"><ele>136.0</ele><time>2026-03-22T10:17:46Z</time></trkpt><trkpt lat="44.45970617291239" lon="11.119097100593393"><ele>136.0</ele><time>2026-03-22T10:17:47Z</time></trkpt><trkpt lat="44.45989878249674" lon="11.119198194669549"><ele>136.0</ele><time>2026-03-22T10:17:48Z</time></trkpt><trkpt lat="44.46008493601659" lon="11.119293821517708"><ele>136.0</ele><time>2026-03-22T10:17:49Z</time></trkpt><trkpt lat="44.46025930744188" lon="11.119382655695405"><ele>136.0</ele><time>2026-03-22T10:17:50Z</time></trkpt><trkpt lat="44.460433195564285" lon="11.119478952576822"><ele>135.66666666666669</ele><time>2026-03-22T10:17:51Z</time></trkpt><trkpt lat="44.460593569990394" lon="11.119559908977251"><ele>135.33333333333334</ele><time>2026-03-22T10:17:52Z</time></trkpt><trkpt lat="44.46073301090806" lon="11.119639448009591"><ele>135.0</ele><time>2026-03-22T10:17:53Z</time></trkpt><trkpt lat="44.460871164129905" lon="11.119737667029797"><ele>135.0</ele><time>2026-03-22T10:17:54Z</time></trkpt><trkpt lat="44.46099860257364" lon="11.119911606666205"><ele>135.0</ele><time>2026-03-22T10:17:55Z</time></trkpt><trkpt lat="44.461146428327226" lon="11.120117606762209"><ele>135.0</ele><time>2026-03-22T10:17:56Z</time></trkpt><trkpt lat="44.46130544440867" lon="11.120349549902054"><ele>135.0</ele><time>2026-03-22T10:17:57Z</time></trkpt><trkpt lat="44.46147422931665" lon="11.12055843201809"><ele>135.0</ele><time>2026-03-22T10:17:58Z</time></trkpt><trkpt lat="44.46159370155953" lon="11.12075768904704"><ele>135.0</ele><time>2026-03-22T10:17:59Z</time></trkpt><trkpt lat="44.461719643834435" lon="11.120900148538556"><ele>135.0</ele><time>2026-03-22T10:18:00Z</time></trkpt><trkpt lat="44.46182583504957" lon="11.121040874977297"><ele>135.0</ele><time>2026-03-22T10:18:01Z</time></trkpt><trkpt lat="44.46197285477669" lon="11.121163886217486"><ele>135.0</ele><time>2026-03-22T10:18:02Z</time></trkpt><trkpt lat="44.46214973523218" lon="11.121268523377601"><ele>135.0</ele><time>2026-03-22T10:18:03Z</time></trkpt><trkpt lat="44.462295578604845" lon="11.121340908252002"><ele>135.0</ele><time>2026-03-22T10:18:04Z</time></trkpt><trkpt lat="44.46241962183826" lon="11.121400548269643"><ele>135.0</ele><time>2026-03-22T10:18:05Z</time></trkpt><trkpt lat="44.46252570858323" lon="11.12144143692195"><ele>135.0</ele><time>2026-03-22T10:18:06Z</time></trkpt><trkpt lat="44.46263552960538" lon="11.12146505486484"><ele>135.0</ele><time>2026-03-22T10:18:07Z</time></trkpt><trkpt lat="44.46276196846504" lon="11.121460831075558"><ele>135.0</ele><time>2026-03-22T10:18:08Z</time></trkpt><trkpt lat="44.46292541231975" lon="11.121408195441111"><ele>135.0</ele><time>2026-03-22T10:18:09Z</time></trkpt><trkpt lat="44.46307650038254" lon="11.121348326266965"><ele>135.0</ele><time>2026-03-22T10:18:10Z</time></trkpt><trkpt lat="44.46319545773318" lon="11.12128570415699"><ele>135.0</ele><time>2026-03-22T10:18:11Z</time></trkpt><trkpt lat="44.463308966881385" lon="11.121233141223364"><ele>135.0</ele><time>2026-03-22T10:18:12Z</time></trkpt><trkpt lat="44.46342029827574" lon="11.121180529846502"><ele>135.0</ele><time>2026-03-22T10:18:13Z</time></trkpt><trkpt lat="44.46354840665245" lon="11.121135817902049"><ele>135.0</ele><time>2026-03-22T10:18:14Z</time></trkpt><trkpt lat="44.46370022756587" lon="11.12112724147084"><ele>135.0</ele><time>2026-03-22T10:18:15Z</time></trkpt><trkpt lat="44.46388437018359" lon="11.121166998215354"><ele>135.0</ele><time>2026-03-22T10:18:16Z</time></trkpt><trkpt lat="44.464101015257654" lon="11.12123938796786"><ele>133.0</ele><time>2026-03-22T10:18:17Z</time></trkpt><trkpt lat="44.46436398193926" lon="11.121326256208913"><ele>131.0</ele><time>2026-03-22T10:18:18Z</time></trkpt><trkpt lat="44.46461908128562" lon="11.121401096258438"><ele>131.0</ele><time>2026-03-22T10:18:19Z</time></trkpt><trkpt lat="44.46483681350798" lon="11.12146895633372"><ele>131.0</ele><time>2026-03-22T10:18:20Z</time></trkpt><trkpt lat="44.46503603732105" lon="11.121527864056016"><ele>131.0</ele><time>2026-03-22T10:18:21Z</time></trkpt><trkpt lat="44.465214037953544" lon="11.121576360136642"><ele>132.66666666666666</ele><time>2026-03-22T10:18:22Z</time></trkpt><trkpt lat="44.465390132935845" lon="11.121628934346319"><ele>134.33333333333334</ele><time>2026-03-22T10:18:23Z</time></trkpt><trkpt lat="44.46557079602939" lon="11.121685588520853"><ele>136.0</ele><time>2026-03-22T10:18:24Z</time></trkpt><trkpt lat="44.465756288391255" lon="11.121724253981519"><ele>136.66666666666669</ele><time>2026-03-22T10:18:25Z</time></trkpt><trkpt lat="44.465964176730324" lon="11.121741592786318"><ele>137.33333333333334</ele><time>2026-03-22T10:18:26Z</time></trkpt><trkpt lat="44.46619821946387" lon="11.121720374104255"><ele>138.0</ele><time>2026-03-22T10:18:27Z</time></trkpt><trkpt lat="44.46639259523971" lon="11.121676898760699"><ele>138.0</ele><time>2026-03-22T10:18:28Z</time></trkpt><trkpt lat="44.46655076151084" lon="11.121649561679186"><ele>138.0</ele><time>2026-03-22T10:18:29Z</time></trkpt><trkpt lat="44.46669324284555" lon="11.121623920442305"><ele>138.0</ele><time>2026-03-22T10:18:30Z</time></trkpt><trkpt lat="44.46682750032552" lon="11.121601496655408"><ele>138.0</ele><time>2026-03-22T10:18:31Z</time></trkpt><trkpt lat="44.466941887387954" lon="11.121584931910693"><ele>136.8</ele><time>2026-03-22T10:18:32Z</time></trkpt><trkpt lat="44.46703734430404" lon="11.121564485479993"><ele>135.60000000000002</ele><time>2026-03-22T10:18:33Z</time></trkpt><trkpt lat="44.46712031813913" lon="11.121528830341386"><ele>134.39999999999998</ele><time>2026-03-22T10:18:34Z</time></trkpt><trkpt lat="44.46719732398122" lon="11.121410772907783"><ele>133.2</ele><time>2026-03-22T10:18:35Z</time></trkpt><trkpt lat="44.46725884731191" lon="11.121237890826475"><ele>132.0</ele><time>2026-03-22T10:18:36Z</time></trkpt><trkpt lat="44.467296241725634" lon="11.120984343601677"><ele>131.33333333333334</ele><time>2026-03-22T10:18:37Z</time></trkpt><trkpt lat="44.467331929727976" lon="11.12068081846908"><ele>130.66666666666669</ele><time>2026-03-22T10:18:38Z</time></trkpt><trkpt lat="44.4673737179203" lon="11.120368322903307"><ele>130.0</ele><time>2026-03-22T10:18:39Z</time></trkpt><trkpt lat="44.46742482054476" lon="11.120022118486723"><ele>129.33333333333334</ele><time>2026-03-22T10:18:40Z</time></trkpt><trkpt lat="44.46747604060094" lon="11.119728835442258"><ele>128.66666666666666</ele><time>2026-03-22T10:18:41Z</time></trkpt><trkpt lat="44.467515250913685" lon="11.11947531679339"><ele>128.0</ele><time>2026-03-22T10:18:42Z</time></trkpt><trkpt lat="44.467552305752996" lon="11.119254131563427"><ele>127.25</ele><time>2026-03-22T10:18:43Z</time></trkpt><trkpt lat="44.467579755791945" lon="11.119049081819115"><ele>126.5</ele><time>2026-03-22T10:18:44Z</time></trkpt><trkpt lat="44.467603072016125" lon="11.118868081801002"><ele>125.75</ele><time>2026-03-22T10:18:45Z</time></trkpt><trkpt lat="44.46763177483546" lon="11.118720378047202"><ele>125.0</ele><time>2026-03-22T10:18:46Z</time></trkpt><trkpt lat="44.467693836116446" lon="11.118592242945876"><ele>125.0</ele><time>2026-03-22T10:18:47Z</time></trkpt><trkpt lat="44.46779631377782" lon="11.118496851682773"><ele>125.0</ele><time>2026-03-22T10:18:48Z</time></trkpt><trkpt lat="44.467942260379935" lon="11.118485313435556"><ele>125.0</ele><time>2026-03-22T10:18:49Z</time></trkpt><trkpt lat="44.468117707109954" lon="11.118428927788148"><ele>125.0</ele><time>2026-03-22T10:18:50Z</time></trkpt><trkpt lat="44.46833150647668" lon="11.118392606818809"><ele>125.33333333333333</ele><time>2026-03-22T10:18:51Z</time></trkpt><trkpt lat="44.46851517746919" lon="11.118353110678942"><ele>125.66666666666666</ele><time>2026-03-22T10:18:52Z</time></trkpt><trkpt lat="44.4686807531192" lon="11.11831354439836"><ele>126.0</ele><time>2026-03-22T10:18:53Z</time></trkpt><trkpt lat="44.468875412952094" lon="11.118248479677376"><ele>125.66666666666666</ele><time>2026-03-22T10:18:54Z</time></trkpt><trkpt lat="44.46906636852926" lon="11.118152216246447"><ele>125.33333333333333</ele><time>2026-03-22T10:18:55Z</time></trkpt><trkpt lat="44.469223312763226" lon="11.118069872033525"><ele>125.0</ele><time>2026-03-22T10:18:56Z</time></trkpt><trkpt lat="44.469388001382875" lon="11.11798559077614"><ele>125.0</ele><time>2026-03-22T10:18:57Z</time></trkpt><trkpt lat="44.469580606907364" lon="11.117874412961383"><ele>125.0</ele><time>2026-03-22T10:18:58Z</time></trkpt><trkpt lat="44.46979633624517" lon="11.117708972049032"><ele>125.0</ele><time>2026-03-22T10:18:59Z</time></trkpt><trkpt lat="44.46999778302063" lon="11.117569408870683"><ele>125.0</ele><time>2026-03-22T10:19:00Z</time></trkpt><trkpt lat="44.47015963791753" lon="11.117433384691557"><ele>125.0</ele><time>2026-03-22T10:19:01.001Z</time></trkpt><trkpt lat="44.47030690683243" lon="11.117271011565284"><ele>125.25</ele><time>2026-03-22T10:19:02.001Z</time></trkpt><trkpt lat="44.47043547499533" lon="11.117155159887641"><ele>125.5</ele><time>2026-03-22T10:19:03.001Z</time></trkpt><trkpt lat="44.4705535054707" lon="11.117056303442837"><ele>125.75</ele><time>2026-03-22T10:19:04.001Z</time></trkpt><trkpt lat="44.47065493728023" lon="11.116975568016874"><ele>126.0</ele><time>2026-03-22T10:19:05.001Z</time></trkpt><trkpt lat="44.470744727741234" lon="11.116908637926805"><ele>126.0</ele><time>2026-03-22T10:19:06.001Z</time></trkpt><trkpt lat="44.47082521459866" lon="11.116865817320367"><ele>126.0</ele><time>2026-03-22T10:19:07.001Z</time></trkpt><trkpt lat="44.470908676335604" lon="11.11685828560359"><ele>126.0</ele><time>2026-03-22T10:19:08.001Z</time></trkpt><trkpt lat="44.47099219833943" lon="11.116893192399395"><ele>126.0</ele><time>2026-03-22T10:19:09.001Z</time></trkpt><trkpt lat="44.471061725084205" lon="11.116994562943864"><ele>126.0</ele><time>2026-03-22T10:19:10.001Z</time></trkpt><trkpt lat="44.47112163122298" lon="11.11712977308074"><ele>126.0</ele><time>2026-03-22T10:19:11.001Z</time></trkpt><trkpt lat="44.47119934057407" lon="11.117271273553554"><ele>126.0</ele><time>2026-03-22T10:19:12.001Z</time></trkpt><trkpt lat="44.47128905609521" lon="11.117397103384008"><ele>126.0</ele><time>2026-03-22T10:19:13.001Z</time></trkpt><trkpt lat="44.47135895965028" lon="11.117533431073014"><ele>126.0</ele><time>2026-03-22T10:19:14.001Z</time></trkpt><trkpt lat="44.47143875031405" lon="11.117654634660356"><ele>125.5</ele><time>2026-03-22T10:19:15.001Z</time></trkpt><trkpt lat="44.47153005009289" lon="11.11776610576043"><ele>125.0</ele><time>2026-03-22T10:19:16.001Z</time></trkpt><trkpt lat="44.47163333257497" lon="11.117855847321046"><ele>124.5</ele><time>2026-03-22T10:19:17.001Z</time></trkpt><trkpt lat="44.47173636500631" lon="11.117915228819951"><ele>124.0</ele><time>2026-03-22T10:19:18.001Z</time></trkpt><trkpt lat="44.471827473769636" lon="11.117973398355145"><ele>124.0</ele><time>2026-03-22T10:19:19.001Z</time></trkpt><trkpt lat="44.47192312856738" lon="11.118020646810665"><ele>124.0</ele><time>2026-03-22T10:19:20.001Z</time></trkpt><trkpt lat="44.47201639727793" lon="11.11804057366789"><ele>124.0</ele><time>2026-03-22T10:19:21.001Z</time></trkpt><trkpt lat="44.472117024861255" lon="11.11803854058367"><ele>124.0</ele><time>2026-03-22T10:19:22.001Z</time></trkpt><trkpt lat="44.472210795533954" lon="11.11799981959537"><ele>124.0</ele><time>2026-03-22T10:19:23.001Z</time></trkpt><trkpt lat="44.472307563868675" lon="11.117941758491526"><ele>125.2</ele><time>2026-03-22T10:19:24.001Z</time></trkpt><trkpt lat="44.47240426139555" lon="11.117870113016352"><ele>126.4</ele><time>2026-03-22T10:19:25.001Z</time></trkpt><trkpt lat="44.47249116423071" lon="11.117795441415872"><ele>127.6</ele><time>2026-03-22T10:19:26.001Z</time></trkpt><trkpt lat="44.47258505213319" lon="11.11771741093099"><ele>128.8</ele><time>2026-03-22T10:19:27.001Z</time></trkpt><trkpt lat="44.47267780083844" lon="11.117643665448192"><ele>130.0</ele><time>2026-03-22T10:19:28.001Z</time></trkpt><trkpt lat="44.47277071043884" lon="11.117571618218763"><ele>130.0</ele><time>2026-03-22T10:19:29Z</time></trkpt><trkpt lat="44.472869121863205" lon="11.117507812867697"><ele>130.0</ele><time>2026-03-22T10:19:30Z</time></trkpt><trkpt lat="44.47295769978773" lon="11.117428644013344"><ele>130.0</ele><time>2026-03-22T10:19:31Z</time></trkpt><trkpt lat="44.47304871951773" lon="11.117355596989526"><ele>130.0</ele><time>2026-03-22T10:19:32Z</time></trkpt><trkpt lat="44.473138895816824" lon="11.117262892331786"><ele>130.0</ele><time>2026-03-22T10:19:33Z</time></trkpt><trkpt lat="44.473222771111985" lon="11.117168654356234"><ele>130.0</ele><time>2026-03-22T10:19:34Z</time></trkpt><trkpt lat="44.47330979572225" lon="11.11707350014591"><ele>130.0</ele><time>2026-03-22T10:19:35Z</time></trkpt><trkpt lat="44.47339300720207" lon="11.116972207907585"><ele>130.0</ele><time>2026-03-22T10:19:36Z</time></trkpt><trkpt lat="44.47346844194559" lon="11.116872325182392"><ele>130.0</ele><time>2026-03-22T10:19:37Z</time></trkpt><trkpt lat="44.4735346397957" lon="11.116779269463851"><ele>130.0</ele><time>2026-03-22T10:19:38Z</time></trkpt><trkpt lat="44.473599410489776" lon="11.116687665732911"><ele>130.0</ele><time>2026-03-22T10:19:39Z</time></trkpt><trkpt lat="44.47366277186491" lon="11.116606511561873"><ele>130.0</ele><time>2026-03-22T10:19:40Z</time></trkpt><trkpt lat="44.47372706161425" lon="11.11653277251408"><ele>130.0</ele><time>2026-03-22T10:19:41Z</time></trkpt><trkpt lat="44.47379063398715" lon="11.116454375572964"><ele>130.0</ele><time>2026-03-22T10:19:42Z</time></trkpt><trkpt lat="44.47384753064469" lon="11.116373687482067"><ele>130.0</ele><time>2026-03-22T10:19:43Z</time></trkpt><trkpt lat="44.473910854188425" lon="11.116287859774035"><ele>130.0</ele><time>2026-03-22T10:19:44Z</time></trkpt><trkpt lat="44.473984229854494" lon="11.11619091029748"><ele>129.8</ele><time>2026-03-22T10:19:45Z</time></trkpt><trkpt lat="44.47405891237515" lon="11.116097092018059"><ele>129.6</ele><time>2026-03-22T10:19:46Z</time></trkpt><trkpt lat="44.47413743410879" lon="11.115998337682322"><ele>129.4</ele><time>2026-03-22T10:19:47Z</time></trkpt><trkpt lat="44.47421660399156" lon="11.1158999334707"><ele>129.2</ele><time>2026-03-22T10:19:48Z</time></trkpt><trkpt lat="44.474298722015895" lon="11.115797221212679"><ele>129.0</ele><time>2026-03-22T10:19:49Z</time></trkpt><trkpt lat="44.474374142204034" lon="11.115686778266014"><ele>128.0</ele><time>2026-03-22T10:19:50Z</time></trkpt><trkpt lat="44.474440699908946" lon="11.115576704744242"><ele>127.0</ele><time>2026-03-22T10:19:51Z</time></trkpt><trkpt lat="44.47447911173672" lon="11.115444075274537"><ele>126.0</ele><time>2026-03-22T10:19:52Z</time></trkpt><trkpt lat="44.47448427261124" lon="11.115278087247658"><ele>125.0</ele><time>2026-03-22T10:19:53Z</time></trkpt><trkpt lat="44.474442829023076" lon="11.115087105024726"><ele>124.66666666666666</ele><time>2026-03-22T10:19:54Z</time></trkpt><trkpt lat="44.47435359727475" lon="11.114883329126268"><ele>124.33333333333334</ele><time>2026-03-22T10:19:55Z</time></trkpt><trkpt lat="44.47426872737543" lon="11.114634990130046"><ele>124.0</ele><time>2026-03-22T10:19:56Z</time></trkpt><trkpt lat="44.474188269955256" lon="11.114404628752677"><ele>124.0</ele><time>2026-03-22T10:19:57Z</time></trkpt><trkpt lat="44.474101568468996" lon="11.114166171219594"><ele>124.0</ele><time>2026-03-22T10:19:58Z</time></trkpt><trkpt lat="44.47399132526284" lon="11.113887357365382"><ele>124.0</ele><time>2026-03-22T10:19:59Z</time></trkpt><trkpt lat="44.47389370964328" lon="11.113660991018309"><ele>122.66666666666667</ele><time>2026-03-22T10:20:00Z</time></trkpt><trkpt lat="44.47379163626677" lon="11.113460945309622"><ele>121.33333333333334</ele><time>2026-03-22T10:20:01Z</time></trkpt><trkpt lat="44.47372735064099" lon="11.113257714350247"><ele>120.0</ele><time>2026-03-22T10:20:02Z</time></trkpt><trkpt lat="44.473644249735905" lon="11.113072180773317"><ele>119.25</ele><time>2026-03-22T10:20:03Z</time></trkpt><trkpt lat="44.47357177560362" lon="11.112901008294434"><ele>118.5</ele><time>2026-03-22T10:20:04Z</time></trkpt><trkpt lat="44.47351126306538" lon="11.112733441180845"><ele>117.75</ele><time>2026-03-22T10:20:05Z</time></trkpt><trkpt lat="44.473458088117226" lon="11.112533834187488"><ele>117.0</ele><time>2026-03-22T10:20:06Z</time></trkpt><trkpt lat="44.47346145305149" lon="11.112305658543004"><ele>117.0</ele><time>2026-03-22T10:20:07Z</time></trkpt><trkpt lat="44.473458594034575" lon="11.112056397778478"><ele>117.0</ele><time>2026-03-22T10:20:08Z</time></trkpt><trkpt lat="44.47344364019034" lon="11.11181610870433"><ele>117.0</ele><time>2026-03-22T10:20:09Z</time></trkpt><trkpt lat="44.47345384194011" lon="11.111639796485411"><ele>117.5</ele><time>2026-03-22T10:20:10Z</time></trkpt><trkpt lat="44.47345757158147" lon="11.11149354829233"><ele>118.0</ele><time>2026-03-22T10:20:11Z</time></trkpt><trkpt lat="44.47345764345484" lon="11.111354684947337"><ele>118.5</ele><time>2026-03-22T10:20:12Z</time></trkpt><trkpt lat="44.4734582690377" lon="11.111144374163915"><ele>119.0</ele><time>2026-03-22T10:20:13Z</time></trkpt><trkpt lat="44.47345703345347" lon="11.110886770610845"><ele>119.0</ele><time>2026-03-22T10:20:14Z</time></trkpt><trkpt lat="44.473455957790236" lon="11.110644199942916"><ele>119.0</ele><time>2026-03-22T10:20:15Z</time></trkpt><trkpt lat="44.473464304240814" lon="11.110411195823806"><ele>119.0</ele><time>2026-03-22T10:20:16Z</time></trkpt><trkpt lat="44.47348930272884" lon="11.110155755091103"><ele>118.0</ele><time>2026-03-22T10:20:17Z</time></trkpt><trkpt lat="44.47353274498886" lon="11.109882682443457"><ele>117.0</ele><time>2026-03-22T10:20:18Z</time></trkpt><trkpt lat="44.47359920792023" lon="11.109575236091597"><ele>116.0</ele><time>2026-03-22T10:20:19Z</time></trkpt><trkpt lat="44.473679725483436" lon="11.109216056025486"><ele>116.0</ele><time>2026-03-22T10:20:20Z</time></trkpt><trkpt lat="44.473752147433615" lon="11.108846214224783"><ele>116.0</ele><time>2026-03-22T10:20:21Z</time></trkpt><trkpt lat="44.473824780952285" lon="11.108515086108312"><ele>115.66666666666666</ele><time>2026-03-22T10:20:22Z</time></trkpt><trkpt lat="44.47388698854418" lon="11.108216368871469"><ele>115.33333333333334</ele><time>2026-03-22T10:20:23Z</time></trkpt><trkpt lat="44.47394250026634" lon="11.107941854150864"><ele>115.0</ele><time>2026-03-22T10:20:24Z</time></trkpt><trkpt lat="44.47399218982727" lon="11.107669874611826"><ele>115.0</ele><time>2026-03-22T10:20:25Z</time></trkpt><trkpt lat="44.47404426385184" lon="11.107416720334054"><ele>115.0</ele><time>2026-03-22T10:20:26Z</time></trkpt><trkpt lat="44.474095012548744" lon="11.107159352995586"><ele>115.0</ele><time>2026-03-22T10:20:27Z</time></trkpt><trkpt lat="44.474143839081144" lon="11.106880723594362"><ele>115.0</ele><time>2026-03-22T10:20:28Z</time></trkpt><trkpt lat="44.474187922141304" lon="11.106620825011033"><ele>115.0</ele><time>2026-03-22T10:20:29Z</time></trkpt><trkpt lat="44.47423300253854" lon="11.1063834911025"><ele>115.0</ele><time>2026-03-22T10:20:30Z</time></trkpt><trkpt lat="44.474274316624" lon="11.106165560228378"><ele>114.66666666666667</ele><time>2026-03-22T10:20:31Z</time></trkpt><trkpt lat="44.474317869566605" lon="11.105948753579995"><ele>114.33333333333334</ele><time>2026-03-22T10:20:32Z</time></trkpt><trkpt lat="44.47436489939467" lon="11.105716894535153"><ele>114.0</ele><time>2026-03-22T10:20:33Z</time></trkpt><trkpt lat="44.4744123338653" lon="11.105485547269074"><ele>114.0</ele><time>2026-03-22T10:20:34Z</time></trkpt><trkpt lat="44.474456038475886" lon="11.105249193187955"><ele>114.0</ele><time>2026-03-22T10:20:35Z</time></trkpt><trkpt lat="44.474483878189815" lon="11.105003999341813"><ele>114.0</ele><time>2026-03-22T10:20:36Z</time></trkpt><trkpt lat="44.47450191984161" lon="11.104750965336493"><ele>114.0</ele><time>2026-03-22T10:20:37Z</time></trkpt><trkpt lat="44.47451162124965" lon="11.104532907576885"><ele>114.0</ele><time>2026-03-22T10:20:38Z</time></trkpt><trkpt lat="44.474529125127575" lon="11.10433326146277"><ele>114.0</ele><time>2026-03-22T10:20:39Z</time></trkpt><trkpt lat="44.474543866363476" lon="11.104132824863743"><ele>114.0</ele><time>2026-03-22T10:20:40Z</time></trkpt><trkpt lat="44.47455562617945" lon="11.103922763545725"><ele>113.75</ele><time>2026-03-22T10:20:41Z</time></trkpt><trkpt lat="44.47456917411687" lon="11.103718615481997"><ele>113.5</ele><time>2026-03-22T10:20:42Z</time></trkpt><trkpt lat="44.47458210569297" lon="11.103526382870779"><ele>113.25</ele><time>2026-03-22T10:20:43Z</time></trkpt><trkpt lat="44.47459750419995" lon="11.10334897077573"><ele>113.0</ele><time>2026-03-22T10:20:44Z</time></trkpt><trkpt lat="44.47460943276686" lon="11.103156845060932"><ele>112.25</ele><time>2026-03-22T10:20:45Z</time></trkpt><trkpt lat="44.47462365084306" lon="11.102968722016826"><ele>111.5</ele><time>2026-03-22T10:20:46Z</time></trkpt><trkpt lat="44.47463978031652" lon="11.102781429757133"><ele>110.75</ele><time>2026-03-22T10:20:47Z</time></trkpt><trkpt lat="44.474655774067124" lon="11.102612268246537"><ele>110.0</ele><time>2026-03-22T10:20:48Z</time></trkpt><trkpt lat="44.47467272177504" lon="11.102459816691237"><ele>109.75</ele><time>2026-03-22T10:20:49Z</time></trkpt><trkpt lat="44.474691658763724" lon="11.10231629747066"><ele>109.5</ele><time>2026-03-22T10:20:50Z</time></trkpt><trkpt lat="44.474711232560054" lon="11.102169943596138"><ele>109.25</ele><time>2026-03-22T10:20:51Z</time></trkpt><trkpt lat="44.474735861959076" lon="11.102008620858783"><ele>109.0</ele><time>2026-03-22T10:20:52Z</time></trkpt><trkpt lat="44.47475000584057" lon="11.101802890211037"><ele>109.0</ele><time>2026-03-22T10:20:53Z</time></trkpt><trkpt lat="44.47475019122502" lon="11.101534470459661"><ele>109.0</ele><time>2026-03-22T10:20:54Z</time></trkpt><trkpt lat="44.47474100759422" lon="11.101193667855867"><ele>109.0</ele><time>2026-03-22T10:20:55Z</time></trkpt><trkpt lat="44.47473531915539" lon="11.100871304857069"><ele>108.33333333333334</ele><time>2026-03-22T10:20:56Z</time></trkpt><trkpt lat="44.474740100744235" lon="11.100571884912453"><ele>107.66666666666666</ele><time>2026-03-22T10:20:57Z</time></trkpt><trkpt lat="44.474745505884535" lon="11.100280476072532"><ele>107.0</ele><time>2026-03-22T10:20:58Z</time></trkpt><trkpt lat="44.474755232725585" lon="11.100019201349124"><ele>107.66666666666666</ele><time>2026-03-22T10:20:59Z</time></trkpt><trkpt lat="44.474760865139196" lon="11.099782809844674"><ele>108.33333333333334</ele><time>2026-03-22T10:21:00Z</time></trkpt><trkpt lat="44.47477135930728" lon="11.099555262136652"><ele>109.0</ele><time>2026-03-22T10:21:01Z</time></trkpt><trkpt lat="44.47479451306809" lon="11.099322169543385"><ele>109.0</ele><time>2026-03-22T10:21:02Z</time></trkpt><trkpt lat="44.47481186891498" lon="11.099101333799434"><ele>109.0</ele><time>2026-03-22T10:21:03Z</time></trkpt><trkpt lat="44.47483909881063" lon="11.098872218926813"><ele>109.0</ele><time>2026-03-22T10:21:04Z</time></trkpt><trkpt lat="44.47487146854915" lon="11.09862909272667"><ele>109.0</ele><time>2026-03-22T10:21:05.001Z</time></trkpt><trkpt lat="44.47491024381997" lon="11.098360311667077"><ele>109.0</ele><time>2026-03-22T10:21:06.001Z</time></trkpt><trkpt lat="44.47496959356329" lon="11.098073309243036"><ele>109.0</ele><time>2026-03-22T10:21:07.001Z</time></trkpt><trkpt lat="44.47504900091758" lon="11.097792292750059"><ele>108.0</ele><time>2026-03-22T10:21:08.001Z</time></trkpt><trkpt lat="44.47513307622679" lon="11.097539224530529"><ele>107.0</ele><time>2026-03-22T10:21:09.001Z</time></trkpt><trkpt lat="44.475207925221355" lon="11.097316242266768"><ele>106.0</ele><time>2026-03-22T10:21:10.001Z</time></trkpt><trkpt lat="44.47527831183676" lon="11.097114282888233"><ele>105.75</ele><time>2026-03-22T10:21:11.001Z</time></trkpt><trkpt lat="44.47535220280935" lon="11.096935827697605"><ele>105.5</ele><time>2026-03-22T10:21:12.001Z</time></trkpt><trkpt lat="44.47543202369361" lon="11.096782083922978"><ele>105.25</ele><time>2026-03-22T10:21:13.001Z</time></trkpt><trkpt lat="44.47551415714251" lon="11.096639151176406"><ele>105.0</ele><time>2026-03-22T10:21:14.001Z</time></trkpt><trkpt lat="44.47558462165086" lon="11.096517417150725"><ele>105.6</ele><time>2026-03-22T10:21:15.001Z</time></trkpt><trkpt lat="44.47563730053315" lon="11.096425318546876"><ele>106.2</ele><time>2026-03-22T10:21:16.001Z</time></trkpt><trkpt lat="44.47567962485878" lon="11.096357199848049"><ele>106.80000000000001</ele><time>2026-03-22T10:21:17.001Z</time></trkpt><trkpt lat="44.475741169275004" lon="11.09624993990408"><ele>107.4</ele><time>2026-03-22T10:21:19.001Z</time></trkpt><trkpt lat="44.47575965307116" lon="11.096162573652464"><ele>108.0</ele><time>2026-03-22T10:21:29.001Z</time></trkpt><trkpt lat="44.47562245898788" lon="11.096052340097192"><ele>108.0</ele><time>2026-03-22T10:21:30.001Z</time></trkpt><trkpt lat="44.475445322297226" lon="11.095991097111515"><ele>108.0</ele><time>2026-03-22T10:21:31.001Z</time></trkpt><trkpt lat="44.47525862731162" lon="11.095913452035726"><ele>108.0</ele><time>2026-03-22T10:21:32.001Z</time></trkpt><trkpt lat="44.47509088529966" lon="11.095834050837963"><ele>108.25</ele><time>2026-03-22T10:21:33.001Z</time></trkpt><trkpt lat="44.47494600908111" lon="11.095772277738176"><ele>108.5</ele><time>2026-03-22T10:21:34.001Z</time></trkpt><trkpt lat="44.47480048035801" lon="11.095709871393378"><ele>108.75</ele><time>2026-03-22T10:21:35Z</time></trkpt><trkpt lat="44.47467194533178" lon="11.095651831517586"><ele>109.0</ele><time>2026-03-22T10:21:36Z</time></trkpt><trkpt lat="44.47456095890061" lon="11.095604528403692"><ele>109.00000000000001</ele><time>2026-03-22T10:21:37Z</time></trkpt><trkpt lat="44.47446816299452" lon="11.095564617110652"><ele>109.0</ele><time>2026-03-22T10:21:38Z</time></trkpt><trkpt lat="44.474389229007706" lon="11.095524899842523"><ele>109.0</ele><time>2026-03-22T10:21:39Z</time></trkpt><trkpt lat="44.474314436000725" lon="11.095482592412901"><ele>109.0</ele><time>2026-03-22T10:21:40Z</time></trkpt><trkpt lat="44.474255227683" lon="11.095433635673798"><ele>109.00000000000001</ele><time>2026-03-22T10:21:41Z</time></trkpt><trkpt lat="44.474202087128795" lon="11.095379573502587"><ele>109.0</ele><time>2026-03-22T10:21:42Z</time></trkpt><trkpt lat="44.47415076316136" lon="11.095321902669767"><ele>109.00000000000001</ele><time>2026-03-22T10:21:43Z</time></trkpt><trkpt lat="44.47406232236405" lon="11.095220418253739"><ele>109.0</ele><time>2026-03-22T10:21:45Z</time></trkpt><trkpt lat="44.47401292860246" lon="11.09516279619758"><ele>109.0</ele><time>2026-03-22T10:21:46Z</time></trkpt><trkpt lat="44.47395564999031" lon="11.095121244503535"><ele>109.0</ele><time>2026-03-22T10:21:47Z</time></trkpt><trkpt lat="44.47384418493837" lon="11.095083383397057"><ele>109.00000000000001</ele><time>2026-03-22T10:21:49Z</time></trkpt><trkpt lat="44.4737803583345" lon="11.095125320642381"><ele>109.0</ele><time>2026-03-22T10:21:50Z</time></trkpt><trkpt lat="44.47372701049655" lon="11.095180591163984"><ele>109.00000000000001</ele><time>2026-03-22T10:21:51Z</time></trkpt><trkpt lat="44.47369257701361" lon="11.095302604032813"><ele>109.0</ele><time>2026-03-22T10:21:52Z</time></trkpt><trkpt lat="44.47369828034945" lon="11.095425780050338"><ele>109.0</ele><time>2026-03-22T10:21:53Z</time></trkpt><trkpt lat="44.47371977152124" lon="11.095527420837623"><ele>109.0</ele><time>2026-03-22T10:21:54Z</time></trkpt><trkpt lat="44.4737083610693" lon="11.09562658945528"><ele>109.00000000000001</ele><time>2026-03-22T10:21:55Z</time></trkpt><trkpt lat="44.4736784335374" lon="11.095742389139575"><ele>109.0</ele><time>2026-03-22T10:21:56Z</time></trkpt><trkpt lat="44.473603024369915" lon="11.095826793230783"><ele>109.0</ele><time>2026-03-22T10:21:57Z</time></trkpt><trkpt lat="44.473533365622906" lon="11.095926362260595"><ele>109.0</ele><time>2026-03-22T10:21:58Z</time></trkpt><trkpt lat="44.47345988833058" lon="11.096037627563806"><ele>109.0</ele><time>2026-03-22T10:21:59Z</time></trkpt><trkpt lat="44.47338842029052" lon="11.096145485476606"><ele>109.0</ele><time>2026-03-22T10:22:00Z</time></trkpt><trkpt lat="44.47333066224379" lon="11.096233025528042"><ele>109.0</ele><time>2026-03-22T10:22:01Z</time></trkpt><trkpt lat="44.47326343434672" lon="11.096335093856935"><ele>109.0</ele><time>2026-03-22T10:22:02Z</time></trkpt><trkpt lat="44.47318817483201" lon="11.096449355935553"><ele>109.0</ele><time>2026-03-22T10:22:03Z</time></trkpt><trkpt lat="44.47311445249728" lon="11.096560752843805"><ele>109.0</ele><time>2026-03-22T10:22:04Z</time></trkpt><trkpt lat="44.473039762676244" lon="11.096673635550752"><ele>109.0</ele><time>2026-03-22T10:22:05Z</time></trkpt><trkpt lat="44.47296459782611" lon="11.096787903490283"><ele>109.0</ele><time>2026-03-22T10:22:06Z</time></trkpt><trkpt lat="44.47288826238788" lon="11.096905179656638"><ele>109.25</ele><time>2026-03-22T10:22:07Z</time></trkpt><trkpt lat="44.47281300979448" lon="11.097020792233481"><ele>109.5</ele><time>2026-03-22T10:22:08Z</time></trkpt><trkpt lat="44.47273605200925" lon="11.097139024525855"><ele>109.75</ele><time>2026-03-22T10:22:09Z</time></trkpt><trkpt lat="44.47266032162824" lon="11.097255371137445"><ele>110.0</ele><time>2026-03-22T10:22:10Z</time></trkpt><trkpt lat="44.47258382589313" lon="11.097372893570771"><ele>110.2</ele><time>2026-03-22T10:22:11Z</time></trkpt><trkpt lat="44.472506428475036" lon="11.097491801285493"><ele>110.4</ele><time>2026-03-22T10:22:12Z</time></trkpt><trkpt lat="44.47243677090612" lon="11.097598818062592"><ele>110.6</ele><time>2026-03-22T10:22:13Z</time></trkpt><trkpt lat="44.472368615567994" lon="11.097718910604184"><ele>110.8</ele><time>2026-03-22T10:22:14Z</time></trkpt><trkpt lat="44.47229921376824" lon="11.097837536058229"><ele>111.0</ele><time>2026-03-22T10:22:15Z</time></trkpt><trkpt lat="44.472212158291775" lon="11.097937657829055"><ele>111.0</ele><time>2026-03-22T10:22:16Z</time></trkpt><trkpt lat="44.472143703068014" lon="11.098040703576972"><ele>111.0</ele><time>2026-03-22T10:22:17Z</time></trkpt><trkpt lat="44.47207082967338" lon="11.098150399979067"><ele>111.0</ele><time>2026-03-22T10:22:18Z</time></trkpt><trkpt lat="44.471996828751685" lon="11.098261793341791"><ele>111.0</ele><time>2026-03-22T10:22:19Z</time></trkpt><trkpt lat="44.47191739496693" lon="11.098382167951078"><ele>111.0</ele><time>2026-03-22T10:22:20Z</time></trkpt><trkpt lat="44.471844146501795" lon="11.0984929801397"><ele>111.19999999999999</ele><time>2026-03-22T10:22:21Z</time></trkpt><trkpt lat="44.47176657053887" lon="11.098612029376584"><ele>111.39999999999999</ele><time>2026-03-22T10:22:22Z</time></trkpt><trkpt lat="44.47169003836155" lon="11.098729476842458"><ele>111.6</ele><time>2026-03-22T10:22:23Z</time></trkpt><trkpt lat="44.4716161066367" lon="11.098842933614096"><ele>111.8</ele><time>2026-03-22T10:22:24Z</time></trkpt><trkpt lat="44.471542398433435" lon="11.09895604735395"><ele>112.0</ele><time>2026-03-22T10:22:25Z</time></trkpt><trkpt lat="44.47147045164515" lon="11.09907651646381"><ele>112.19999999999999</ele><time>2026-03-22T10:22:26Z</time></trkpt><trkpt lat="44.47140230342886" lon="11.09918330806695"><ele>112.39999999999999</ele><time>2026-03-22T10:22:27Z</time></trkpt><trkpt lat="44.4713344699649" lon="11.09929818542659"><ele>112.60000000000001</ele><time>2026-03-22T10:22:28Z</time></trkpt><trkpt lat="44.471265486765816" lon="11.09939762748218"><ele>112.80000000000001</ele><time>2026-03-22T10:22:29Z</time></trkpt><trkpt lat="44.471197834861755" lon="11.099509727002516"><ele>113.0</ele><time>2026-03-22T10:22:30Z</time></trkpt><trkpt lat="44.47112336217003" lon="11.099610477322456"><ele>113.16666666666666</ele><time>2026-03-22T10:22:31Z</time></trkpt><trkpt lat="44.47105696839388" lon="11.099714358692678"><ele>113.33333333333333</ele><time>2026-03-22T10:22:32Z</time></trkpt><trkpt lat="44.47099343643081" lon="11.099811525237017"><ele>113.5</ele><time>2026-03-22T10:22:33Z</time></trkpt><trkpt lat="44.47093087086374" lon="11.09990872392043"><ele>113.66666666666666</ele><time>2026-03-22T10:22:34Z</time></trkpt><trkpt lat="44.47087350029149" lon="11.100009313099601"><ele>113.83333333333333</ele><time>2026-03-22T10:22:35Z</time></trkpt><trkpt lat="44.47082266288358" lon="11.100077862440987"><ele>114.0</ele><time>2026-03-22T10:22:36Z</time></trkpt><trkpt lat="44.470775753433074" lon="11.100142599443556"><ele>114.2</ele><time>2026-03-22T10:22:37Z</time></trkpt><trkpt lat="44.4706843277092" lon="11.100194488655934"><ele>114.4</ele><time>2026-03-22T10:22:39Z</time></trkpt><trkpt lat="44.47062785597885" lon="11.100154652384738"><ele>114.6</ele><time>2026-03-22T10:22:40Z</time></trkpt><trkpt lat="44.47054885417846" lon="11.100054486838458"><ele>114.8</ele><time>2026-03-22T10:22:41Z</time></trkpt><trkpt lat="44.47044378245657" lon="11.099932189134254"><ele>115.0</ele><time>2026-03-22T10:22:42Z</time></trkpt><trkpt lat="44.47031131432976" lon="11.099797617495012"><ele>115.5</ele><time>2026-03-22T10:22:43Z</time></trkpt><trkpt lat="44.47016994114799" lon="11.099683522968396"><ele>116.0</ele><time>2026-03-22T10:22:44Z</time></trkpt><trkpt lat="44.47007468788601" lon="11.099545777287222"><ele>116.5</ele><time>2026-03-22T10:22:45Z</time></trkpt><trkpt lat="44.46997367485182" lon="11.09942051450265"><ele>117.0</ele><time>2026-03-22T10:22:46Z</time></trkpt><trkpt lat="44.469871362940665" lon="11.099283219386917"><ele>117.0</ele><time>2026-03-22T10:22:47Z</time></trkpt><trkpt lat="44.46976552209642" lon="11.099156412312098"><ele>117.0</ele><time>2026-03-22T10:22:48Z</time></trkpt><trkpt lat="44.46966384026704" lon="11.0990476687519"><ele>117.0</ele><time>2026-03-22T10:22:49Z</time></trkpt><trkpt lat="44.46957489177596" lon="11.098927971245393"><ele>117.0</ele><time>2026-03-22T10:22:50Z</time></trkpt><trkpt lat="44.469481351994496" lon="11.098806485851895"><ele>117.66666666666666</ele><time>2026-03-22T10:22:51Z</time></trkpt><trkpt lat="44.469369274906434" lon="11.098724952005773"><ele>118.33333333333333</ele><time>2026-03-22T10:22:52Z</time></trkpt><trkpt lat="44.46922498033071" lon="11.09863971527571"><ele>119.0</ele><time>2026-03-22T10:22:53Z</time></trkpt><trkpt lat="44.469055286143096" lon="11.0985818379036"><ele>119.0</ele><time>2026-03-22T10:22:54Z</time></trkpt><trkpt lat="44.468870973577815" lon="11.098545619521454"><ele>119.0</ele><time>2026-03-22T10:22:55Z</time></trkpt><trkpt lat="44.46869036129958" lon="11.098514324812374"><ele>119.0</ele><time>2026-03-22T10:22:56Z</time></trkpt><trkpt lat="44.46853841401457" lon="11.098470638789404"><ele>120.0</ele><time>2026-03-22T10:22:57Z</time></trkpt><trkpt lat="44.46842733235164" lon="11.098448844014191"><ele>121.0</ele><time>2026-03-22T10:22:58Z</time></trkpt><trkpt lat="44.46832921865981" lon="11.098424043096552"><ele>122.0</ele><time>2026-03-22T10:22:59Z</time></trkpt><trkpt lat="44.468219796776424" lon="11.098405115735012"><ele>123.0</ele><time>2026-03-22T10:23:00Z</time></trkpt><trkpt lat="44.46807500312779" lon="11.098381631143756"><ele>123.0</ele><time>2026-03-22T10:23:01Z</time></trkpt><trkpt lat="44.46796428635731" lon="11.098351158925267"><ele>123.0</ele><time>2026-03-22T10:23:02Z</time></trkpt><trkpt lat="44.46788196691921" lon="11.098329928830982"><ele>123.0</ele><time>2026-03-22T10:23:03Z</time></trkpt><trkpt lat="44.467741581934845" lon="11.098268297247511"><ele>123.0</ele><time>2026-03-22T10:23:05Z</time></trkpt><trkpt lat="44.46763901837644" lon="11.09816851890603"><ele>124.60000000000001</ele><time>2026-03-22T10:23:06Z</time></trkpt><trkpt lat="44.46756430239195" lon="11.098061947398717"><ele>126.20000000000002</ele><time>2026-03-22T10:23:07.001Z</time></trkpt><trkpt lat="44.467514825459034" lon="11.097953144449528"><ele>127.8</ele><time>2026-03-22T10:23:08.001Z</time></trkpt><trkpt lat="44.467487345812614" lon="11.097836809968628"><ele>129.4</ele><time>2026-03-22T10:23:09.001Z</time></trkpt><trkpt lat="44.46748931200043" lon="11.097696040449682"><ele>131.0</ele><time>2026-03-22T10:23:10.001Z</time></trkpt><trkpt lat="44.46748215854441" lon="11.097507609719877"><ele>131.8</ele><time>2026-03-22T10:23:11.001Z</time></trkpt><trkpt lat="44.46748283243158" lon="11.097356114246006"><ele>132.6</ele><time>2026-03-22T10:23:12.001Z</time></trkpt><trkpt lat="44.467457633635824" lon="11.097225201879588"><ele>133.4</ele><time>2026-03-22T10:23:13.001Z</time></trkpt><trkpt lat="44.46739657806531" lon="11.097088936178482"><ele>134.2</ele><time>2026-03-22T10:23:14.001Z</time></trkpt><trkpt lat="44.46729561819394" lon="11.096976096320907"><ele>135.0</ele><time>2026-03-22T10:23:15.001Z</time></trkpt><trkpt lat="44.46718490234782" lon="11.096880320061558"><ele>135.75</ele><time>2026-03-22T10:23:16.001Z</time></trkpt><trkpt lat="44.46705730972802" lon="11.09682590690433"><ele>136.5</ele><time>2026-03-22T10:23:17.001Z</time></trkpt><trkpt lat="44.46693989405254" lon="11.096767963021442"><ele>137.25</ele><time>2026-03-22T10:23:18.001Z</time></trkpt><trkpt lat="44.46684548567921" lon="11.096676851291566"><ele>138.0</ele><time>2026-03-22T10:23:19.001Z</time></trkpt><trkpt lat="44.466741339139084" lon="11.09654274799679"><ele>138.75</ele><time>2026-03-22T10:23:20.001Z</time></trkpt><trkpt lat="44.46663962931457" lon="11.096390430369189"><ele>139.5</ele><time>2026-03-22T10:23:21.001Z</time></trkpt><trkpt lat="44.46655312768329" lon="11.096269582609448"><ele>140.25</ele><time>2026-03-22T10:23:22.001Z</time></trkpt><trkpt lat="44.46648069045343" lon="11.096155872235437"><ele>141.0</ele><time>2026-03-22T10:23:23.001Z</time></trkpt><trkpt lat="44.46641153074853" lon="11.095994479219003"><ele>141.0</ele><time>2026-03-22T10:23:24.001Z</time></trkpt><trkpt lat="44.46634554028656" lon="11.095780054572664"><ele>141.0</ele><time>2026-03-22T10:23:25.001Z</time></trkpt><trkpt lat="44.46628219707503" lon="11.095580197119501"><ele>141.0</ele><time>2026-03-22T10:23:26.001Z</time></trkpt><trkpt lat="44.46622043724472" lon="11.095441843691807"><ele>141.0</ele><time>2026-03-22T10:23:27.001Z</time></trkpt><trkpt lat="44.46616479559203" lon="11.09528480665239"><ele>143.0</ele><time>2026-03-22T10:23:28.001Z</time></trkpt><trkpt lat="44.466122052397836" lon="11.095087364198305"><ele>145.0</ele><time>2026-03-22T10:23:29.001Z</time></trkpt><trkpt lat="44.46609850209731" lon="11.094908782510691"><ele>147.0</ele><time>2026-03-22T10:23:30.001Z</time></trkpt><trkpt lat="44.46608470885185" lon="11.094718792780197"><ele>149.0</ele><time>2026-03-22T10:23:31.001Z</time></trkpt><trkpt lat="44.46603858010312" lon="11.09451557381923"><ele>151.0</ele><time>2026-03-22T10:23:32.001Z</time></trkpt><trkpt lat="44.46597842417686" lon="11.09431392100465"><ele>153.0</ele><time>2026-03-22T10:23:33.001Z</time></trkpt><trkpt lat="44.4659196759231" lon="11.09413174555462"><ele>155.0</ele><time>2026-03-22T10:23:34.001Z</time></trkpt><trkpt lat="44.46586466859283" lon="11.09398076234141"><ele>157.0</ele><time>2026-03-22T10:23:35.001Z</time></trkpt><trkpt lat="44.46581114059831" lon="11.09385071793633"><ele>158.0</ele><time>2026-03-22T10:23:36.001Z</time></trkpt><trkpt lat="44.46577064017818" lon="11.093732367054265"><ele>159.0</ele><time>2026-03-22T10:23:37.001Z</time></trkpt><trkpt lat="44.4657329856075" lon="11.093622571310352"><ele>160.0</ele><time>2026-03-22T10:23:38.001Z</time></trkpt><trkpt lat="44.465714257543326" lon="11.093524165044391"><ele>161.0</ele><time>2026-03-22T10:23:39.001Z</time></trkpt><trkpt lat="44.46575097635355" lon="11.093354852744014"><ele>162.0</ele><time>2026-03-22T10:23:41Z</time></trkpt><trkpt lat="44.46581208219962" lon="11.093307962210813"><ele>163.0</ele><time>2026-03-22T10:23:42Z</time></trkpt><trkpt lat="44.465885409459744" lon="11.093339044375389"><ele>163.0</ele><time>2026-03-22T10:23:43Z</time></trkpt><trkpt lat="44.46596480863313" lon="11.093391298477096"><ele>163.0</ele><time>2026-03-22T10:23:44Z</time></trkpt><trkpt lat="44.46608398555941" lon="11.093414651876566"><ele>163.0</ele><time>2026-03-22T10:23:45Z</time></trkpt><trkpt lat="44.46621027955327" lon="11.093392748049043"><ele>163.0</ele><time>2026-03-22T10:23:46Z</time></trkpt><trkpt lat="44.46633455973377" lon="11.09337136167427"><ele>165.0</ele><time>2026-03-22T10:23:47Z</time></trkpt><trkpt lat="44.466455276457374" lon="11.093354086869812"><ele>167.0</ele><time>2026-03-22T10:23:48Z</time></trkpt><trkpt lat="44.46657367896809" lon="11.0933970226926"><ele>169.0</ele><time>2026-03-22T10:23:49Z</time></trkpt><trkpt lat="44.46668495996526" lon="11.093493053017982"><ele>171.0</ele><time>2026-03-22T10:23:50Z</time></trkpt><trkpt lat="44.46678127758608" lon="11.093532057579164"><ele>171.0</ele><time>2026-03-22T10:23:51Z</time></trkpt><trkpt lat="44.46685531764125" lon="11.093526087549336"><ele>171.0</ele><time>2026-03-22T10:23:52Z</time></trkpt><trkpt lat="44.466940388954804" lon="11.093505439582215"><ele>171.0</ele><time>2026-03-22T10:23:53Z</time></trkpt><trkpt lat="44.4670401004677" lon="11.09342089971835"><ele>171.0</ele><time>2026-03-22T10:23:54Z</time></trkpt><trkpt lat="44.4671448624223" lon="11.09340325234836"><ele>171.0</ele><time>2026-03-22T10:23:55Z</time></trkpt><trkpt lat="44.46727030597347" lon="11.093457968366929"><ele>175.5</ele><time>2026-03-22T10:23:56Z</time></trkpt><trkpt lat="44.46741789268636" lon="11.093517635929508"><ele>180.0</ele><time>2026-03-22T10:23:57Z</time></trkpt><trkpt lat="44.467534370977354" lon="11.09358296337351"><ele>184.5</ele><time>2026-03-22T10:23:58Z</time></trkpt><trkpt lat="44.467618179393355" lon="11.093646921166613"><ele>189.0</ele><time>2026-03-22T10:23:59Z</time></trkpt><trkpt lat="44.46767765550242" lon="11.09373582102629"><ele>189.0</ele><time>2026-03-22T10:24:00Z</time></trkpt><trkpt lat="44.467714887089436" lon="11.093859858126335"><ele>189.0</ele><time>2026-03-22T10:24:01Z</time></trkpt><trkpt lat="44.467765934991085" lon="11.094001744030008"><ele>189.0</ele><time>2026-03-22T10:24:02Z</time></trkpt><trkpt lat="44.467807183156914" lon="11.094092058478235"><ele>189.0</ele><time>2026-03-22T10:24:03Z</time></trkpt><trkpt lat="44.467893956418436" lon="11.094163907341443"><ele>189.0</ele><time>2026-03-22T10:24:05Z</time></trkpt><trkpt lat="44.46796897430548" lon="11.09408423222418"><ele>189.0</ele><time>2026-03-22T10:24:06Z</time></trkpt><trkpt lat="44.46800620910886" lon="11.094005741053468"><ele>189.0</ele><time>2026-03-22T10:24:07Z</time></trkpt><trkpt lat="44.46797043303369" lon="11.093877285437966"><ele>189.0</ele><time>2026-03-22T10:24:08Z</time></trkpt><trkpt lat="44.467908265451975" lon="11.093749680273735"><ele>189.0</ele><time>2026-03-22T10:24:09Z</time></trkpt><trkpt lat="44.46787148944921" lon="11.09358378169275"><ele>189.0</ele><time>2026-03-22T10:24:10Z</time></trkpt><trkpt lat="44.46784008539764" lon="11.093454488565566"><ele>189.0</ele><time>2026-03-22T10:24:11Z</time></trkpt><trkpt lat="44.46780498182609" lon="11.09332902402431"><ele>189.0</ele><time>2026-03-22T10:24:12Z</time></trkpt><trkpt lat="44.4677391248279" lon="11.093226707806707"><ele>189.0</ele><time>2026-03-22T10:24:13Z</time></trkpt><trkpt lat="44.46764787347959" lon="11.093140543384134"><ele>189.0</ele><time>2026-03-22T10:24:14Z</time></trkpt><trkpt lat="44.46757270613254" lon="11.093057816900107"><ele>189.0</ele><time>2026-03-22T10:24:15Z</time></trkpt><trkpt lat="44.4674926790892" lon="11.092942745544988"><ele>194.25</ele><time>2026-03-22T10:24:16Z</time></trkpt><trkpt lat="44.467395723271245" lon="11.092744138076366"><ele>199.5</ele><time>2026-03-22T10:24:17Z</time></trkpt><trkpt lat="44.46730238156256" lon="11.092576162720196"><ele>204.75</ele><time>2026-03-22T10:24:18Z</time></trkpt><trkpt lat="44.46723446786548" lon="11.092458748435384"><ele>210.0</ele><time>2026-03-22T10:24:19Z</time></trkpt><trkpt lat="44.46716534741765" lon="11.092388822771857"><ele>210.0</ele><time>2026-03-22T10:24:20Z</time></trkpt><trkpt lat="44.467113904952484" lon="11.092251559519497"><ele>210.0</ele><time>2026-03-22T10:24:22Z</time></trkpt><trkpt lat="44.467157646332915" lon="11.092161930232177"><ele>210.0</ele><time>2026-03-22T10:24:23Z</time></trkpt><trkpt lat="44.46725927747395" lon="11.092184515207194"><ele>210.0</ele><time>2026-03-22T10:24:24Z</time></trkpt><trkpt lat="44.467310723238256" lon="11.092341090382709"><ele>210.0</ele><time>2026-03-22T10:24:25Z</time></trkpt><trkpt lat="44.4674120666561" lon="11.09242487324199"><ele>210.0</ele><time>2026-03-22T10:24:26Z</time></trkpt><trkpt lat="44.467497514170326" lon="11.092489021769058"><ele>210.0</ele><time>2026-03-22T10:24:27Z</time></trkpt><trkpt lat="44.46758648549867" lon="11.092535912680123"><ele>210.0</ele><time>2026-03-22T10:24:28Z</time></trkpt><trkpt lat="44.46769065391752" lon="11.092570931359575"><ele>210.0</ele><time>2026-03-22T10:24:29Z</time></trkpt><trkpt lat="44.467814587101245" lon="11.092549462602562"><ele>210.0</ele><time>2026-03-22T10:24:30Z</time></trkpt><trkpt lat="44.467919884543555" lon="11.092552352831603"><ele>216.0</ele><time>2026-03-22T10:24:31Z</time></trkpt><trkpt lat="44.468016064659814" lon="11.09254113883099"><ele>222.0</ele><time>2026-03-22T10:24:32Z</time></trkpt><trkpt lat="44.46809757388341" lon="11.09254125872879"><ele>228.0</ele><time>2026-03-22T10:24:33Z</time></trkpt><trkpt lat="44.46816412638827" lon="11.092566817495236"><ele>234.0</ele><time>2026-03-22T10:24:34Z</time></trkpt><trkpt lat="44.46822449856764" lon="11.092640675626669"><ele>240.0</ele><time>2026-03-22T10:24:35Z</time></trkpt><trkpt lat="44.46828680761361" lon="11.092770470978584"><ele>246.0</ele><time>2026-03-22T10:24:36Z</time></trkpt><trkpt lat="44.46832868025368" lon="11.092912616579351"><ele>246.0</ele><time>2026-03-22T10:24:37Z</time></trkpt><trkpt lat="44.46835917499254" lon="11.093047056084519"><ele>246.00000000000003</ele><time>2026-03-22T10:24:38Z</time></trkpt><trkpt lat="44.46839203883951" lon="11.093155186843177"><ele>246.00000000000003</ele><time>2026-03-22T10:24:39Z</time></trkpt><trkpt lat="44.468363754285456" lon="11.09329868812781"><ele>246.0</ele><time>2026-03-22T10:24:40Z</time></trkpt><trkpt lat="44.46839495660445" lon="11.09339073711494"><ele>246.0</ele><time>2026-03-22T10:24:41Z</time></trkpt><trkpt lat="44.468466883597834" lon="11.093541391928788"><ele>246.5</ele><time>2026-03-22T10:24:43Z</time></trkpt><trkpt lat="44.46851413320279" lon="11.093612456701596"><ele>247.0</ele><time>2026-03-22T10:24:44Z</time></trkpt><trkpt lat="44.468584441772414" lon="11.093668938757935"><ele>247.5</ele><time>2026-03-22T10:24:45Z</time></trkpt><trkpt lat="44.46866102165294" lon="11.093704190827399"><ele>248.0</ele><time>2026-03-22T10:24:46Z</time></trkpt><trkpt lat="44.46874443505036" lon="11.093720293379032"><ele>248.5</ele><time>2026-03-22T10:24:47Z</time></trkpt><trkpt lat="44.468816332286984" lon="11.09374201011572"><ele>249.0</ele><time>2026-03-22T10:24:48Z</time></trkpt><trkpt lat="44.46889032778011" lon="11.09377624223657"><ele>249.0</ele><time>2026-03-22T10:24:49Z</time></trkpt><trkpt lat="44.46896194228645" lon="11.093827987919225"><ele>249.0</ele><time>2026-03-22T10:24:50Z</time></trkpt><trkpt lat="44.46902993005509" lon="11.093900683357486"><ele>249.0</ele><time>2026-03-22T10:24:51Z</time></trkpt><trkpt lat="44.46909220604702" lon="11.093995649155975"><ele>249.0</ele><time>2026-03-22T10:24:52Z</time></trkpt><trkpt lat="44.46916386865741" lon="11.094085382575129"><ele>249.0</ele><time>2026-03-22T10:24:53Z</time></trkpt><trkpt lat="44.46924069165807" lon="11.094163746560612"><ele>249.0</ele><time>2026-03-22T10:24:54Z</time></trkpt><trkpt lat="44.46932794626918" lon="11.094218393745793"><ele>246.6</ele><time>2026-03-22T10:24:55Z</time></trkpt><trkpt lat="44.46941370114823" lon="11.094256714533685"><ele>244.2</ele><time>2026-03-22T10:24:56Z</time></trkpt><trkpt lat="44.46951151158591" lon="11.094271680137913"><ele>241.79999999999998</ele><time>2026-03-22T10:24:57Z</time></trkpt><trkpt lat="44.4696136162245" lon="11.094276708014029"><ele>239.39999999999998</ele><time>2026-03-22T10:24:58Z</time></trkpt><trkpt lat="44.46971683297968" lon="11.094271925797091"><ele>237.0</ele><time>2026-03-22T10:24:59.001Z</time></trkpt><trkpt lat="44.469813972230746" lon="11.09428580862536"><ele>237.0</ele><time>2026-03-22T10:25:00.001Z</time></trkpt><trkpt lat="44.46991451289372" lon="11.094313706706505"><ele>237.0</ele><time>2026-03-22T10:25:01.001Z</time></trkpt><trkpt lat="44.470006997436876" lon="11.094333731843227"><ele>237.0</ele><time>2026-03-22T10:25:02.001Z</time></trkpt><trkpt lat="44.470108246401026" lon="11.094347606783105"><ele>237.0</ele><time>2026-03-22T10:25:03.001Z</time></trkpt><trkpt lat="44.47020403393048" lon="11.094351649206862"><ele>237.0</ele><time>2026-03-22T10:25:04.001Z</time></trkpt><trkpt lat="44.47030249527157" lon="11.094351069824913"><ele>237.0</ele><time>2026-03-22T10:25:05.001Z</time></trkpt><trkpt lat="44.47040092554235" lon="11.09435040635358"><ele>237.0</ele><time>2026-03-22T10:25:06.001Z</time></trkpt><trkpt lat="44.47050312736691" lon="11.094340187696991"><ele>237.0</ele><time>2026-03-22T10:25:07.001Z</time></trkpt><trkpt lat="44.47060029444611" lon="11.09433049370437"><ele>237.0</ele><time>2026-03-22T10:25:08.001Z</time></trkpt><trkpt lat="44.470686989826625" lon="11.094329664867505"><ele>237.0</ele><time>2026-03-22T10:25:09.001Z</time></trkpt><trkpt lat="44.47076043141625" lon="11.094321639305127"><ele>236.0</ele><time>2026-03-22T10:25:10.001Z</time></trkpt><trkpt lat="44.47084446674066" lon="11.094261613965594"><ele>235.0</ele><time>2026-03-22T10:25:11.001Z</time></trkpt><trkpt lat="44.47092507804576" lon="11.094176141350317"><ele>234.0</ele><time>2026-03-22T10:25:12.001Z</time></trkpt><trkpt lat="44.47100507322412" lon="11.09406236350076"><ele>233.0</ele><time>2026-03-22T10:25:13.001Z</time></trkpt><trkpt lat="44.47107708307982" lon="11.093964299117289"><ele>232.0</ele><time>2026-03-22T10:25:14.001Z</time></trkpt><trkpt lat="44.47113841545417" lon="11.093886244988841"><ele>234.16666666666666</ele><time>2026-03-22T10:25:15.001Z</time></trkpt><trkpt lat="44.471185355950674" lon="11.093810759371538"><ele>236.33333333333331</ele><time>2026-03-22T10:25:16.001Z</time></trkpt><trkpt lat="44.47121456694623" lon="11.093727564860632"><ele>238.5</ele><time>2026-03-22T10:25:17.001Z</time></trkpt><trkpt lat="44.471233821128" lon="11.093596708850777"><ele>240.66666666666669</ele><time>2026-03-22T10:25:18.001Z</time></trkpt><trkpt lat="44.471236959413524" lon="11.093488599900825"><ele>242.83333333333334</ele><time>2026-03-22T10:25:19.001Z</time></trkpt><trkpt lat="44.47121633555033" lon="11.093363460648755"><ele>245.0</ele><time>2026-03-22T10:25:20.001Z</time></trkpt><trkpt lat="44.47118425752709" lon="11.093232657666109"><ele>245.0</ele><time>2026-03-22T10:25:21.001Z</time></trkpt><trkpt lat="44.47112676736374" lon="11.093090492675145"><ele>245.0</ele><time>2026-03-22T10:25:22.001Z</time></trkpt><trkpt lat="44.47107257596533" lon="11.092990322339544"><ele>245.0</ele><time>2026-03-22T10:25:23.001Z</time></trkpt><trkpt lat="44.471036606351625" lon="11.092884732351886"><ele>245.0</ele><time>2026-03-22T10:25:24.001Z</time></trkpt><trkpt lat="44.47097858238861" lon="11.09280120633313"><ele>245.0</ele><time>2026-03-22T10:25:25.001Z</time></trkpt><trkpt lat="44.47090458951712" lon="11.092727319182382"><ele>245.00000000000003</ele><time>2026-03-22T10:25:26.001Z</time></trkpt><trkpt lat="44.47082308790748" lon="11.092666070952648"><ele>245.0</ele><time>2026-03-22T10:25:27.001Z</time></trkpt><trkpt lat="44.47075344345025" lon="11.092603332562009"><ele>245.0</ele><time>2026-03-22T10:25:28.001Z</time></trkpt><trkpt lat="44.47068421696741" lon="11.092542104793539"><ele>245.0</ele><time>2026-03-22T10:25:29.001Z</time></trkpt><trkpt lat="44.470621928325336" lon="11.092455936710321"><ele>245.00000000000003</ele><time>2026-03-22T10:25:30.001Z</time></trkpt><trkpt lat="44.470570564345145" lon="11.09234342576428"><ele>245.0</ele><time>2026-03-22T10:25:31.001Z</time></trkpt><trkpt lat="44.47054473049113" lon="11.09222028545526"><ele>247.0</ele><time>2026-03-22T10:25:32.001Z</time></trkpt><trkpt lat="44.470542346199025" lon="11.092093439167314"><ele>249.0</ele><time>2026-03-22T10:25:33.001Z</time></trkpt><trkpt lat="44.47053646590248" lon="11.09198248536101"><ele>251.0</ele><time>2026-03-22T10:25:34.001Z</time></trkpt><trkpt lat="44.47050144994445" lon="11.091797120799944"><ele>253.0</ele><time>2026-03-22T10:25:36.001Z</time></trkpt><trkpt lat="44.47043492561117" lon="11.091709388453557"><ele>255.0</ele><time>2026-03-22T10:25:37.001Z</time></trkpt><trkpt lat="44.47034574570264" lon="11.091669172329569"><ele>255.0</ele><time>2026-03-22T10:25:38.001Z</time></trkpt><trkpt lat="44.470251787327015" lon="11.091621687629893"><ele>255.0</ele><time>2026-03-22T10:25:39.001Z</time></trkpt><trkpt lat="44.470160360957955" lon="11.091549100932824"><ele>255.0</ele><time>2026-03-22T10:25:40.001Z</time></trkpt><trkpt lat="44.47007021796923" lon="11.091498283155977"><ele>255.0</ele><time>2026-03-22T10:25:41.001Z</time></trkpt><trkpt lat="44.469975984404456" lon="11.091451189057032"><ele>255.0</ele><time>2026-03-22T10:25:42.001Z</time></trkpt><trkpt lat="44.469875847619" lon="11.091410567824083"><ele>253.6</ele><time>2026-03-22T10:25:43.001Z</time></trkpt><trkpt lat="44.46978711447178" lon="11.091368211043456"><ele>252.2</ele><time>2026-03-22T10:25:44.001Z</time></trkpt><trkpt lat="44.46970246843798" lon="11.091351924919165"><ele>250.8</ele><time>2026-03-22T10:25:45.001Z</time></trkpt><trkpt lat="44.469613284556715" lon="11.091344272540475"><ele>249.4</ele><time>2026-03-22T10:25:46.001Z</time></trkpt><trkpt lat="44.46951709184862" lon="11.09133166529183"><ele>248.0</ele><time>2026-03-22T10:25:47Z</time></trkpt><trkpt lat="44.46941988095583" lon="11.091306752410183"><ele>248.00000000000003</ele><time>2026-03-22T10:25:48Z</time></trkpt><trkpt lat="44.46933046191177" lon="11.091277648406658"><ele>248.0</ele><time>2026-03-22T10:25:49Z</time></trkpt><trkpt lat="44.46925343888936" lon="11.091243850882478"><ele>248.0</ele><time>2026-03-22T10:25:50Z</time></trkpt><trkpt lat="44.469188580837056" lon="11.091218754774914"><ele>248.0</ele><time>2026-03-22T10:25:51Z</time></trkpt><trkpt lat="44.46907574966706" lon="11.09114255136812"><ele>248.00000000000003</ele><time>2026-03-22T10:25:53Z</time></trkpt><trkpt lat="44.46901240448497" lon="11.091087970802105"><ele>248.0</ele><time>2026-03-22T10:25:54Z</time></trkpt><trkpt lat="44.46894448073771" lon="11.091010070608613"><ele>248.0</ele><time>2026-03-22T10:25:55Z</time></trkpt><trkpt lat="44.46888174447209" lon="11.090921439137112"><ele>248.0</ele><time>2026-03-22T10:25:56Z</time></trkpt><trkpt lat="44.46882018064701" lon="11.090800772186787"><ele>248.0</ele><time>2026-03-22T10:25:57Z</time></trkpt><trkpt lat="44.46875760881827" lon="11.090681528484529"><ele>248.0</ele><time>2026-03-22T10:25:58Z</time></trkpt><trkpt lat="44.46869967547844" lon="11.090560672262912"><ele>248.0</ele><time>2026-03-22T10:25:59Z</time></trkpt><trkpt lat="44.46864841322011" lon="11.090450011435845"><ele>249.50000000000003</ele><time>2026-03-22T10:26:00Z</time></trkpt><trkpt lat="44.46860967062087" lon="11.09035884646563"><ele>251.0</ele><time>2026-03-22T10:26:01Z</time></trkpt><trkpt lat="44.468572975538116" lon="11.090283327449786"><ele>252.5</ele><time>2026-03-22T10:26:02Z</time></trkpt><trkpt lat="44.46850906733016" lon="11.090210062379649"><ele>254.0</ele><time>2026-03-22T10:26:03Z</time></trkpt><trkpt lat="44.46841839217632" lon="11.090149456709563"><ele>255.50000000000003</ele><time>2026-03-22T10:26:04Z</time></trkpt><trkpt lat="44.46832852160993" lon="11.090109526955045"><ele>257.0</ele><time>2026-03-22T10:26:05Z</time></trkpt><trkpt lat="44.4682400833483" lon="11.090070378774396"><ele>257.0</ele><time>2026-03-22T10:26:06Z</time></trkpt><trkpt lat="44.46814793385585" lon="11.0900418314604"><ele>257.0</ele><time>2026-03-22T10:26:07Z</time></trkpt><trkpt lat="44.468074698923886" lon="11.09001878810384"><ele>257.0</ele><time>2026-03-22T10:26:08Z</time></trkpt><trkpt lat="44.46801182406564" lon="11.089971358031493"><ele>257.0</ele><time>2026-03-22T10:26:09Z</time></trkpt><trkpt lat="44.46791138061244" lon="11.089974191468382"><ele>257.0</ele><time>2026-03-22T10:26:11Z</time></trkpt><trkpt lat="44.467859115672006" lon="11.090057855602772"><ele>257.0</ele><time>2026-03-22T10:26:13Z</time></trkpt><trkpt lat="44.4678220930588" lon="11.090164311561715"><ele>252.0</ele><time>2026-03-22T10:26:16Z</time></trkpt><trkpt lat="44.46779285195964" lon="11.090255662666591"><ele>252.0</ele><time>2026-03-22T10:26:20Z</time></trkpt></trkseg></trk></gpx>